[[{"header":{"parameterUnit":"m.s-1","parameterCategory":1,"la1":31.0,"la2":29.5877,"lo1":-88.7671,"lo2":-86.6584,"dy":0.0162,"dx":0.0185,"nx":115,"ny":88,"refTime":"2024-02-25T12:00:00:Z","depth":0,"parameterNumber":2,"parameterNumberName":"U-component_of_WINDS"},"data":[0.0,0.0,0.0,0.0,0.0,0.0,0.0,0.0,0.0,0.0,0.0,0.0,0.0,0.0,0.0,0.0,0.0,0.0,0.0,0.0,0.0,0.0,0.0,0.0,0.0,0.0,0.0,0.0,0.0,0.0,0.0,0.0,0.0,0.0,0.0,0.0,0.0,0.0,0.0,0.0,0.0,0.0,0.0,0.0,0.0,0.0,0.0,0.0,0.0,0.0,0.0,0.0,0.0,0.0,0.0,0.0,0.0,0.0,0.0,0.0,0.0,0.0,0.0,0.0,0.0,0.0,0.0,0.0,0.0,0.0,0.0,0.0,0.0,0.0,0.0,0.0,0.0,0.0,0.0,0.0,0.0,0.0,0.0,0.0,0.0,0.0,0.0,0.0,0.0,0.0,0.0,0.0,0.0,0.0,0.0,0.0,0.0,0.0,0.0,0.0,0.0,0.0,0.0,0.0,0.0,0.0,0.0,0.0,0.0,0.0,0.0,0.0,0.0,0.0,0.0,0.0,0.0,0.0,0.0,0.0,0.0,0.0,0.0,0.0,0.0,0.0,0.0,0.0,0.0,0.0,0.0,0.0,0.0,0.0,0.0,0.0,0.0,0.0,0.0,0.0,0.0,0.0,0.0,0.0,0.0,0.0,0.0,0.0,0.0,0.0,0.0,0.0,0.0,0.0,0.0,0.0,0.0,0.0,0.0,0.0,0.0,0.0,0.0,0.0,0.0,0.0,0.0,0.0,0.0,0.0,0.0,0.0,0.0,0.0,0.0,0.0,0.0,0.0,0.0,0.0,0.0,0.0,0.0,0.0,0.0,0.0,0.0,0.0,0.0,0.0,0.0,0.0,0.0,0.0,0.0,0.0,0.0,0.0,0.0,0.0,0.0,0.0,0.0,0.0,0.0,0.0,0.0,0.0,0.0,0.0,0.0,0.0,0.0,0.0,0.0,0.0,0.0,0.0,0.0,0.0,0.0,0.0,0.0,0.0,0.0,0.0,0.0,0.0,0.0,0.0,0.0,0.0,0.0,0.0,0.0,0.0,0.0,0.0,0.0,0.0,0.0,0.0,0.0,0.0,0.0,0.0,0.0,0.0,0.0,0.0,0.0,0.0,0.0,0.0,0.0,0.0,0.0,0.0,0.0,0.0,0.0,0.0,0.0,0.0,0.0,0.0,0.0,0.0,0.0,0.0,0.0,0.0,0.0,0.0,0.0,0.0,0.0,0.0,0.0,0.0,0.0,0.0,0.0,0.0,0.0,0.0,0.0,0.0,0.0,0.0,0.0,0.0,0.0,0.0,0.0,0.0,0.0,0.0,0.0,0.0,0.0,0.0,0.0,0.0,0.0,0.0,0.0,0.0,0.0,0.0,0.0,0.0,0.0,0.0,0.0,0.0,0.0,0.0,0.0,0.0,0.0,0.0,0.0,0.0,0.0,0.0,0.0,0.0,0.0,0.0,0.0,0.0,0.0,0.0,0.0,0.0,0.0,0.0,0.0,0.0,0.0,0.0,0.0,0.0,0.0,0.0,0.0,0.0,0.0,0.0,0.0,0.0,0.0,0.0,0.0,0.0,0.0,0.0,0.0,0.0,0.0,0.0,0.0,0.0,0.0,0.0,0.0,0.0,0.0,0.0,0.0,0.0,0.0,0.0,0.0,0.0,0.0,0.0,0.0,0.0,0.0,0.0,0.0,0.0,0.0,0.0,0.0,0.0,0.0,0.0,0.0,0.0,0.0,0.0,0.0,0.0,0.0,0.0,0.0,0.0,0.0,0.0,0.0,0.0,0.0,0.0,0.0,0.0,0.0,0.0,0.0,0.0,0.0,0.0,0.0,0.0,0.0,0.0,0.0,0.0,0.0,0.0,0.0,0.0,0.0,0.0,0.0,0.0,0.0,0.0,0.0,0.0,0.0,0.0,0.0,0.0,0.0,0.0,0.0,0.0,0.0,0.0,0.0,0.0,0.0,0.0,0.0,0.0,0.0,0.0,0.0,0.0,0.0,0.0,0.0,0.0,0.0,0.0,0.0,0.0,0.0,0.0,0.0,0.0,0.0,0.0,0.0,0.0,0.0,0.0,0.0,0.0,0.0,0.0,0.0,0.0,0.0,0.0,0.0,0.0,0.0,0.0,0.0,0.0,0.0,0.0,0.0,0.0,0.0,0.0,0.0,0.0,0.0,0.0,0.0,0.0,0.0,0.0,0.0,0.0,0.0,0.0,0.0,0.0,0.0,0.0,0.0,0.0,0.0,0.0,0.0,0.0,0.0,0.0,0.0,0.0,0.0,0.0,0.0,0.0,0.0,0.0,0.0,0.0,0.0,0.0,0.0,0.0,0.0,0.0,0.0,0.0,0.0,0.0,0.0,0.0,0.0,0.0,0.0,0.0,0.0,0.0,0.0,0.0,0.0,0.0,0.0,0.0,0.0,0.0,0.0,0.0,0.0,0.0,0.0,0.0,0.0,0.0,0.0,0.0,0.0,0.0,0.0,0.0,0.0,0.0,0.0,0.0,0.0,0.0,0.0,0.0,0.0,0.0,0.0,0.0,0.0,0.0,0.0,0.0,0.0,0.0,0.0,0.0,0.0,0.0,0.0,0.0,0.0,0.0,0.0,0.0,0.0,0.0,0.0,0.0,0.0,0.0,0.0,0.0,0.0,0.0,0.0,0.0,0.0,0.0,0.0,0.0,0.0,0.0,0.0,0.0,0.0,0.0,0.0,0.0,0.0,0.0,0.0,0.0,0.0,0.0,0.0,0.0,0.0,0.0,0.0,0.0,0.0,0.0,0.0,0.0,0.0,0.0,0.0,0.0,0.0,0.0,0.0,0.0,0.0,0.0,0.0,0.0,0.0,0.0,0.0,0.0,0.0,0.0,0.0,0.0,0.0,0.0,0.0,0.0,0.0,0.0,0.0,0.0,0.0,0.0,0.0,0.0,0.0,0.0,0.0,0.0,0.0,0.0,0.0,0.0,0.0,0.0,0.0,0.0,0.0,0.0,0.0,0.0,0.0,0.0,0.0,0.0,0.0,0.0,0.0,0.0,0.0,0.0,0.0,0.0,0.0,0.0,0.0,0.0,0.0,0.0,0.0,0.0,0.0,0.0,0.0,0.0,0.0,0.0,0.0,0.0,0.0,0.0,0.0,0.0,0.0,0.0,0.0,0.0,0.0,0.0,0.0,0.0,0.0,0.0,0.0,0.0,0.0,0.0,0.0,0.0,0.0,0.0,0.0,0.0,0.0,0.0,0.0,0.0,0.0,0.0,0.0,0.0,0.0,0.0,0.0,0.0,0.0,0.0,0.0,0.0,0.0,0.0,0.0,0.0,0.0,0.0,0.0,0.0,0.0,0.0,0.0,0.0,0.0,0.0,0.0,0.0,0.0,0.0,0.0,0.0,0.0,0.0,0.0,0.0,0.0,0.0,0.0,0.0,0.0,0.0,0.0,0.0,0.0,0.0,0.0,0.0,0.0,0.0,0.0,0.0,0.0,0.0,0.0,0.0,0.0,0.0,0.0,0.0,0.0,0.0,0.0,0.0,0.0,0.0,0.0,0.0,0.0,0.0,0.0,0.0,0.0,0.0,0.0,0.0,0.0,0.0,0.0,0.0,0.0,0.0,0.0,0.0,0.0,0.0,0.0,0.0,0.0,0.0,0.0,0.0,0.0,0.0,0.0,0.0,0.0,0.0,0.0,0.0,0.0,0.0,0.0,0.0,0.0,0.0,0.0,0.0,0.0,0.0,0.0,0.0,0.0,0.0,0.0,0.0,0.0,0.0,0.0,0.0,0.0,0.0,0.0,0.0,0.0,0.0,0.0,0.0,0.0,0.0,0.0,0.0,0.0,0.0,0.0,0.0,0.0,0.0,0.0,0.0,0.0,0.0,0.0,0.0,0.0,0.0,0.0,0.0,0.0,0.0,0.0,0.0,0.0,0.0,0.0,0.0,0.0,0.0,0.0,0.0,0.0,0.0,0.0,0.0,0.0,0.0,0.0,0.0,0.0,0.0,0.0,0.0,0.0,0.0,0.0,0.0,0.0,0.0,0.0,0.0,0.0,0.0,0.0,0.0,0.0,0.0,0.0,0.0,0.0,0.0,0.0,0.0,0.0,0.0,0.0,0.0,0.0,0.0,0.0,0.0,0.0,0.0,0.0,0.0,0.0,0.0,0.0,0.0,0.0,0.0,0.0,0.0,0.0,0.0,0.0,0.0,0.0,0.0,0.0,0.0,0.0,0.0,0.0,0.0,0.0,0.0,0.0,0.0,0.0,0.0,-1.3528,0.0,0.0,0.0,0.0,0.0,0.0,0.0,0.0,0.0,0.0,0.0,0.0,0.0,0.0,0.0,0.0,0.0,0.0,0.0,0.0,0.0,0.0,0.0,0.0,0.0,0.0,0.0,0.0,0.0,0.0,0.0,0.0,0.0,0.0,0.0,0.0,0.0,0.0,0.0,0.0,0.0,0.0,0.0,0.0,0.0,0.0,0.0,0.0,0.0,0.0,0.0,0.0,0.0,0.0,0.0,0.0,0.0,0.0,0.0,0.0,0.0,0.0,0.0,0.0,0.0,0.0,0.0,0.0,0.0,0.0,0.0,0.0,0.0,0.0,0.0,0.0,0.0,0.0,0.0,0.0,0.0,0.0,0.0,0.0,0.0,0.0,0.0,0.0,0.0,0.0,0.0,0.0,0.0,0.0,0.0,0.0,0.0,0.0,0.0,0.0,0.0,0.0,0.0,0.0,0.0,0.0,0.0,0.0,0.0,0.0,-1.3016,-1.285,-1.3367,-1.3559,-1.3404,0.0,0.0,0.0,0.0,0.0,0.0,0.0,0.0,0.0,0.0,0.0,0.0,0.0,0.0,0.0,0.0,0.0,0.0,0.0,0.0,0.0,0.0,0.0,0.0,0.0,0.0,0.0,0.0,0.0,0.0,0.0,0.0,0.0,0.0,0.0,0.0,0.0,0.0,0.0,0.0,0.0,0.0,0.0,0.0,0.0,0.0,0.0,0.0,0.0,0.0,0.0,0.0,0.0,0.0,0.0,0.0,0.0,0.0,0.0,0.0,0.0,0.0,0.0,0.0,0.0,0.0,0.0,0.0,0.0,0.0,0.0,0.0,0.0,0.0,0.0,0.0,0.0,0.0,0.0,0.0,0.0,0.0,0.0,0.0,0.0,0.0,0.0,0.0,0.0,0.0,0.0,0.0,0.0,0.0,0.0,0.0,0.0,0.0,0.0,0.0,0.0,0.0,0.0,0.0,0.0,0.0,0.0,0.0,0.0,0.0,0.0,0.0,-1.3129,-1.3395,-1.3218,0.0,0.0,0.0,0.0,0.0,0.0,0.0,0.0,0.0,0.0,0.0,0.0,0.0,0.0,0.0,0.0,0.0,0.0,0.0,0.0,0.0,0.0,0.0,0.0,0.0,0.0,0.0,0.0,0.0,0.0,0.0,0.0,0.0,0.0,0.0,0.0,0.0,0.0,0.0,0.0,0.0,0.0,0.0,0.0,0.0,0.0,0.0,0.0,0.0,0.0,0.0,0.0,0.0,0.0,0.0,0.0,0.0,0.0,0.0,0.0,0.0,0.0,0.0,0.0,0.0,0.0,0.0,0.0,0.0,0.0,0.0,0.0,0.0,0.0,0.0,0.0,0.0,0.0,0.0,0.0,0.0,0.0,0.0,0.0,0.0,0.0,0.0,0.0,0.0,0.0,0.0,0.0,0.0,0.0,0.0,0.0,0.0,0.0,0.0,0.0,0.0,0.0,0.0,0.0,0.0,0.0,0.0,0.0,0.0,0.0,-1.1676,-1.1542,-1.2757,0.0,-1.2966,0.0,0.0,0.0,0.0,0.0,0.0,0.0,0.0,0.0,0.0,0.0,0.0,0.0,0.0,0.0,0.0,0.0,0.0,0.0,0.0,0.0,0.0,0.0,0.0,0.0,0.0,0.0,0.0,0.0,0.0,0.0,0.0,0.0,0.0,0.0,0.0,0.0,0.0,0.0,0.0,0.0,0.0,0.0,0.0,0.0,0.0,0.0,0.0,0.0,0.0,0.0,0.0,0.0,0.0,0.0,0.0,0.0,0.0,0.0,0.0,0.0,0.0,0.0,0.0,0.0,0.0,0.0,0.0,0.0,0.0,0.0,0.0,0.0,0.0,0.0,0.0,0.0,0.0,0.0,0.0,0.0,0.0,0.0,0.0,0.0,0.0,0.0,0.0,0.0,0.0,0.0,0.0,0.0,0.0,0.0,0.0,0.0,0.0,0.0,0.0,0.0,0.0,0.0,0.0,0.0,0.0,0.0,0.0,0.0,0.0,-1.1692,-1.1985,-1.2706,-1.2998,0.0,0.0,0.0,0.0,0.0,0.0,0.0,0.0,0.0,0.0,0.0,0.0,0.0,0.0,0.0,0.0,0.0,0.0,0.0,0.0,0.0,0.0,0.0,0.0,0.0,0.0,0.0,0.0,0.0,0.0,0.0,0.0,0.0,0.0,0.0,0.0,0.0,0.0,0.0,0.0,0.0,0.0,0.0,0.0,0.0,0.0,0.0,0.0,0.0,0.0,0.0,0.0,0.0,0.0,0.0,0.0,0.0,0.0,0.0,0.0,0.0,0.0,0.0,0.0,0.0,0.0,0.0,0.0,0.0,0.0,0.0,0.0,0.0,0.0,0.0,0.0,0.0,0.0,0.0,0.0,0.0,0.0,0.0,0.0,0.0,0.0,0.0,0.0,0.0,0.0,0.0,0.0,0.0,0.0,0.0,0.0,0.0,0.0,0.0,0.0,0.0,0.0,0.0,0.0,0.0,0.0,0.0,0.0,0.0,0.0,-1.1223,-1.1847,-1.2544,-1.2779,-1.2813,-1.2681,0.0,0.0,0.0,0.0,0.0,0.0,0.0,0.0,0.0,0.0,0.0,0.0,0.0,0.0,0.0,0.0,0.0,0.0,0.0,0.0,0.0,0.0,0.0,0.0,0.0,0.0,0.0,0.0,0.0,0.0,0.0,0.0,0.0,0.0,0.0,0.0,0.0,0.0,0.0,0.0,0.0,0.0,0.0,0.0,0.0,0.0,0.0,0.0,0.0,0.0,0.0,0.0,0.0,0.0,0.0,0.0,0.0,0.0,0.0,0.0,0.0,0.0,0.0,0.0,0.0,0.0,0.0,0.0,0.0,0.0,0.0,0.0,0.0,0.0,0.0,0.0,0.0,0.0,0.0,0.0,0.0,0.0,0.0,0.0,0.0,0.0,0.0,0.0,0.0,0.0,0.0,0.0,0.0,0.0,0.0,0.0,0.0,0.0,0.0,0.0,0.0,0.0,0.0,0.0,0.0,0.0,0.0,0.0,-1.0612,-1.1224,-1.2015,-1.3015,-1.2882,-1.2738,0.0,0.0,0.0,0.0,0.0,0.0,0.0,0.0,0.0,0.0,0.0,0.0,0.0,0.0,0.0,0.0,0.0,0.0,0.0,0.0,0.0,0.0,0.0,0.0,0.0,0.0,0.0,0.0,0.0,0.0,0.0,0.0,0.0,0.0,0.0,0.0,0.0,0.0,0.0,0.0,0.0,0.0,0.0,0.0,0.0,0.0,0.0,0.0,0.0,0.0,0.0,0.0,0.0,0.0,0.0,0.0,0.0,0.0,0.0,0.0,0.0,0.0,0.0,0.0,0.0,0.0,0.0,0.0,0.0,0.0,0.0,0.0,0.0,0.0,0.0,0.0,0.0,0.0,0.0,0.0,0.0,0.0,0.0,0.0,0.0,0.0,0.0,0.0,0.0,0.0,0.0,0.0,0.0,0.0,0.0,0.0,0.0,0.0,0.0,0.0,0.0,0.0,0.0,0.0,0.0,0.0,0.0,0.0,0.0,-1.1414,-1.2365,-1.2945,-1.3158,-1.2971,-1.2611,0.0,0.0,0.0,0.0,0.0,0.0,0.0,0.0,0.0,0.0,0.0,0.0,0.0,0.0,0.0,0.0,0.0,0.0,0.0,0.0,0.0,0.0,0.0,0.0,0.0,0.0,0.0,0.0,0.0,0.0,0.0,0.0,0.0,0.0,0.0,0.0,0.0,0.0,0.0,0.0,0.0,0.0,0.0,0.0,0.0,0.0,0.0,0.0,0.0,0.0,0.0,0.0,0.0,0.0,0.0,0.0,0.0,0.0,0.0,0.0,0.0,0.0,0.0,0.0,0.0,0.0,0.0,0.0,0.0,0.0,0.0,0.0,0.0,0.0,0.0,0.0,0.0,0.0,0.0,0.0,0.0,0.0,0.0,0.0,0.0,0.0,0.0,0.0,0.0,0.0,0.0,0.0,0.0,0.0,0.0,0.0,0.0,0.0,0.0,0.0,0.0,0.0,0.0,0.0,0.0,0.0,0.0,0.0,0.0,-1.2194,0.0,-1.3501,-1.3235,-1.3042,-1.2668,0.0,0.0,0.0,0.0,0.0,0.0,0.0,0.0,0.0,0.0,0.0,0.0,0.0,0.0,0.0,0.0,0.0,0.0,0.0,0.0,0.0,0.0,0.0,0.0,0.0,0.0,0.0,0.0,0.0,0.0,0.0,0.0,0.0,0.0,0.0,0.0,0.0,0.0,0.0,0.0,0.0,0.0,0.0,0.0,0.0,0.0,0.0,0.0,0.0,0.0,0.0,0.0,0.0,0.0,0.0,0.0,0.0,0.0,0.0,0.0,0.0,0.0,0.0,0.0,0.0,0.0,0.0,0.0,0.0,0.0,0.0,0.0,0.0,0.0,0.0,0.0,0.0,0.0,0.0,0.0,0.0,0.0,0.0,0.0,0.0,0.0,0.0,0.0,0.0,0.0,0.0,0.0,0.0,0.0,0.0,0.0,0.0,0.0,0.0,0.0,0.0,0.0,0.0,0.0,0.0,0.0,0.0,0.0,-1.1721,-1.2853,-1.3436,-1.3567,-1.332,-1.3104,-1.2968,0.0,0.0,0.0,0.0,0.0,0.0,0.0,0.0,0.0,0.0,0.0,0.0,0.0,0.0,0.0,0.0,0.0,0.0,0.0,0.0,0.0,0.0,0.0,0.0,0.0,0.0,0.0,0.0,0.0,0.0,0.0,0.0,0.0,0.0,0.0,0.0,0.0,0.0,0.0,0.0,0.0,0.0,0.0,0.0,0.0,0.0,0.0,0.0,0.0,0.0,0.0,0.0,0.0,0.0,0.0,0.0,0.0,0.0,0.0,0.0,0.0,0.0,0.0,0.0,0.0,0.0,0.0,0.0,0.0,0.0,0.0,0.0,0.0,0.0,0.0,0.0,0.0,0.0,0.0,0.0,0.0,0.0,0.0,0.0,0.0,0.0,0.0,0.0,0.0,0.0,0.0,0.0,0.0,0.0,0.0,0.0,0.0,0.0,0.0,0.0,0.0,0.0,0.0,0.0,0.0,0.0,0.0,0.0,0.0,-1.2969,-1.3535,-1.3682,-1.3379,-1.3235,-1.2846,0.0,0.0,0.0,0.0,0.0,0.0,0.0,0.0,0.0,0.0,0.0,0.0,0.0,0.0,0.0,0.0,0.0,0.0,0.0,0.0,0.0,0.0,0.0,0.0,0.0,0.0,0.0,0.0,0.0,0.0,0.0,0.0,0.0,0.0,0.0,0.0,0.0,0.0,0.0,0.0,0.0,0.0,0.0,0.0,0.0,0.0,0.0,0.0,0.0,0.0,0.0,0.0,0.0,0.0,0.0,0.0,0.0,0.0,0.0,0.0,0.0,0.0,0.0,0.0,0.0,0.0,0.0,0.0,0.0,0.0,0.0,0.0,0.0,0.0,0.0,0.0,0.0,0.0,0.0,0.0,0.0,0.0,0.0,0.0,0.0,0.0,0.0,0.0,0.0,0.0,0.0,0.0,0.0,0.0,0.0,0.0,0.0,0.0,0.0,0.0,0.0,0.0,0.0,0.0,0.0,0.0,0.0,0.0,0.0,-1.3974,-1.4179,-1.4286,-1.4246,-1.3843,-1.334,-1.2776,0.0,0.0,0.0,0.0,0.0,0.0,0.0,0.0,0.0,0.0,0.0,0.0,0.0,0.0,0.0,0.0,0.0,0.0,0.0,0.0,0.0,0.0,0.0,0.0,0.0,0.0,0.0,0.0,0.0,0.0,0.0,0.0,0.0,0.0,0.0,0.0,0.0,0.0,0.0,0.0,0.0,0.0,0.0,0.0,0.0,0.0,0.0,0.0,0.0,0.0,0.0,0.0,0.0,0.0,0.0,0.0,0.0,0.0,0.0,0.0,0.0,0.0,0.0,0.0,0.0,0.0,0.0,0.0,0.0,0.0,0.0,0.0,0.0,0.0,0.0,0.0,0.0,0.0,0.0,0.0,0.0,0.0,0.0,0.0,0.0,0.0,0.0,0.0,0.0,0.0,0.0,0.0,0.0,0.0,0.0,0.0,0.0,0.0,0.0,0.0,0.0,0.0,0.0,0.0,0.0,0.0,0.0,0.0,-1.5573,-1.5287,-1.5305,-1.564,-1.4821,-1.4307,0.0,0.0,0.0,0.0,0.0,0.0,0.0,0.0,0.0,0.0,0.0,0.0,0.0,0.0,0.0,0.0,0.0,0.0,0.0,0.0,0.0,0.0,0.0,0.0,0.0,0.0,0.0,0.0,0.0,0.0,0.0,0.0,0.0,0.0,0.0,0.0,0.0,0.0,0.0,0.0,0.0,0.0,0.0,0.0,0.0,0.0,0.0,0.0,0.0,0.0,0.0,0.0,0.0,0.0,0.0,0.0,0.0,0.0,0.0,0.0,0.0,0.0,0.0,0.0,0.0,0.0,0.0,0.0,0.0,0.0,0.0,0.0,0.0,0.0,0.0,0.0,0.0,0.0,0.0,0.0,0.0,0.0,0.0,0.0,0.0,0.0,0.0,0.0,0.0,0.0,0.0,0.0,0.0,0.0,0.0,0.0,0.0,0.0,0.0,0.0,0.0,0.0,0.0,0.0,0.0,0.0,0.0,0.0,0.0,-1.6388,-1.6597,-1.6376,-1.5725,-1.5317,-1.4788,0.0,0.0,0.0,0.0,0.0,0.0,0.0,0.0,0.0,0.0,0.0,0.0,0.0,0.0,0.0,0.0,0.0,0.0,0.0,0.0,0.0,0.0,0.0,0.0,0.0,0.0,0.0,0.0,0.0,0.0,0.0,0.0,0.0,0.0,0.0,0.0,0.0,0.0,0.0,0.0,0.0,0.0,0.0,0.0,0.0,0.0,0.0,0.0,0.0,0.0,0.0,0.0,0.0,0.0,0.0,0.0,0.0,0.0,0.0,0.0,0.0,0.0,0.0,0.0,0.0,0.0,0.0,0.0,0.0,0.0,0.0,0.0,0.0,0.0,0.0,0.0,0.0,0.0,0.0,0.0,0.0,0.0,0.0,0.0,0.0,0.0,0.0,0.0,0.0,0.0,0.0,0.0,0.0,0.0,0.0,0.0,0.0,0.0,0.0,0.0,0.0,0.0,0.0,0.0,0.0,0.0,0.0,0.0,-1.6597,-1.666,-1.7382,-1.7393,-1.6601,-1.6066,-1.5366,0.0,0.0,0.0,0.0,0.0,0.0,0.0,0.0,0.0,0.0,0.0,0.0,0.0,0.0,0.0,0.0,0.0,0.0,0.0,0.0,0.0,0.0,0.0,0.0,0.0,0.0,0.0,0.0,0.0,0.0,0.0,0.0,0.0,0.0,0.0,0.0,0.0,0.0,0.0,0.0,0.0,0.0,0.0,0.0,0.0,0.0,0.0,0.0,0.0,0.0,0.0,0.0,0.0,0.0,0.0,0.0,0.0,0.0,0.0,0.0,0.0,0.0,0.0,0.0,0.0,0.0,0.0,0.0,0.0,0.0,0.0,0.0,0.0,0.0,0.0,0.0,0.0,0.0,0.0,0.0,0.0,0.0,0.0,0.0,0.0,0.0,0.0,0.0,0.0,0.0,0.0,0.0,0.0,0.0,0.0,0.0,0.0,0.0,0.0,0.0,0.0,0.0,0.0,0.0,0.0,0.0,0.0,0.0,-1.7002,-1.6621,-1.7764,-1.8194,-1.7794,-1.6886,-1.5944,0.0,0.0,0.0,0.0,0.0,0.0,0.0,0.0,0.0,0.0,0.0,0.0,0.0,0.0,0.0,0.0,0.0,0.0,0.0,0.0,0.0,0.0,0.0,0.0,0.0,0.0,0.0,0.0,0.0,0.0,0.0,0.0,0.0,0.0,0.0,0.0,0.0,0.0,0.0,0.0,0.0,0.0,0.0,0.0,0.0,0.0,0.0,0.0,0.0,0.0,0.0,0.0,0.0,0.0,0.0,0.0,0.0,0.0,0.0,0.0,0.0,0.0,0.0,0.0,0.0,0.0,0.0,0.0,0.0,0.0,0.0,0.0,0.0,0.0,0.0,0.0,0.0,0.0,0.0,0.0,0.0,0.0,0.0,0.0,0.0,0.0,0.0,0.0,0.0,0.0,0.0,0.0,0.0,0.0,0.0,0.0,0.0,0.0,0.0,0.0,0.0,0.0,0.0,0.0,0.0,0.0,0.0,0.0,-1.7015,-1.6631,-1.7737,-1.8135,-1.7721,-1.7276,-1.6362,0.0,0.0,0.0,0.0,0.0,0.0,0.0,0.0,0.0,0.0,0.0,0.0,0.0,0.0,0.0,0.0,0.0,0.0,0.0,0.0,0.0,0.0,0.0,0.0,0.0,0.0,0.0,0.0,0.0,0.0,0.0,0.0,0.0,0.0,0.0,0.0,0.0,0.0,0.0,0.0,0.0,0.0,0.0,0.0,0.0,0.0,0.0,0.0,-1.0348,0.0,0.0,0.0,0.0,0.0,0.0,0.0,0.0,0.0,0.0,0.0,0.0,0.0,0.0,0.0,0.0,0.0,0.0,0.0,0.0,0.0,0.0,0.0,0.0,0.0,0.0,0.0,0.0,0.0,0.0,0.0,0.0,0.0,0.0,0.0,0.0,0.0,0.0,0.0,0.0,0.0,0.0,0.0,0.0,0.0,0.0,0.0,0.0,0.0,0.0,0.0,0.0,0.0,0.0,0.0,0.0,0.0,0.0,0.0,-1.6946,-1.6601,-1.7718,-1.8111,-1.7664,-1.7035,-1.6096,0.0,0.0,0.0,0.0,0.0,0.0,0.0,0.0,0.0,0.0,0.0,0.0,0.0,0.0,0.0,0.0,0.0,0.0,0.0,0.0,0.0,0.0,0.0,0.0,0.0,0.0,0.0,0.0,0.0,0.0,0.0,0.0,0.0,0.0,0.0,0.0,0.0,0.0,0.0,0.0,0.0,0.0,0.0,0.0,0.0,0.0,0.0,0.0,0.0,0.0,0.0,0.0,0.0,0.0,0.0,0.0,0.0,0.0,0.0,0.0,0.0,0.0,0.0,0.0,0.0,0.0,0.0,0.0,0.0,0.0,0.0,0.0,0.0,0.0,0.0,0.0,0.0,0.0,0.0,0.0,0.0,0.0,0.0,0.0,0.0,0.0,0.0,0.0,0.0,0.0,0.0,0.0,0.0,0.0,0.0,0.0,0.0,0.0,0.0,0.0,0.0,0.0,0.0,0.0,0.0,0.0,0.0,-1.6262,-1.6778,-1.6569,-1.7629,-1.7969,-1.7462,-1.6594,-1.5666,-1.4684,0.0,0.0,0.0,0.0,0.0,0.0,0.0,0.0,0.0,0.0,0.0,0.0,0.0,0.0,0.0,0.0,0.0,0.0,0.0,0.0,0.0,0.0,0.0,0.0,0.0,0.0,0.0,0.0,0.0,0.0,0.0,0.0,0.0,0.0,0.0,0.0,0.0,0.0,-1.2261,-1.3521,0.0,0.0,0.0,0.0,0.0,0.0,0.0,0.0,-1.3034,0.0,0.0,0.0,0.0,0.0,0.0,0.0,0.0,0.0,0.0,0.0,0.0,0.0,0.0,0.0,0.0,0.0,0.0,0.0,0.0,0.0,0.0,0.0,0.0,0.0,0.0,0.0,0.0,0.0,0.0,0.0,0.0,0.0,0.0,0.0,0.0,0.0,0.0,0.0,0.0,0.0,0.0,0.0,0.0,0.0,0.0,0.0,0.0,0.0,0.0,0.0,0.0,0.0,0.0,0.0,0.0,-1.5,-1.5722,-1.622,-1.6499,-1.7082,-1.7223,-1.6864,-1.6414,-1.55,-1.4041,0.0,0.0,0.0,0.0,0.0,0.0,0.0,0.0,0.0,0.0,0.0,0.0,0.0,0.0,0.0,0.0,0.0,0.0,0.0,0.0,0.0,0.0,0.0,0.0,0.0,0.0,0.0,0.0,0.0,0.0,0.0,0.0,0.0,0.0,0.0,0.0,0.0,0.0,0.0,-1.4824,-1.5574,0.0,0.0,0.0,0.0,0.0,0.0,0.0,0.0,-1.3952,0.0,0.0,0.0,0.0,0.0,0.0,0.0,0.0,0.0,0.0,0.0,0.0,0.0,0.0,0.0,0.0,0.0,0.0,0.0,0.0,0.0,0.0,0.0,0.0,0.0,0.0,0.0,0.0,0.0,0.0,0.0,0.0,0.0,0.0,0.0,0.0,0.0,0.0,0.0,0.0,0.0,0.0,0.0,0.0,0.0,0.0,0.0,0.0,0.0,0.0,0.0,0.0,0.0,0.0,0.0,-1.4902,-1.554,-1.5858,-1.5897,-1.6384,-1.6512,-1.6109,-1.5545,-1.4767,0.0,0.0,0.0,0.0,0.0,0.0,0.0,0.0,0.0,0.0,0.0,0.0,0.0,0.0,0.0,0.0,0.0,0.0,0.0,0.0,0.0,0.0,0.0,0.0,0.0,0.0,0.0,0.0,0.0,0.0,0.0,0.0,0.0,0.0,0.0,0.0,0.0,0.0,0.0,0.0,-1.5549,-1.6036,-1.6807,0.0,0.0,0.0,0.0,0.0,0.0,-1.5601,-1.5226,0.0,0.0,0.0,0.0,0.0,0.0,0.0,0.0,0.0,0.0,0.0,0.0,0.0,0.0,0.0,0.0,0.0,0.0,0.0,0.0,0.0,0.0,0.0,0.0,0.0,0.0,0.0,0.0,0.0,0.0,0.0,0.0,0.0,0.0,0.0,0.0,0.0,0.0,0.0,0.0,0.0,0.0,0.0,0.0,0.0,0.0,0.0,0.0,0.0,0.0,0.0,0.0,0.0,0.0,0.0,-1.4841,-1.533,-1.5478,-1.5346,-1.5758,-1.5802,-1.5448,-1.4708,-1.4141,0.0,0.0,0.0,0.0,0.0,0.0,0.0,0.0,0.0,0.0,0.0,0.0,0.0,0.0,0.0,0.0,0.0,0.0,0.0,0.0,0.0,0.0,0.0,0.0,0.0,0.0,0.0,0.0,0.0,0.0,0.0,0.0,0.0,0.0,0.0,0.0,0.0,0.0,0.0,0.0,0.0,-1.679,-1.774,-1.7756,0.0,0.0,0.0,0.0,-1.7162,-1.6884,0.0,0.0,0.0,0.0,0.0,0.0,0.0,0.0,0.0,0.0,0.0,0.0,0.0,0.0,0.0,0.0,0.0,0.0,0.0,0.0,0.0,0.0,0.0,0.0,0.0,0.0,0.0,0.0,0.0,0.0,0.0,0.0,0.0,0.0,0.0,0.0,0.0,0.0,0.0,0.0,0.0,0.0,0.0,0.0,0.0,0.0,0.0,0.0,0.0,0.0,0.0,0.0,0.0,0.0,0.0,0.0,-1.4825,-1.4795,-1.4976,-1.5454,-1.5307,-1.5125,-1.49,-1.4567,-1.4011,0.0,0.0,0.0,0.0,0.0,0.0,0.0,0.0,0.0,0.0,0.0,0.0,0.0,0.0,0.0,0.0,0.0,0.0,0.0,0.0,0.0,0.0,0.0,0.0,0.0,0.0,0.0,0.0,0.0,0.0,0.0,0.0,0.0,0.0,0.0,0.0,0.0,0.0,0.0,0.0,0.0,-1.877,-2.0332,-2.0427,-2.0585,0.0,0.0,-2.0854,-1.998,-1.9232,0.0,0.0,0.0,0.0,0.0,0.0,0.0,0.0,0.0,0.0,0.0,0.0,0.0,0.0,0.0,0.0,0.0,0.0,0.0,0.0,0.0,0.0,0.0,0.0,0.0,0.0,0.0,0.0,0.0,0.0,0.0,0.0,0.0,0.0,0.0,0.0,0.0,0.0,0.0,0.0,0.0,0.0,0.0,0.0,0.0,0.0,0.0,0.0,0.0,0.0,0.0,0.0,0.0,0.0,0.0,-1.3755,-1.484,-1.4697,-1.4674,-1.4866,-1.4661,-1.444,-1.4251,-1.3998,-1.3684,0.0,0.0,0.0,0.0,0.0,0.0,0.0,0.0,0.0,0.0,0.0,0.0,0.0,0.0,0.0,0.0,0.0,0.0,0.0,0.0,0.0,0.0,0.0,0.0,0.0,0.0,0.0,0.0,0.0,0.0,0.0,0.0,0.0,0.0,0.0,0.0,0.0,0.0,0.0,0.0,0.0,0.0,-2.1009,-2.1475,0.0,0.0,0.0,-2.1848,-2.1348,0.0,0.0,0.0,0.0,0.0,0.0,0.0,0.0,0.0,0.0,0.0,0.0,0.0,0.0,0.0,0.0,0.0,0.0,0.0,0.0,0.0,0.0,0.0,0.0,0.0,0.0,0.0,0.0,0.0,0.0,0.0,0.0,0.0,0.0,0.0,0.0,0.0,0.0,0.0,0.0,0.0,0.0,0.0,0.0,0.0,0.0,0.0,0.0,0.0,0.0,0.0,0.0,0.0,0.0,0.0,0.0,0.0,-1.5164,-1.5015,-1.4977,-1.5026,-1.4854,-1.4656,-1.447,-1.4041,0.0,0.0,0.0,0.0,0.0,0.0,0.0,0.0,0.0,0.0,0.0,0.0,0.0,0.0,0.0,0.0,0.0,0.0,0.0,0.0,0.0,0.0,0.0,0.0,0.0,0.0,0.0,-0.898,0.0,0.0,0.0,0.0,0.0,0.0,0.0,0.0,0.0,0.0,0.0,0.0,0.0,0.0,-2.0649,-2.1496,-2.228,-2.2811,0.0,0.0,-2.2766,-2.2421,-2.1797,-2.1171,0.0,0.0,0.0,0.0,0.0,0.0,0.0,0.0,0.0,0.0,0.0,0.0,0.0,0.0,0.0,0.0,0.0,0.0,0.0,0.0,0.0,0.0,0.0,0.0,0.0,0.0,0.0,0.0,0.0,0.0,0.0,0.0,0.0,0.0,0.0,0.0,0.0,0.0,0.0,0.0,0.0,0.0,0.0,0.0,0.0,0.0,0.0,0.0,0.0,0.0,0.0,0.0,0.0,0.0,0.0,-1.5965,-1.5884,-1.613,-1.678,-1.6576,-1.636,-1.6207,-1.5222,-1.4674,0.0,0.0,0.0,0.0,0.0,0.0,0.0,0.0,0.0,0.0,0.0,0.0,0.0,0.0,0.0,0.0,0.0,0.0,0.0,0.0,0.0,0.0,0.0,0.0,0.0,0.0,0.0,0.0,0.0,0.0,0.0,0.0,0.0,0.0,0.0,0.0,0.0,0.0,0.0,0.0,0.0,-2.1518,-2.238,-2.3211,-2.3954,0.0,0.0,-2.4422,-2.3528,-2.3311,-2.2653,-2.1042,0.0,0.0,0.0,0.0,0.0,0.0,0.0,0.0,0.0,0.0,0.0,0.0,0.0,0.0,0.0,0.0,0.0,0.0,0.0,0.0,0.0,0.0,0.0,0.0,0.0,0.0,0.0,0.0,0.0,0.0,0.0,0.0,0.0,0.0,0.0,0.0,0.0,0.0,0.0,0.0,0.0,0.0,0.0,0.0,0.0,0.0,0.0,0.0,0.0,0.0,0.0,0.0,0.0,-1.5028,-1.6074,-1.6017,-1.6295,-1.6959,-1.6824,-1.6627,-1.6481,-1.5977,-1.5433,0.0,0.0,0.0,0.0,0.0,0.0,0.0,0.0,0.0,0.0,0.0,0.0,0.0,0.0,0.0,0.0,0.0,0.0,0.0,0.0,0.0,0.0,0.0,0.0,0.0,0.0,0.0,0.0,-1.0004,-0.9826,-0.9435,0.0,0.0,0.0,0.0,0.0,0.0,0.0,0.0,0.0,0.0,-2.2487,-2.3358,-2.4159,0.0,0.0,-2.507,-2.4879,-2.4478,-2.3956,-2.334,-2.2579,-2.198,0.0,0.0,0.0,0.0,0.0,0.0,0.0,0.0,0.0,0.0,0.0,0.0,0.0,0.0,0.0,0.0,0.0,0.0,0.0,0.0,0.0,0.0,0.0,0.0,0.0,0.0,0.0,0.0,0.0,0.0,0.0,0.0,0.0,0.0,0.0,0.0,0.0,0.0,0.0,0.0,0.0,0.0,0.0,0.0,0.0,0.0,0.0,0.0,0.0,0.0,0.0,0.0,-1.5765,-1.6498,-1.6696,-1.7122,-1.7788,-1.7649,-1.7486,-1.7323,-1.6939,-1.6408,0.0,0.0,0.0,0.0,0.0,0.0,0.0,0.0,0.0,0.0,0.0,0.0,0.0,0.0,0.0,0.0,0.0,0.0,0.0,0.0,0.0,0.0,0.0,0.0,0.0,0.0,0.0,0.0,-1.0954,-1.0761,-1.0318,0.0,0.0,0.0,0.0,0.0,0.0,0.0,0.0,0.0,0.0,-2.3035,-2.388,-2.4694,-2.5204,-2.5201,-2.5147,-2.5112,-2.507,-2.4525,-2.4005,-2.363,0.0,0.0,0.0,0.0,0.0,0.0,0.0,0.0,0.0,0.0,0.0,0.0,0.0,0.0,0.0,0.0,0.0,0.0,0.0,0.0,0.0,0.0,0.0,0.0,0.0,0.0,0.0,0.0,0.0,0.0,0.0,0.0,0.0,0.0,0.0,0.0,0.0,0.0,0.0,0.0,0.0,0.0,0.0,0.0,0.0,0.0,0.0,0.0,0.0,0.0,0.0,0.0,0.0,-1.6645,-1.7449,-1.8143,-1.8875,-1.9593,-1.9451,-1.9265,-1.9138,-1.8256,-1.7684,-1.7514,0.0,0.0,0.0,0.0,0.0,0.0,0.0,0.0,0.0,0.0,0.0,0.0,0.0,0.0,0.0,0.0,0.0,0.0,0.0,0.0,0.0,0.0,0.0,0.0,0.0,0.0,-1.1962,-1.1981,-1.1946,0.0,0.0,0.0,0.0,0.0,0.0,0.0,0.0,0.0,0.0,-2.1665,-2.3098,-2.3923,-2.4739,-2.5276,-2.5212,-2.5212,-2.5209,-2.5216,-2.515,-2.4784,0.0,0.0,0.0,0.0,0.0,0.0,0.0,0.0,0.0,0.0,0.0,0.0,0.0,0.0,0.0,0.0,0.0,0.0,0.0,0.0,0.0,0.0,0.0,0.0,0.0,0.0,0.0,-1.4456,-1.3477,0.0,0.0,0.0,0.0,0.0,0.0,0.0,0.0,0.0,0.0,0.0,-1.7699,-1.7698,0.0,0.0,0.0,0.0,0.0,0.0,0.0,0.0,0.0,0.0,0.0,0.0,-1.6975,-1.8241,-1.8536,-1.9278,-2.0511,-2.0397,-2.0522,-2.0892,-2.0026,-1.8925,-1.7629,0.0,0.0,0.0,0.0,0.0,0.0,0.0,0.0,0.0,0.0,0.0,0.0,0.0,0.0,0.0,0.0,0.0,0.0,0.0,0.0,0.0,0.0,0.0,0.0,0.0,-1.2811,0.0,0.0,0.0,0.0,0.0,0.0,0.0,0.0,0.0,0.0,0.0,-1.9897,-2.1603,-2.2853,-2.39,-2.475,-2.512,-2.5302,0.0,0.0,0.0,0.0,0.0,0.0,0.0,0.0,0.0,0.0,0.0,0.0,0.0,0.0,-2.403,-2.1629,-2.1208,-2.1194,-2.112,0.0,0.0,0.0,0.0,0.0,0.0,0.0,0.0,0.0,0.0,0.0,0.0,0.0,0.0,0.0,0.0,-1.5338,0.0,0.0,0.0,0.0,0.0,0.0,0.0,0.0,-1.8593,-1.8924,-1.9446,-1.9481,-1.9469,0.0,-1.9469,-1.8892,0.0,0.0,0.0,0.0,0.0,0.0,0.0,0.0,-1.783,-1.913,-1.9465,-2.0221,-2.1405,-2.1369,-2.1514,-2.1872,-2.1248,-2.0014,-1.8177,-1.7469,-1.6349,0.0,0.0,0.0,0.0,0.0,0.0,0.0,0.0,0.0,0.0,0.0,0.0,0.0,0.0,0.0,0.0,0.0,0.0,0.0,0.0,0.0,0.0,0.0,-1.3715,0.0,0.0,0.0,0.0,0.0,0.0,0.0,0.0,0.0,-1.8326,-1.9396,-2.0871,-2.2887,-2.3664,-2.4356,-2.5168,0.0,0.0,0.0,0.0,0.0,0.0,0.0,-2.7142,-2.7661,-2.7695,-2.7676,-2.7726,-2.7695,-2.765,-2.7624,0.0,0.0,-2.4466,-2.4035,-2.4035,-2.4023,-2.4004,-2.403,-2.4004,-2.4037,-2.424,0.0,0.0,0.0,0.0,0.0,0.0,0.0,0.0,-1.9035,-1.9043,0.0,-1.8167,0.0,0.0,0.0,0.0,0.0,0.0,0.0,0.0,-2.0365,-2.1254,-2.2682,-2.2701,-2.2759,-2.2797,-2.272,-2.1889,-2.0327,-1.8677,0.0,0.0,0.0,0.0,0.0,0.0,-1.9269,-2.0126,-2.0899,-2.1703,-2.2413,-2.2369,-2.2276,-2.2148,-2.1961,-2.1016,-1.9297,-1.894,-1.8056,-1.6449,-1.4892,0.0,0.0,0.0,0.0,0.0,0.0,0.0,0.0,0.0,0.0,0.0,0.0,0.0,0.0,0.0,0.0,0.0,0.0,0.0,0.0,-1.4236,0.0,0.0,0.0,0.0,0.0,0.0,0.0,0.0,0.0,0.0,-2.0241,-2.0327,-2.1228,-2.366,0.0,0.0,0.0,0.0,-2.5308,-2.5303,-2.6038,-2.6591,-2.6647,-2.7319,-2.7865,-2.7902,0.0,0.0,-2.7902,-2.7902,-2.7934,-2.7896,-2.7947,-2.7815,-2.7582,-2.7376,-2.7371,-2.7431,-2.7362,-2.7559,-2.7559,-2.7248,-2.7362,-2.3581,0.0,0.0,0.0,0.0,-2.1569,-2.1684,-2.1684,-2.1665,-2.1342,-2.0761,-2.0534,0.0,0.0,0.0,0.0,0.0,0.0,-2.1004,-2.2062,-2.2081,-2.2355,-2.2797,-2.2797,-2.2797,-2.2797,-2.2797,-2.2566,-2.2081,-2.1585,-2.0104,-1.7757,0.0,0.0,0.0,0.0,-2.0131,-2.0956,-2.1779,-2.2603,-2.3398,-2.3335,-2.321,-2.3034,-2.2844,-2.2158,-2.0984,-2.0209,-1.9318,-1.8267,-1.7146,0.0,0.0,0.0,0.0,0.0,0.0,0.0,0.0,0.0,0.0,0.0,0.0,0.0,0.0,0.0,0.0,0.0,0.0,0.0,-1.5926,-1.6276,-1.6437,0.0,0.0,0.0,0.0,0.0,0.0,0.0,0.0,0.0,-2.2564,-2.2872,-2.3175,0.0,0.0,-2.5038,-2.5269,-2.5308,-2.5308,-2.5308,0.0,0.0,0.0,-2.8212,-2.8937,-2.9554,-2.965,-2.9625,-2.9588,-2.9619,-2.9644,-2.9588,-2.9601,-2.9569,-2.9455,-2.8504,-2.7822,-2.7733,-2.7739,-2.7739,-2.7739,-2.7739,-2.793,-2.6217,-2.4779,-2.4082,-2.3793,-2.3812,-2.4163,-2.4293,-2.4312,-2.4317,-2.4005,-2.3466,-2.2836,-2.2274,-2.1793,-2.1446,0.0,0.0,0.0,-2.247,-2.3317,-2.3321,-2.349,-2.3774,-2.3788,-2.3793,-2.3812,-2.3793,-2.3639,-2.3297,-2.3317,-2.2105,-1.9792,0.0,0.0,-2.0414,-2.0867,-2.1502,-2.2307,-2.2841,-2.3505,-2.429,-2.4258,-2.4138,-2.3914,-2.3779,-2.3236,-2.227,-2.1306,-2.0399,-1.955,-1.8329,-1.6886,0.0,0.0,0.0,0.0,0.0,0.0,0.0,0.0,0.0,0.0,0.0,-1.0443,0.0,0.0,0.0,0.0,-1.5029,-1.6114,-1.7103,-1.753,0.0,0.0,0.0,0.0,0.0,0.0,0.0,-2.0861,-2.1372,-2.2196,-2.3735,-2.4288,-2.4514,-2.4519,-2.4971,-2.5308,-2.5308,0.0,-2.5308,-2.5308,-2.6043,-2.6909,-2.7775,-2.8569,-2.939,-3.0269,-3.0404,-3.0379,-3.0342,-3.0354,-3.0379,-3.0348,-3.0342,-3.0342,-3.0342,-2.9504,-2.8833,-2.8833,-2.8833,-2.8833,-2.8814,-2.8814,-2.8986,-2.8299,-2.8165,-2.6577,-2.5769,-2.5577,-2.6365,-2.6692,-2.6697,-2.6678,-2.6692,-2.6601,-2.5087,-2.4399,-2.4356,-2.3567,0.0,0.0,-2.3144,-2.3548,-2.4283,-2.4245,-2.4582,-2.5269,-2.5288,-2.5308,-2.5288,-2.5308,-2.4928,-2.4221,-2.4202,-2.3778,-2.3024,-2.2916,-2.2839,-2.27,-2.2708,-2.3097,-2.3894,-2.3951,-2.4354,-2.5082,-2.5037,-2.4915,-2.4715,-2.4629,-2.4133,-2.3221,-2.2233,-2.1314,-2.0417,-1.8815,-1.7563,-1.673,0.0,0.0,0.0,0.0,0.0,0.0,0.0,0.0,0.0,0.0,0.0,0.0,0.0,0.0,0.0,-1.6645,0.0,-1.77,-1.842,0.0,0.0,0.0,-2.0407,-2.1208,-2.136,-2.1744,-2.2598,0.0,0.0,-2.4082,0.0,-2.5297,-2.5303,-2.5308,-2.5308,-2.5308,-2.5308,-2.5308,-2.5308,-2.6038,-2.689,-2.7761,-2.8684,-2.9525,-3.0269,-3.0404,-3.0404,-3.0404,-3.0404,-3.0404,-3.0398,-3.0404,-3.0404,-3.0404,-3.0321,-3.0404,-3.0302,-3.0321,-3.034,-3.0263,-3.0263,-3.0244,-3.1718,-3.1679,-3.1275,-2.9621,-2.7332,-2.7486,-2.7582,-2.7582,-2.7601,-2.7582,-2.7563,-2.7178,-2.6991,-2.6991,-2.678,-2.6683,-2.6664,-2.6005,-2.5813,-2.5947,-2.5332,-2.5115,-2.5288,-2.5308,-2.5308,-2.5308,-2.5308,-2.5187,-2.5019,-2.5019,-2.4904,-2.4712,-2.4643,-2.3985,-2.2777,-2.3277,-2.3689,-2.3894,-2.4574,-2.4946,-2.5095,-2.5025,-2.4931,-2.4772,-2.4663,-2.4439,-2.4079,-2.259,-2.1668,-2.1333,-1.9767,-1.8497,-1.7689,-1.7322,0.0,0.0,0.0,0.0,0.0,0.0,0.0,0.0,0.0,-1.3174,-1.405,0.0,-1.6267,0.0,-1.9293,-2.0526,-2.1208,-2.1441,0.0,0.0,-2.1766,-2.1973,-2.2163,-2.225,-2.2623,-2.3485,-2.3816,-2.424,-2.4908,-2.5173,-2.5303,-2.5308,-2.5308,-2.5308,-2.5308,-2.5308,-2.5308,-2.5365,-2.6019,-2.689,-2.7799,-2.914,-3.0135,-3.0365,-3.0404,-3.0404,-3.0404,-3.0404,-3.0404,-3.0404,-3.0404,-3.0404,-3.0404,-3.0404,-3.0404,-3.0404,-3.0404,-3.0404,-3.0404,-3.0404,-3.0404,-3.2891,-3.2891,-3.2891,-3.1814,-3.0121,-3.0121,-3.0121,-3.0121,-3.0121,-2.9929,-2.9544,-2.8756,-2.8242,-2.7909,-2.789,-2.789,-2.7857,-2.7395,-2.7178,-2.714,-2.6697,-2.6462,-2.6428,-2.6038,-2.5885,-2.5865,-2.55,-2.5308,-2.5308,-2.5308,-2.5308,-2.5303,-2.5238,-2.4732,-2.387,-2.4258,-2.4473,-2.4498,-2.4937,-2.5175,-2.5101,-2.5063,-2.4965,-2.4809,-2.4711,-2.4412,-2.3916,-2.2575,-2.1644,-2.1146,-1.9943,-1.887,-1.8052,-1.8034,-1.7313,0.0,0.0,0.0,0.0,0.0,0.0,0.0,0.0,0.0,0.0,0.0,-1.847,0.0,-2.1268,0.0,-2.2489,-2.3242,-2.3686,-2.3705,-2.4363,-2.4686,-2.433,-2.4318,-2.4394,-2.45,-2.4561,-2.4759,-2.5225,-2.5298,-2.5308,-2.5308,-2.5308,-2.5308,-2.5308,-2.5308,-2.5308,-2.5327,-2.5712,-2.6486,-2.7684,-2.9288,-3.0404,-3.0404,-3.0404,-3.0404,-3.0404,-3.0404,-3.0404,-3.0404,-3.0404,-3.0404,-3.0404,-3.0404,-3.0404,-3.0404,-3.0404,-3.0404,-3.0404,-3.0404,-3.0404,-3.3237,-3.3237,-3.3237,-3.3237,-3.3237,-3.3237,-3.3103,-3.2891,-3.2891,-3.2506,-3.1756,-3.0165,-2.905,-2.8376,-2.8261,-2.8217,-2.8217,-2.8102,-2.8049,-2.8049,-2.7948,-2.789,-2.7857,-2.7121,-2.6755,-2.6736,-2.6,-2.5635,-2.5615,-2.5519,-2.5462,-2.5462,-2.5296,-2.5217,-2.5206,-2.5206,-2.5216,-2.521,-2.521,-2.5175,-2.5101,-2.5082,-2.5011,-2.4801,-2.4746,-2.4323,-2.3468,-2.2555,-2.1683,-2.0858,-2.0055,-1.929,-1.8538,-1.8526,-1.821,0.0,-1.7509,0.0,0.0,0.0,0.0,0.0,0.0,0.0,0.0,-1.9843,-2.1104,-2.2717,-2.3002,-2.3149,-2.325,-2.4643,-2.5528,-2.5585,-2.6827,-2.7419,-2.6761,-2.6592,-2.625,-2.5536,-2.5369,-2.5302,-2.5303,-2.5308,-2.5308,-2.5308,-2.5308,-2.5308,-2.5308,-2.5308,-2.5308,-2.5308,-2.5519,-2.6423,-2.7736,-2.9313,-3.0404,-3.0404,-3.0404,-3.0404,-3.039,-3.039,-3.039,-3.039,-3.039,-3.039,-3.0404,-3.0404,-3.0404,-3.0404,-3.0404,-3.0404,-3.0404,-3.0404,-3.0404,-3.5019,-3.5,-3.5019,-3.5,-3.5,-3.5,-3.4192,-3.2891,-3.2891,-3.2795,-3.2602,-3.166,-3.1121,-3.0929,-3.025,-2.9923,-2.9885,-2.9179,-2.8876,-2.8857,-2.8203,-2.789,-2.7871,-2.7736,-2.764,-2.7645,-2.7467,-2.7409,-2.739,-2.6697,-2.6351,-2.6327,-2.5643,-2.5252,-2.5212,0.0,0.0,0.0,-2.521,-2.5175,-2.5108,-2.5082,-2.5011,-2.482,-2.4776,0.0,-2.4269,-2.3403,-2.2829,-2.2517,-2.1753,0.0,0.0,0.0,0.0,0.0,0.0,0.0,0.0,0.0,0.0,0.0,-2.1018,-2.1123,-2.0785,-2.2203,-2.3591,-2.4595,-2.5321,-2.6044,-2.6747,-2.7098,-2.7309,-2.7328,-2.7596,-2.7717,-2.7551,-2.6998,-2.6502,-2.6392,-2.573,-2.5303,-2.5308,-2.5308,-2.5308,-2.5308,-2.5308,-2.5308,-2.5308,-2.5308,-2.5308,-2.5385,-2.6346,-2.739,-2.7832,-2.9288,-3.0327,-3.0404,-3.0404,-3.0396,-3.04,-3.04,-3.0406,-3.0406,-3.0406,-3.0394,-3.039,-3.0404,-3.0404,-3.0404,-3.0404,-3.0404,-3.0404,-3.0404,-3.0404,-3.55,0.0,-3.55,-3.55,0.0,-3.55,-3.5,-3.4199,-3.418,-3.3949,-3.3494,-3.266,-3.2295,-3.2256,-3.1833,-3.1423,-3.1019,-3.0583,-3.016,-2.9737,-2.9333,-2.9121,-2.9102,-2.8698,-2.8511,-2.8472,-2.8082,-2.789,-2.7871,-2.7453,-2.7255,-2.7217,-2.6364,-2.592,-2.5866,-2.5425,-2.5201,-2.521,-2.521,-2.5187,-2.5101,-2.5089,-2.5031,-2.4884,0.0,0.0,0.0,0.0,0.0,0.0,0.0,0.0,0.0,0.0,0.0,-2.1406,-2.1827,-2.1964,-2.1756,-2.2885,-2.3625,-2.3683,-2.453,-2.4535,-2.3286,-2.4754,-2.5966,-2.6437,-2.6905,-2.7316,-2.7771,-2.8167,-2.8447,-2.8466,-2.8825,-2.8941,-2.8466,-2.7728,-2.7066,-2.66,-2.5841,-2.5308,-2.5308,-2.5308,-2.5308,-2.5308,-2.5308,-2.5308,-2.5308,-2.5308,-2.5308,-2.5327,-2.6365,-2.7409,-2.789,-2.889,-2.9962,-3.0269,-3.0404,-3.0396,-3.0392,-3.0398,-3.0403,-3.0453,-3.0458,-3.0447,-3.0414,-3.0389,-3.0402,-3.039,-3.0404,-3.0404,-3.0404,-3.0404,-3.0404,-3.5846,-3.5712,-3.5712,-3.5635,-3.55,-3.55,-3.55,-3.55,0.0,0.0,0.0,-3.3526,-3.3122,-3.3103,-3.2968,-3.2526,-3.1929,-3.191,-3.1519,-3.0865,-3.0827,-3.0846,-3.0788,-2.9948,-2.955,-2.9531,-2.8736,-2.8332,-2.8332,-2.8184,-2.8126,-2.8044,-2.7234,-2.6762,-2.6559,-2.5825,-2.5359,-2.5203,-2.5216,-2.5174,-2.5107,-2.5076,-2.505,-2.4984,-2.4853,-2.4452,-2.3757,-2.3553,-2.3148,-2.25,-2.252,-2.2572,-2.259,-2.2753,-2.2877,-2.2944,-2.3624,-2.4133,-2.4285,-2.5627,-2.6455,-2.6529,-2.7428,-2.7299,-2.5782,-2.6935,-2.7807,-2.7998,-2.8038,-2.8093,-2.8247,-2.8879,-2.9333,-2.9338,-2.9967,-3.0077,-2.939,-2.8607,-2.7794,-2.6928,-2.6115,-2.5462,-2.5327,-2.5308,-2.5308,-2.5308,-2.5308,-2.5308,-2.5308,-2.5308,-2.5308,-2.5365,-2.6115,-2.689,-2.7544,-2.8338,-2.9179,-2.9948,-3.014,-3.0248,-3.0378,-3.0428,-3.0458,-3.0485,-3.049,-3.0479,-3.0433,-3.0422,-3.0411,-3.0396,-3.039,-3.039,-3.0404,-3.0404,-3.0404,-3.7199,-3.6519,-3.6519,-3.6135,-3.55,-3.55,-3.55,-3.55,-3.55,-3.5423,-3.5269,-3.4391,-3.4032,-3.3994,-3.3244,-3.2833,-3.2737,-3.2737,-3.2679,0.0,-3.2545,-3.2545,-3.2506,-3.1718,-3.1333,-3.1275,-3.0442,-3.0038,-2.9962,-2.9294,-2.8934,-2.8857,-2.8121,-2.7355,-2.6642,-2.6417,-2.5967,-2.5225,-2.5203,-2.5174,-2.5088,-2.5082,-2.5076,-2.5003,-2.4856,-2.4738,-2.452,-2.4503,-2.4383,-2.4178,-2.4797,-2.517,-2.5188,-2.5773,-2.6256,-2.6374,-2.6563,-2.6709,-2.6847,-2.7164,-2.7366,-2.7529,-2.8369,-2.8489,-2.7545,-2.7651,-2.809,-2.882,-2.8906,-2.925,-2.9917,-3.0115,-3.0154,-3.0173,-3.0308,-3.0327,-3.0154,-2.941,-2.8588,-2.7818,-2.6948,-2.6096,-2.55,-2.5327,-2.5308,-2.5308,-2.5308,-2.5308,-2.5308,-2.5308,-2.5308,-2.5404,-2.6038,-2.6601,-2.6928,-2.7525,-2.8338,-2.9146,-2.933,-2.9602,-3.0276,-3.0369,-3.0423,-3.0491,-3.0491,-3.05,-3.0499,-3.0474,-3.0463,-3.0417,-3.0406,-3.04,-3.0416,-3.041,-3.0404,-3.7777,-3.743,-3.7411,-3.7219,-3.6853,-3.6853,-3.6846,-3.6873,-3.6853,-3.6327,-3.5481,-3.5058,-3.4911,-3.4872,-3.4487,-3.4045,-3.3609,-3.3603,-3.334,-3.291,-3.2891,-3.2891,-3.2872,-3.2526,-3.2352,-3.2314,-3.1968,-3.175,-3.1679,-3.091,-3.0506,-3.0435,-2.9204,-2.814,-2.7355,-2.7231,-2.6768,-2.5929,-2.5442,-2.5166,-2.5088,-2.5076,-2.5057,-2.4992,-2.487,-2.5024,-2.5453,-2.5386,-2.5527,-2.5886,-2.6262,-2.6459,-2.6459,-2.6813,-2.7046,-2.71,-2.7617,-2.7953,-2.8092,-2.8653,-2.9013,-2.9117,-2.9493,-2.9594,-2.9248,-2.9208,-2.9387,-2.9771,-2.9802,-2.9942,-3.0346,-3.0404,-3.0404,-3.0404,-3.0404,-3.0404,-3.0308,-2.9621,-2.8973,-2.8492,-2.739,-2.6467,-2.6058,-2.5596,-2.5308,-2.5308,-2.5308,-2.5308,-2.5308,-2.5308,-2.5308,-2.5346,-2.5654,-2.6082,-2.6505,-2.689,-2.7525,-2.8313,-2.8475,-2.8867,-2.9611,-2.9805,-3.0037,-3.0438,-3.0559,-3.0545,-3.0505,-3.0481,-3.0471,-3.0469,-3.0463,-3.0472,-3.0461,-3.0425,-3.0402,-3.843,-3.8296,-3.8277,-3.818,-3.8007,-3.8007,-3.8007,-3.8007,-3.7988,-3.7276,-3.618,-3.6058,-3.6058,-3.6058,-3.6058,-3.5699,-3.5122,-3.5052,-3.459,-3.3814,-3.3757,-3.366,-3.3468,-3.3295,-3.3179,-3.316,-3.3006,-3.2891,-3.2814,-3.2256,-3.1872,-3.1577,-3.0333,-2.9179,-2.8184,-2.8113,-2.7668,-2.6809,-2.6098,-2.5548,-2.5107,-2.5082,-2.5139,-2.5258,-2.5147,-2.5473,-2.6291,-2.6271,-2.6495,-2.7093,-2.7321,-2.7435,-2.7426,-2.7603,-2.7696,-2.775,-2.8382,-2.8868,-2.9053,-2.9749,-3.026,-3.0312,-3.0311,-3.0342,-3.0398,-3.0404,-3.0404,-3.0404,-3.0365,-3.0385,-3.0404,-3.0404,-3.0404,-3.0404,-3.0404,-3.0404,-3.0327,-2.9794,-2.93,-2.9011,-2.7953,-2.7101,-2.6601,-2.6019,-2.5558,-2.5346,-2.5308,-2.5308,-2.5308,-2.5308,-2.5308,-2.5308,-2.5308,-2.5538,-2.6192,-2.6288,-2.6673,-2.7467,-2.7628,-2.8024,-2.8666,-2.9077,-2.9487,-3.011,-3.0467,-3.0554,-3.0535,-3.0535,-3.0525,-3.05,-3.049,-3.0485,-3.0479,-3.0458,-3.0411,-3.9842,-3.9227,-3.9169,-3.8726,-3.8084,-3.8046,-3.8065,-3.8065,-3.8007,-3.795,-3.7777,-3.7757,-3.7757,-3.7777,-3.77,-3.7623,-3.7526,-3.7623,-3.7123,-3.6353,-3.6346,-3.5962,-3.5212,-3.4487,-3.409,-3.4032,-3.3391,-3.3141,-3.3122,-3.2872,-3.2429,-3.1775,-3.1525,-3.0621,-2.9198,-2.8996,-2.8558,-2.7704,-2.7548,-2.6696,-2.5196,-2.5018,-2.5344,-2.6051,-2.5959,-2.6298,-2.7148,-2.7191,-2.7213,-2.7312,-2.8014,-2.8365,-2.844,-2.9051,-2.9427,-2.9417,-2.9655,-2.984,-2.9985,-3.0168,-3.0363,-3.0312,-3.04,-3.0456,-3.0442,-3.0423,-3.0404,-3.0404,-3.0404,-3.0404,-3.0404,-3.0404,-3.0404,-3.0404,-3.0404,-3.0404,-3.0385,-3.0346,-2.9981,-2.9159,-2.8896,-2.8313,-2.7044,-2.6544,-2.6135,-2.5519,-2.5346,-2.5308,-2.5308,-2.5308,-2.5308,-2.5308,-2.5308,-2.5327,-2.55,-2.5423,-2.5865,-2.6563,-2.6762,-2.7176,-2.7865,-2.8627,-2.936,-2.9582,-3.0059,-3.0427,-3.0592,-3.0592,-3.0568,-3.0516,-3.0496,-3.051,-3.049,-3.0479,-3.0458,-4.0323,-4.0015,-3.9996,-3.9804,-3.9496,-3.9469,-3.9477,-3.9477,-3.9469,-3.9477,-3.9477,-3.9477,-3.8931,-3.8027,-3.8007,-3.8007,-3.8007,-3.8007,-3.7834,-3.7488,-3.7469,-3.7288,-3.6969,-3.6642,-3.6456,-3.6372,-3.5565,-3.5141,-3.4988,-3.418,-3.3237,-3.2506,-3.241,-3.1814,-3.0737,-3.0591,-2.9908,-2.8548,-2.8447,-2.7795,-2.6686,-2.6446,-2.6552,-2.6801,-2.6795,-2.7159,-2.7899,-2.8022,-2.8257,-2.8732,-2.9137,-2.9334,-2.9315,-2.9636,-2.9798,-2.9809,-3.0375,-3.0978,-3.1534,-3.1685,-3.1762,-3.1781,-3.1386,-3.1154,-3.1135,-3.0712,-3.0404,-3.0404,-3.0404,-3.0404,-3.0404,-3.0404,-3.0404,-3.0404,-3.0404,-3.0404,-3.0404,-3.0404,-3.0231,-2.9885,-2.9396,-2.8896,-2.8107,-2.7198,-2.6524,-2.6038,-2.5692,-2.5346,-2.5308,-2.5308,-2.5308,-2.5308,-2.5308,-2.5308,-2.5308,-2.5308,-2.5481,-2.5721,-2.5875,-2.6221,-2.7016,-2.7415,-2.8006,-2.9033,-2.9608,-3.01,-3.0542,-3.0595,-3.0591,-3.0564,-3.0545,-3.0554,-3.0491,-3.0486,-3.0485,-4.1208,-4.1162,-4.0977,-4.0854,-4.0835,-4.0593,-4.0496,-4.0496,-4.0496,-4.0496,-4.0496,-4.0496,-3.9842,-3.8796,-3.8681,-3.8681,-3.8681,-3.8681,-3.8553,-3.8373,-3.8373,-3.8219,-3.8027,-3.8007,-3.8007,-3.7911,-3.7334,-3.6904,-3.6603,-3.5565,-3.4353,-3.343,-3.3256,-3.2833,-3.2077,-3.1776,-3.097,-2.9775,-2.9407,-2.8869,-2.823,-2.8074,-2.7908,-2.7646,-2.7604,-2.799,-2.8797,-2.8842,-2.9262,-3.0134,-3.0253,-3.04,-3.0625,-3.0644,-3.0627,-3.0612,-3.1244,-3.1925,-3.2567,-3.2744,-3.2797,-3.2766,-3.2289,-3.2025,-3.1891,-3.125,-3.0788,-3.0769,-3.0538,-3.0404,-3.0404,-3.0404,-3.0404,-3.0404,-3.0404,-3.0404,-3.0404,-3.0404,-3.0404,-3.0327,-2.9852,-2.9333,-2.8953,-2.7895,-2.6928,-2.6538,-2.6058,-2.55,-2.5346,-2.5308,-2.5308,-2.5308,-2.5308,-2.5308,-2.5308,-2.5308,-2.5308,-2.5332,-2.5441,-2.568,-2.6287,-2.6457,-2.6811,-2.8074,-2.8768,-2.9435,-3.0016,-3.0264,-3.0576,-3.0606,-3.0592,-3.0574,-3.0535,-3.053,-3.052,-4.2989,-4.2835,-4.2104,-4.1739,-4.17,-4.09,-4.0535,-4.0593,-4.0516,-4.0496,-4.0496,-4.0554,-4.0477,-4.0362,-4.0381,-4.0381,-4.0342,-4.0265,-3.9881,-3.9277,-3.9219,-3.8796,-3.8027,-3.8007,-3.8046,-3.82,-3.8046,-3.7546,-3.6788,-3.6577,-3.5757,-3.4257,-3.4167,-3.3705,-3.2859,-3.2135,-3.157,-3.1254,-3.0517,-3.0003,-2.9826,-2.9676,-2.923,-2.8566,-2.8361,-2.8764,-2.9542,-2.9717,-3.0182,-3.108,-3.1197,-3.1599,-3.2325,-3.2401,-3.2355,-3.242,-3.2499,-3.2569,-3.2699,-3.2893,-3.2931,-3.2888,-3.291,-3.2852,-3.2814,-3.2102,-3.1654,-3.1635,-3.1006,-3.0596,-3.0577,-3.0481,-3.0404,-3.0404,-3.0404,-3.0404,-3.0404,-3.0404,-3.0404,-3.0404,-3.0288,-2.9929,-2.9223,-2.8376,-2.7582,-2.6986,-2.6621,-2.625,-2.5596,-2.5365,-2.5308,-2.5308,-2.5308,-2.5308,-2.5308,-2.5317,-2.5346,-2.5365,-2.5393,-2.5419,-2.5734,-2.6091,-2.6595,-2.7218,-2.821,-2.8974,-2.9451,-2.9923,-3.0367,-3.0543,-3.0588,-3.0593,-3.0569,-3.0593,-3.0583,-4.3085,-4.3066,-4.2777,-4.2624,-4.2547,-4.17,-4.1316,-4.1296,-4.0727,-4.0496,-4.0593,-4.1085,-4.1335,-4.1354,-4.1912,-4.1546,-4.0573,-4.0496,-4.0342,-4.0092,-4.0073,-3.99,-3.965,-3.9611,-3.9592,-3.9534,-3.9073,-3.8373,-3.7546,-3.6988,-3.6404,-3.5834,-3.5276,-3.457,-3.3781,-3.3369,-3.291,-3.2301,-3.1824,-3.156,-3.1401,-3.1271,-3.0984,-3.0632,-2.9624,-2.9513,-3.0395,-3.0518,-3.0996,-3.1926,-3.2087,-3.226,-3.2542,-3.2599,-3.2855,-3.3312,-3.3402,-3.3683,-3.4168,-3.4359,-3.4407,-3.4357,-3.3967,-3.3725,-3.359,-3.2968,-3.2468,-3.2391,-3.2218,-3.1987,-3.1769,-3.1077,-3.0404,-3.0404,-3.0404,-3.0404,-3.0404,-3.0404,-3.0404,-3.0404,-3.0404,-3.0231,-2.9852,-2.9198,-2.8569,-2.8159,-2.7294,-2.6582,-2.6173,-2.5712,-2.5404,-2.5327,-2.5308,-2.5308,-2.5308,-2.5332,-2.5365,-2.5384,-2.5402,-2.5432,-2.5634,-2.5716,-2.6103,-2.6655,-2.7646,-2.8286,-2.8702,-2.9415,-2.9918,-3.053,-3.0593,-3.0588,-3.0617,-3.0588,-3.0559,-4.3912,-4.3874,-4.3585,-4.3489,-4.3374,-4.2566,-4.222,-4.2162,-4.1585,-4.1335,-4.1477,-4.197,-4.222,-4.2297,-4.2854,-4.2527,-4.142,-4.1362,-4.1181,-4.0931,-4.092,-4.0785,-4.0535,-4.0496,-4.0496,-4.0419,-3.9977,-3.9238,-3.845,-3.7834,-3.7269,-3.6678,-3.6121,-3.5407,-3.4604,-3.4215,-3.3716,-3.3134,-3.2689,-3.2399,-3.227,-3.2103,-3.195,-3.173,-3.0801,-3.0518,-3.1129,-3.1278,-3.1789,-3.2609,-3.2886,-3.3113,-3.3402,-3.3448,-3.3677,-3.4192,-3.4293,-3.4557,-3.51,-3.5266,-3.5289,-3.5277,-3.4901,-3.4622,-3.4545,-3.3814,-3.3391,-3.3295,-3.3006,-3.2891,-3.2699,-3.1865,-3.1115,-3.0846,-3.0558,-3.0404,-3.0404,-3.0404,-3.0404,-3.0404,-3.0404,-3.0385,-3.0346,-2.9871,-2.9429,-2.9165,-2.8044,-2.7409,-2.6986,-2.6582,-2.6154,-2.6154,-2.625,-2.6308,-2.626,-2.6246,-2.5673,-2.5551,-2.5415,-2.5425,-2.5472,-2.5495,-2.5668,-2.6223,-2.6776,-2.7378,-2.8082,-2.883,-2.9595,-3.0342,-3.0554,-3.0559,-3.0564,-3.055,-3.054,-4.5537,-4.5364,-4.4643,-4.4316,-4.4201,-4.3451,-4.3104,-4.3085,-4.2989,-4.2816,-4.2777,-4.3047,-4.3104,-4.3124,-4.3316,-4.3181,-4.3124,-4.3104,-4.2604,-4.1873,-4.1731,-4.1277,-4.065,-4.0535,-4.0496,-4.0496,-4.0477,-4.0054,-3.9323,-3.9084,-3.8312,-3.7052,-3.6795,-3.6254,-3.5308,-3.4645,-3.4085,-3.3764,-3.3094,-3.2533,-3.223,-3.226,-3.216,-3.1987,-3.1857,-3.1842,-3.1972,-3.2077,-3.2529,-3.3392,-3.3686,-3.4246,-3.4844,-3.4964,-3.5106,-3.504,-3.5144,-3.5182,-3.519,-3.5243,-3.5308,-3.5304,-3.5381,-3.5346,-3.5212,-3.4661,-3.4218,-3.4122,-3.3603,-3.3083,-3.3122,-3.291,-3.2487,-3.1775,-3.1038,-3.0577,-3.05,-3.0423,-3.0404,-3.0404,-3.0404,-3.0404,-3.0404,-3.0288,-2.9962,-2.941,-2.8973,-2.8569,-2.7967,-2.764,-2.7755,-2.7717,-2.7467,-2.7236,-2.7276,-2.7224,-2.6395,-2.5738,-2.5528,-2.5437,-2.548,-2.5503,-2.5513,-2.5925,-2.6193,-2.6814,-2.8105,-2.8855,-2.9447,-3.0081,-3.0254,-3.0514,-3.0519,-3.0525,-3.0514,-4.5594,-4.5575,-4.5325,-4.521,-4.5086,-4.4278,-4.3912,-4.3855,-4.3355,-4.3104,-4.3201,-4.3682,-4.3912,-4.4066,-4.4536,-4.4806,-4.4825,-4.4778,-4.4066,-4.2816,-4.2115,-4.17,-4.1335,-4.0777,-4.0496,-4.0496,-4.0496,-4.0381,-4.0046,-3.9523,-3.8877,-3.8401,-3.7782,-3.7036,-3.616,-3.584,-3.5399,-3.4641,-3.4235,-3.3966,-3.3781,-3.3609,-3.3471,-3.3394,-3.3327,-3.3346,-3.34,-3.3097,-3.3371,-3.4256,-3.4472,-3.4754,-3.5096,-3.5193,-3.5182,-3.5182,-3.5182,-3.5182,-3.5198,-3.5262,-3.5308,-3.5323,-3.542,-3.5474,-3.55,-3.5257,-3.5064,-3.5064,-3.4834,-3.4692,-3.4603,-3.4122,-3.3468,-3.2602,-3.1814,-3.1275,-3.116,-3.0769,-3.0442,-3.0404,-3.0404,-3.0404,-3.0404,-3.0404,-3.0269,-2.9981,-2.9506,-2.8973,-2.8742,-2.8332,-2.7909,-2.789,-2.789,-2.8121,-2.8098,-2.7946,-2.734,-2.6529,-2.6093,-2.5557,-2.5526,-2.5503,-2.5517,-2.5575,-2.5843,-2.6587,-2.7879,-2.8665,-2.9178,-2.994,-3.0369,-3.0504,-3.0485,-3.0479,-3.0483,-4.5594,-4.5594,-4.5594,-4.5594,-4.5556,-4.4998,-4.4778,-4.472,-4.4267,-4.4028,-4.4162,-4.4547,-4.4786,-4.4893,-4.5383,-4.5575,-4.5594,-4.5594,-4.5037,-4.4008,-4.3143,-4.245,-4.1788,-4.09,-4.0496,-4.0496,-4.0496,-4.0496,-4.0469,-3.9969,-3.9514,-3.9087,-3.8588,-3.7842,-3.6934,-3.6546,-3.597,-3.5342,-3.4891,-3.4645,-3.4454,-3.4281,-3.4161,-3.4055,-3.4005,-3.4023,-3.4018,-3.3778,-3.393,-3.4521,-3.4801,-3.4992,-3.5127,-3.5179,-3.5185,-3.5185,-3.5193,-3.5182,-3.519,-3.5243,-3.5308,-3.5323,-3.542,-3.55,-3.55,-3.55,-3.55,-3.55,-3.5442,-3.55,-3.5385,-3.5038,-3.443,-3.3942,-3.2833,-3.2083,-3.1737,-3.1231,-3.0731,-3.0558,-3.0404,-3.0404,-3.0404,-3.0404,-3.0404,-3.0308,-2.9929,-2.9583,-2.9486,-2.9179,-2.8909,-2.8794,-2.9006,-2.9083,-2.8909,-2.861,-2.8222,-2.7513,-2.6822,-2.6079,-2.5627,-2.5557,-2.5506,-2.5495,-2.5662,-2.6435,-2.7627,-2.7986,-2.8458,-2.9384,-3.0458,-3.0461,-3.0436,-3.0436,-3.045,-4.5594,-4.5594,-4.5594,-4.5594,-4.5594,-4.5537,-4.5498,-4.5556,-4.5498,-4.5421,-4.5479,-4.5441,-4.5518,-4.5556,-4.5575,-4.5594,-4.5594,-4.5594,-4.5556,-4.5229,-4.4547,-4.347,-4.1865,-4.1046,-4.0669,-4.0516,-4.0496,-4.0496,-4.0496,-4.0383,-4.0055,-3.9314,-3.9123,-3.8584,-3.7709,-3.6795,-3.6336,-3.5815,-3.5096,-3.4637,-3.4393,-3.4264,-3.4124,-3.3979,-3.3985,-3.3985,-3.3992,-3.4074,-3.4242,-3.4498,-3.4781,-3.4974,-3.5056,-3.5147,-3.5172,-3.5181,-3.5176,-3.5193,-3.5198,-3.5254,-3.53,-3.5327,-3.5398,-3.5493,-3.5467,-3.5467,-3.5474,-3.5474,-3.55,-3.55,-3.55,-3.5404,-3.5327,-3.525,-3.391,-3.2756,-3.1929,-3.1775,-3.1442,-3.0769,-3.05,-3.0442,-3.0462,-3.0404,-3.0404,-3.0385,-3.0308,-3.0231,-3.0212,-3.0038,-3.0288,-3.0173,-2.9904,-2.9827,-2.9602,-2.9451,-2.904,-2.8381,-2.773,-2.7063,-2.6184,-2.596,-2.5577,-2.5522,-2.582,-2.6571,-2.7263,-2.7831,-2.8639,-2.9853,-3.0394,-3.039,-3.041,-3.0421,-3.0427,-4.5594,-4.5594,-4.5594,-4.5594,-4.5594,-4.5594,-4.5594,-4.5594,-4.5594,-4.5594,-4.5594,-4.5594,-4.5594,-4.5594,-4.5594,-4.5594,-4.5594,-4.5594,-4.5594,-4.5575,-4.5402,-4.3912,-4.2181,-4.1566,-4.1104,-4.0631,-4.0535,-4.0496,-4.0489,-4.0455,-4.0234,-3.9999,-3.9767,-3.9307,-3.8465,-3.801,-3.7136,-3.6006,-3.549,-3.4899,-3.4338,-3.4074,-3.3972,-3.3952,-3.3881,-3.3881,-3.3934,-3.413,-3.4316,-3.4561,-3.4791,-3.4917,-3.4964,-3.5057,-3.5101,-3.511,-3.5172,-3.5179,-3.5196,-3.5253,-3.53,-3.5308,-3.5361,-3.5338,-3.5345,-3.5405,-3.542,-3.5427,-3.5467,-3.55,-3.55,-3.55,-3.55,-3.5385,-3.4487,-3.3506,-3.2814,-3.2564,-3.2256,-3.1545,-3.1371,-3.1096,-3.0654,-3.0481,-3.0442,-3.0423,-3.0404,-3.0404,-3.0404,-3.0404,-3.0404,-3.0404,-3.025,-3.0308,-3.0275,-3.0163,-2.982,-2.9209,-2.8709,-2.8324,-2.745,-2.6818,-2.6185,-2.564,-2.624,-2.6954,-2.7672,-2.8326,-2.9374,-3.0229,-3.0377,-3.0404,-3.0404,-3.041,-3.041,-4.5594,-4.5594,-4.5594,-4.5594,-4.5594,-4.5594,-4.5594,-4.5594,-4.5594,-4.5594,-4.5594,-4.5594,-4.5594,-4.5594,-4.5594,-4.5594,-4.5594,-4.5594,-4.5594,-4.5594,-4.5575,-4.4536,-4.3066,-4.2277,-4.1527,-4.1066,-4.0662,-4.0508,-4.0476,-4.0449,-4.0362,-4.0223,-4.0118,-3.9709,-3.9126,-3.8588,-3.7892,-3.6738,-3.5963,-3.5194,-3.4686,-3.4138,-3.3908,-3.39,-3.3829,-3.3829,-3.3947,-3.4111,-3.4305,-3.4539,-3.4699,-3.4801,-3.485,-3.4917,-3.4964,-3.4964,-3.5066,-3.5129,-3.5164,-3.5212,-3.5269,-3.5293,-3.5304,-3.5308,-3.5315,-3.533,-3.5364,-3.5405,-3.5446,-3.5479,-3.55,-3.55,-3.55,-3.5442,-3.5045,-3.4372,-3.3545,-3.3455,-3.3045,-3.2506,-3.2179,-3.1885,-3.1083,-3.0942,-3.0731,-3.0519,-3.0404,-3.0404,-3.0404,-3.0404,-3.0404,-3.0404,-3.0404,-3.0404,-3.0404,-3.0306,-3.0273,-2.9726,-2.9501,-2.9195,-2.8439,-2.7629,-2.7113,-2.6646,-2.6954,-2.7363,-2.8123,-2.8791,-2.9402,-3.0006,-3.0231,-3.0404,-3.0404,-3.0404,-3.0404,-4.5594,-4.5594,-4.5594,-4.5594,-4.5594,-4.5594,-4.5594,-4.5594,-4.5594,-4.5594,-4.5594,-4.5594,-4.5594,-4.5594,-4.5594,-4.5594,-4.5594,-4.5594,-4.5594,-4.5594,-4.5556,-4.5037,-4.4278,-4.2951,-4.225,-4.1854,-4.1046,-4.0753,-4.0674,-4.0547,-4.0326,-4.0168,-4.0029,-3.987,-3.9455,-3.8825,-3.8253,-3.7564,-3.6339,-3.5544,-3.5032,-3.4363,-3.3918,-3.3868,-3.3847,-3.3855,-3.3972,-3.4111,-3.4276,-3.4443,-3.4558,-3.4655,-3.4758,-3.4781,-3.4792,-3.4812,-3.4927,-3.4992,-3.5075,-3.5134,-3.5229,-3.5261,-3.5289,-3.53,-3.5293,-3.5293,-3.5335,-3.5391,-3.5398,-3.5446,-3.5493,-3.55,-3.55,-3.5481,-3.5442,-3.5096,-3.4564,-3.4321,-3.3994,-3.3199,-3.3045,-3.2641,-3.2122,-3.1756,-3.1525,-3.0962,-3.0769,-3.0673,-3.0558,-3.0404,-3.0404,-3.0404,-3.0404,-3.0404,-3.0404,-3.0385,-3.0371,-3.0198,-3.0127,-2.9811,-2.9044,-2.8394,-2.8067,-2.7869,-2.782,-2.8098,-2.869,-2.9261,-2.9698,-2.9981,-3.0346,-3.0404,-3.0404,-3.0404,-3.0404,-4.5594,-4.5594,-4.5594,-4.5594,-4.5594,-4.5594,-4.5594,-4.5594,-4.5594,-4.5594,-4.5594,-4.5594,-4.5594,-4.5594,-4.5594,-4.5594,-4.5594,-4.5594,-4.5594,-4.5594,-4.5594,-4.5537,-4.5114,-4.4143,-4.3431,-4.2777,-4.1931,-4.1484,-4.13,-4.0677,-4.0243,-4.0099,-3.9884,-3.9693,-3.9476,-3.9113,-3.8569,-3.7862,-3.6767,-3.5915,-3.5197,-3.4407,-3.3889,-3.3834,-3.382,-3.3847,-3.3908,-3.3998,-3.4111,-3.4257,-3.4397,-3.4536,-3.4591,-3.4626,-3.4649,-3.4728,-3.479,-3.4869,-3.4936,-3.5047,-3.5164,-3.5206,-3.5237,-3.5215,-3.5234,-3.5266,-3.5297,-3.5342,-3.5372,-3.542,-3.5474,-3.55,-3.55,-3.55,-3.5481,-3.5423,-3.525,-3.5173,-3.4757,-3.418,-3.3898,-3.3603,-3.2776,-3.266,-3.2256,-3.1596,-3.125,-3.1058,-3.0788,-3.0519,-3.0404,-3.0404,-3.0404,-3.0404,-3.0404,-3.0404,-3.0404,-3.0404,-3.0404,-3.0365,-2.96,-2.9143,-2.8835,-2.8618,-2.8478,-2.8876,-2.9357,-2.9717,-3.0173,-3.0327,-3.0404,-3.0404,-3.0404,-3.0404,-3.0404,-4.5594,-4.5594,-4.5594,-4.5594,-4.5594,-4.5594,-4.5594,-4.5594,-4.5594,-4.5594,-4.5594,-4.5594,-4.5594,-4.5594,-4.5594,-4.5594,-4.5594,-4.5594,-4.5594,-4.5594,-4.5594,-4.5594,-4.5556,-4.5124,-4.447,-4.3605,-4.231,-4.1797,-4.1458,-4.0794,-4.0177,-4.0057,-3.9796,-3.9635,-3.9452,-3.9205,-3.8864,-3.834,-3.7442,-3.6568,-3.5717,-3.483,-3.4087,-3.388,-3.3807,-3.3834,-3.3913,-3.3934,-3.4042,-3.4167,-3.4257,-3.4381,-3.445,-3.4484,-3.4517,-3.4561,-3.4655,-3.4728,-3.4801,-3.4936,-3.5038,-3.5176,-3.5189,-3.5185,-3.5201,-3.5253,-3.5266,-3.5293,-3.533,-3.5379,-3.5474,-3.55,-3.55,-3.55,-3.55,-3.55,-3.55,-3.55,-3.5365,-3.4911,-3.4814,-3.4334,-3.3872,-3.3564,-3.3064,-3.2429,-3.1692,-3.1462,-3.116,-3.0865,-3.0481,-3.0404,-3.0404,-3.0404,-3.0404,-3.0404,-3.0404,-3.0404,-3.0404,-3.0404,-3.0083,-2.9813,-2.9602,-2.9429,-2.9294,-2.9525,-2.9967,-3.0308,-3.0404,-3.0404,-3.0404,-3.0404,-3.0423,-3.0481,-3.0462,-4.5594,-4.5594,-4.5594,-4.5594,-4.5594,-4.5594,-4.5594,-4.5594,-4.5594,-4.5594,-4.5594,-4.5594,-4.5594,-4.5594,-4.5594,-4.5594,-4.5594,-4.5594,-4.5594,-4.5594,-4.5594,-4.5594,-4.5575,-4.5441,-4.5152,-4.4335,-4.2821,-4.2068,-4.1691,-4.0806,-4.0157,-3.9986,-3.9781,-3.9551,-3.9382,-3.917,-3.8952,-3.867,-3.79,-3.7055,-3.6207,-3.5353,-3.4564,-3.3935,-3.3807,-3.3834,-3.3887,-3.3895,-3.3959,-3.4074,-3.4099,-3.4197,-3.4305,-3.4363,-3.4381,-3.4412,-3.4664,-3.4921,-3.5093,-3.5235,-3.5477,-3.5437,-3.5593,-3.5647,-3.5719,-3.5668,-3.5709,-3.5737,-3.5795,-3.5686,-3.5666,-3.5538,-3.5519,-3.55,-3.55,-3.55,-3.55,-3.55,-3.5442,-3.5442,-3.5276,-3.4911,-3.4641,-3.4372,-3.3814,-3.3237,-3.2526,-3.1929,-3.166,-3.1295,-3.0942,-3.0577,-3.0577,-3.0423,-3.0404,-3.0404,-3.0404,-3.0423,-3.0423,-3.0481,-3.0462,-3.0212,-3.0019,-3.0173,-3.0192,-3.0308,-3.0288,-3.0346,-3.0404,-3.0404,-3.0462,-3.0519,-3.0558,-3.0577,-3.0712,-4.5594,-4.5594,-4.5594,-4.5594,-4.5594,-4.5594,-4.5594,-4.5594,-4.5594,-4.5594,-4.5594,-4.5594,-4.5594,-4.5594,-4.5594,-4.5594,-4.5594,-4.5594,-4.5594,-4.5594,-4.5594,-4.5594,-4.5594,-4.5594,-4.546,-4.4989,-4.36,-4.2665,-4.2219,-4.1113,-4.0155,-3.9911,-3.9658,-3.9439,-3.9251,-3.9031,-3.8906,-3.8763,-3.8063,-3.7268,-3.6446,-3.5481,-3.4692,-3.399,-3.388,-3.382,-3.3815,-3.3868,-3.3934,-3.4011,-3.4092,-3.4167,-3.4221,-3.4245,-3.4269,-3.4435,-3.4986,-3.5348,-3.5529,-3.6282,-3.6757,-3.7021,-3.6996,-3.7127,-3.7039,-3.6693,-3.6591,-3.6878,-3.6723,-3.6476,-3.6474,-3.6,-3.5596,-3.5538,-3.55,-3.55,-3.55,-3.55,-3.55,-3.55,-3.5481,-3.5462,-3.5173,-3.4949,-3.4603,-3.4103,-3.3545,-3.2987,-3.2641,-3.2122,-3.1583,-3.1179,-3.0827,-3.0596,-3.0404,-3.0404,-3.0404,-3.0442,-3.05,-3.0635,-3.0596,-3.0442,-3.0423,-3.0846,-3.0788,-3.0615,-3.0558,-3.0635,-3.0731,-3.1,-3.0865,-3.0731,-3.1096,-3.1487,-3.1775,-4.5594,-4.5594,-4.5594,-4.5594,-4.5594,-4.5594,-4.5594,-4.5594,-4.5594,-4.5594,-4.5594,-4.5594,-4.5594,-4.5594,-4.5594,-4.5594,-4.5594,-4.5594,-4.5594,-4.5594,-4.5594,-4.5594,-4.5594,-4.5594,-4.5577,-4.507,-4.3853,-4.2907,-4.266,-4.0978,-4.0072,-3.9792,-3.9563,-3.935,-3.917,-3.8993,-3.8881,-3.8696,-3.8327,-3.7731,-3.685,-3.572,-3.4802,-3.4472,-3.4045,-3.3825,-3.382,-3.3815,-3.3895,-3.3985,-3.4023,-3.4111,-3.4173,-3.4246,-3.424,-3.4443,-3.5137,-3.5652,-3.5853,-3.6561,-3.7111,-3.7249,-3.7527,-3.7633,-3.7613,-3.738,-3.7413,-3.7614,-3.7682,-3.7321,-3.7346,-3.6615,-3.6212,-3.6038,-3.5827,-3.5596,-3.5519,-3.5519,-3.5519,-3.5519,-3.5481,-3.5481,-3.5481,-3.5308,-3.5238,-3.4911,-3.4487,-3.4064,-3.3603,-3.2949,-3.2275,-3.166,-3.1256,-3.0962,-3.0788,-3.0808,-3.0827,-3.0808,-3.0885,-3.1019,-3.1192,-3.125,-3.1525,-3.191,-3.1641,-3.1308,-3.1596,-3.1929,-3.1769,-3.1635,-3.175,-3.1891,-3.2141,-3.2429,-3.2679,-4.5594,-4.5594,-4.5594,-4.5594,-4.5594,-4.5594,-4.5594,-4.5594,-4.5594,-4.5594,-4.5594,-4.5594,-4.5594,-4.5594,-4.5594,-4.5594,-4.5594,-4.5594,-4.5594,-4.5594,-4.5594,-4.5594,-4.5594,-4.5577,-4.554,-4.5254,-4.3732,-4.2852,-4.247,-4.0938,-4.0017,-3.9705,-3.9502,-3.929,-3.9087,-3.8935,-3.8866,-3.8795,-3.8701,-3.8285,-3.7312,-3.6101,-3.5261,-3.5243,-3.4619,-3.4321,-3.4192,-3.4156,-3.4052,-3.4033,-3.4011,-3.4061,-3.421,-3.4376,-3.4451,-3.4599,-3.5336,-3.5758,-3.6342,-3.7111,-3.7836,-3.7951,-3.7966,-3.8069,-3.8223,-3.8393,-3.8301,-3.8175,-3.8131,-3.8178,-3.8127,-3.7469,-3.7058,-3.6865,-3.6442,-3.5981,-3.5885,-3.5827,-3.5692,-3.5654,-3.5538,-3.55,-3.55,-3.5481,-3.5365,-3.5327,-3.4911,-3.4834,-3.4353,-3.368,-3.2968,-3.2199,-3.1692,-3.1385,-3.1288,-3.1404,-3.1481,-3.1558,-3.1718,-3.191,-3.2122,-3.2314,-3.2622,-3.2872,-3.2776,-3.2564,-3.291,-3.2929,-3.2526,-3.241,-3.2737,-3.2987,-3.3103,-3.3237,-3.3449,-4.5594,-4.5594,-4.5594,-4.5594,-4.5594,-4.5594,-4.5594,-4.5594,-4.5594,-4.5594,-4.5594,-4.5594,-4.5594,-4.5594,-4.5594,-4.5594,-4.5594,-4.5594,-4.5594,-4.5594,-4.5594,-4.5594,-4.5586,-4.555,-4.5504,-4.5179,-4.3676,-4.291,-4.2325,-4.0876,-3.9919,-3.967,-3.9427,-3.9224,-3.9021,-3.8877,-3.8777,-3.8738,-3.8707,-3.8322,-3.7566,-3.6633,-3.6211,-3.6101,-3.5899,-3.5514,-3.4968,-3.4871,-3.4706,-3.4212,-3.4109,-3.4098,-3.4266,-3.4952,-3.5268,-3.5584,-3.6105,-3.6861,-3.7482,-3.8277,-3.8846,-3.8912,-3.9229,-3.9562,-3.9516,-3.9567,-3.9459,-3.8988,-3.8966,-3.9007,-3.8973,-3.8354,-3.7969,-3.7777,-3.7546,-3.7065,-3.6776,-3.6212,-3.6077,-3.5788,-3.5692,-3.5558,-3.55,-3.55,-3.5481,-3.5462,-3.5404,-3.5308,-3.5007,-3.4257,-3.3718,-3.2968,-3.2333,-3.2025,-3.1891,-3.1981,-3.2077,-3.2231,-3.2545,-3.2776,-3.2968,-3.3199,-3.3506,-3.366,-3.3641,-3.3564,-3.3583,-3.343,-3.3064,-3.3199,-3.3564,-3.3795,-3.3955,-3.4109,-3.4237,-4.4748,-4.5594,-4.5594,-4.5594,-4.5594,-4.5594,-4.5594,-4.5594,-4.5594,-4.5594,-4.5594,-4.5594,-4.5594,-4.5509,-4.5594,-4.5594,-4.5594,-4.5556,-4.5594,-4.5594,-4.5594,-4.5594,-4.5586,-4.5541,-4.5485,-4.4998,-4.3809,-4.2742,-4.2058,-4.0881,-3.9728,-3.9526,-3.9311,-3.9115,-3.895,-3.8833,-3.8762,-3.8719,-3.867,-3.8524,-3.8046,-3.7441,-3.6997,-3.6978,-3.6578,-3.6156,-3.5862,-3.5734,-3.5676,-3.538,-3.542,-3.5486,-3.5645,-3.6017,-3.6333,-3.6843,-3.7156,-3.7541,-3.792,-3.8809,-3.9231,-3.9464,-3.9658,-3.9794,-4.0067,-4.0167,-4.0186,-3.9881,-3.9832,-3.9863,-3.9781,-3.92,-3.8911,-3.8681,-3.845,-3.8007,-3.7488,-3.6885,-3.6481,-3.6135,-3.5827,-3.575,-3.5615,-3.5519,-3.55,-3.5481,-3.5462,-3.5404,-3.5103,-3.4564,-3.4122,-3.3763,-3.3179,-3.2699,-3.2622,-3.2622,-3.266,-3.2852,-3.341,-3.3622,-3.3795,-3.4026,-3.4314,-3.4603,-3.4718,-3.4577,-3.4308,-3.4269,-3.4257,-3.4308,-3.4404,-3.4545,-3.468,-3.4911,-3.5045,-4.3782,-4.4906,-4.497,-4.4979,-4.497,-4.497,-4.494,-4.496,-4.4913,-4.494,-4.497,-4.4893,-4.4876,-4.4914,-4.4857,-4.4876,-4.5222,-4.5278,-4.546,-4.5518,-4.5594,-4.5605,-4.5559,-4.5495,-4.5448,-4.532,-4.3538,-4.2658,-4.1863,-4.0667,-3.9539,-3.9363,-3.9197,-3.9021,-3.891,-3.8807,-3.8735,-3.8689,-3.8707,-3.867,-3.8524,-3.8083,-3.7845,-3.7624,-3.7257,-3.6813,-3.6629,-3.6607,-3.666,-3.6357,-3.6352,-3.6345,-3.6525,-3.6798,-3.7156,-3.7617,-3.7941,-3.8209,-3.8427,-3.8867,-3.9189,-3.9401,-3.9611,-3.9859,-4.0077,-4.0157,-4.0234,-4.0283,-4.0311,-4.0362,-4.035,-3.9881,-3.9708,-3.9419,-3.913,-3.87,-3.8296,-3.7834,-3.7334,-3.6949,-3.6577,-3.6058,-3.5885,-3.5635,-3.5538,-3.55,-3.55,-3.55,-3.5212,-3.4814,-3.4699,-3.4449,-3.4257,-3.3853,-3.3795,-3.366,-3.3545,-3.3526,-3.4083,-3.441,-3.4545,-3.4776,-3.5058,-3.5346,-3.55,-3.5308,-3.4885,-3.5212,-3.5462,-3.5173,-3.4981,-3.5212,-3.5404,-3.5635,-3.5981,-4.2983,-4.3088,-4.3205,-4.3308,-4.3365,-4.3258,-4.3316,-4.3481,-4.3365,-4.3423,-4.3492,-4.3302,-4.3373,-4.3279,-4.3517,-4.3814,-4.4371,-4.4395,-4.4827,-4.5297,-4.5586,-4.551,-4.5465,-4.5429,-4.5275,-4.4914,-4.3395,-4.2477,-4.1786,-4.0278,-3.9532,-3.9285,-3.9087,-3.895,-3.8837,-3.8765,-3.8719,-3.8707,-3.8707,-3.8707,-3.8707,-3.856,-3.8524,-3.8524,-3.845,-3.8193,-3.7474,-3.7459,-3.7329,-3.686,-3.6915,-3.6946,-3.7212,-3.7559,-3.7936,-3.8122,-3.8549,-3.8767,-3.8929,-3.9007,-3.92,-3.9413,-3.9625,-3.9826,-4.0017,-4.0138,-4.0244,-4.0381,-4.0407,-4.0419,-4.0465,-4.0419,-4.0227,-4.0092,-3.9804,-3.9611,-3.9265,-3.8977,-3.845,-3.7892,-3.7334,-3.6731,-3.625,-3.6019,-3.5635,-3.5558,-3.55,-3.55,-3.55,-3.5231,-3.5288,-3.5218,-3.525,-3.5154,-3.5192,-3.5,-3.4596,-3.4519,-3.4853,-3.5103,-3.5231,-3.55,-3.55,-3.55,-3.55,-3.55,-3.55,-3.55,-3.55,-3.55,-3.5558,-3.5846,-3.6154,-3.6423,-3.693,-4.1282,-4.1255,-4.1282,-4.1968,-4.297,-4.297,-4.2989,-4.297,-4.2961,-4.2989,-4.2923,-4.2925,-4.2916,-4.2887,-4.2935,-4.3097,-4.3432,-4.3487,-4.4062,-4.4551,-4.4811,-4.5071,-4.5217,-4.5208,-4.502,-4.4236,-4.2986,-4.1929,-4.1186,-3.9932,-3.9405,-3.912,-3.8993,-3.8906,-3.8807,-3.8735,-3.8689,-3.8707,-3.8707,-3.8707,-3.8707,-3.8707,-3.8707,-3.8707,-3.8707,-3.8609,-3.8339,-3.8332,-3.8202,-3.8066,-3.7993,-3.7988,-3.8018,-3.8427,-3.8539,-3.8576,-3.8966,-3.9059,-3.9115,-3.9161,-3.921,-3.94,-3.9582,-3.9751,-3.9946,-4.0087,-4.0234,-4.0336,-4.0407,-4.043,-4.0473,-4.0496,-4.0439,-4.0496,-4.0419,-4.0246,-4.0035,-3.9688,-3.94,-3.8757,-3.8007,-3.7315,-3.6865,-3.6442,-3.6,-3.5635,-3.5558,-3.55,-3.55,-3.55,-3.55,-3.55,-3.55,-3.55,-3.55,-3.55,-3.55,-3.55,-3.55,-3.55,-3.55,-3.55,-3.55,-3.55,-3.55,-3.55,-3.55,-3.55,-3.55,-3.55,-3.5962,-3.6565,-3.6873,-3.7238,-3.7738,-4.0177,-4.0139,-4.0119,-4.0864,-4.2038,-4.2086,-4.2095,-4.2123,-4.2085,-4.2114,-4.2086,-4.2086,-4.2077,-4.2068,-4.2057,-4.2277,-4.243,-4.2628,-4.3153,-4.3576,-4.396,-4.421,-4.449,-4.4459,-4.3984,-4.3251,-4.2408,-4.1436,-4.0841,-3.972,-3.9208,-3.8993,-3.891,-3.8837,-3.878,-3.8719,-3.8707,-3.8707,-3.8707,-3.8707,-3.8707,-3.8707,-3.8707,-3.8707,-3.8704,-3.8747,-3.8733,-3.8722,-3.8828,-3.8859,-3.8915,-3.9031,-3.9124,-3.9188,-3.9188,-3.9188,-3.9188,-3.9188,-3.9188,-3.9202,-3.9256,-3.9406,-3.9576,-3.9747,-3.9922,-4.0076,-4.0186,-4.0372,-4.0407,-4.0449,-4.0538,-4.0496,-4.0496,-4.0496,-4.0496,-4.0381,-4.0304,-4.0054,-3.99,-3.9573,-3.8834,-3.8161,-3.7642,-3.7161,-3.6231,-3.5788,-3.5538,-3.55,-3.55,-3.55,-3.55,-3.55,-3.55,-3.55,-3.55,-3.55,-3.55,-3.55,-3.55,-3.55,-3.55,-3.55,-3.55,-3.55,-3.55,-3.55,-3.55,-3.55,-3.55,-3.55,-3.6173,-3.6988,-3.793,-3.8315,-3.8584,-3.995,-3.9996,-3.9838,-3.9981,-4.0311,-4.0301,-4.0405,-4.0586,-4.0557,-4.0529,-4.0549,-4.0492,-4.0434,-4.0433,-4.0654,-4.1017,-4.1475,-4.1664,-4.2141,-4.2763,-4.2946,-4.2957,-4.3082,-4.3109,-4.3022,-4.2333,-4.1621,-4.1005,-4.0531,-3.9569,-3.9073,-3.8906,-3.8837,-3.8762,-3.8704,-3.8689,-3.8707,-3.8707,-3.8707,-3.8707,-3.8707,-3.8707,-3.8707,-3.8719,-3.8747,-3.8792,-3.8881,-3.8935,-3.9021,-3.912,-3.9175,-3.9248,-3.9333,-3.9346,-3.9346,-3.936,-3.936,-3.936,-3.9373,-3.9373,-3.9386,-3.9438,-3.9576,-3.9822,-3.9957,-4.0112,-4.0473,-4.0917,-4.079,-4.0669,-4.0592,-4.0573,-4.065,-4.0496,-4.0496,-4.0477,-4.04,-4.0362,-4.0189,-4.0092,-3.9688,-3.915,-3.8584,-3.7873,-3.6692,-3.6019,-3.5635,-3.55,-3.5519,-3.55,-3.55,-3.55,-3.55,-3.55,-3.55,-3.55,-3.55,-3.55,-3.55,-3.55,-3.55,-3.55,-3.55,-3.55,-3.55,-3.55,-3.55,-3.5519,-3.5827,-3.6212,-3.668,-3.7469,-3.8534,-3.9323,-3.9477,-3.8669,-3.8145,-3.8079,-3.8384,-3.8991,-3.9718,-4.0048,-4.0099,-4.0109,-4.008,-4.0049,-4.0017,-4.0007,-4.0027,-4.0058,-4.029,-4.0597,-4.0683,-4.115,-4.1942,-4.2038,-4.2422,-4.2536,-4.2415,-4.2123,-4.1543,-4.091,-4.0289,-3.9602,-3.9138,-3.8987,-3.8851,-3.878,-3.8738,-3.8707,-3.8707,-3.8707,-3.8707,-3.8707,-3.8707,-3.8707,-3.8689,-3.8719,-3.8747,-3.8792,-3.8862,-3.8979,-3.905,-3.9147,-3.9256,-3.9309,-3.9354,-3.9418,-3.9418,-3.9418,-3.9418,-3.9386,-3.9405,-3.9418,-3.9431,-3.9475,-3.9571,-3.9689,-4.0075,-4.062,-4.0883,-4.1312,-4.1761,-4.1806,-4.1714,-4.1522,-4.1404,-4.1277,-4.0631,-4.0496,-4.0496,-4.0458,-4.0458,-4.04,-4.0381,-4.0131,-3.9708,-3.9188,-3.8584,-3.7526,-3.6788,-3.6449,-3.5827,-3.5654,-3.5558,-3.5519,-3.55,-3.55,-3.55,-3.55,-3.55,-3.55,-3.55,-3.55,-3.55,-3.55,-3.55,-3.55,-3.55,-3.55,-3.55,-3.5615,-3.5846,-3.6577,-3.7103,-3.7642,-3.8334,-3.94,-3.9977,-4.0131,-3.7664,-3.7145,-3.7049,-3.7326,-3.7932,-3.8939,-3.9564,-3.9876,-3.9943,-3.9914,-3.9922,-3.9867,-3.9856,-3.9881,-3.9935,-3.9986,-4.0117,-4.0206,-4.0349,-4.1103,-4.1122,-4.1342,-4.1576,-4.167,-4.1029,-4.0558,-4.0239,-3.973,-3.9222,-3.8968,-3.8837,-3.878,-3.8738,-3.8707,-3.8707,-3.8707,-3.8707,-3.8707,-3.8707,-3.8707,-3.8707,-3.8738,-3.8747,-3.8807,-3.8896,-3.896,-3.9087,-3.9183,-3.9264,-3.9388,-3.9458,-3.947,-3.9489,-3.9508,-3.9495,-3.9464,-3.9489,-3.9652,-3.9915,-4.0052,-4.0259,-4.0591,-4.0277,-4.0634,-4.14,-4.173,-4.2124,-4.2556,-4.2937,-4.2721,-4.2349,-4.2212,-4.1681,-4.1027,-4.0669,-4.0689,-4.0554,-4.0573,-4.0496,-4.0496,-4.0458,-4.0073,-3.9746,-3.913,-3.8392,-3.7834,-3.7315,-3.6661,-3.6038,-3.5942,-3.5788,-3.5615,-3.5558,-3.5538,-3.5519,-3.55,-3.55,-3.55,-3.55,-3.55,-3.55,-3.55,-3.55,-3.55,-3.55,-3.5558,-3.5788,-3.6212,-3.7084,-3.7988,-3.8796,-3.9546,-4.0381,-4.0496,-4.0496,-3.6989,-3.6911,-3.6851,-3.6789,-3.7012,-3.7887,-3.8829,-3.9611,-3.9611,-3.9584,-3.963,-3.9429,-3.9312,-3.9516,-3.9682,-3.9748,-3.9878,-4.0031,-4.0233,-4.0301,-4.0454,-4.0413,-4.0283,-4.0154,-4.0064,-3.9702,-3.9423,-3.9393,-3.9073,-3.8877,-3.8765,-3.8719,-3.8707,-3.8707,-3.8707,-3.8707,-3.8707,-3.8707,-3.8707,-3.8707,-3.8707,-3.8747,-3.8807,-3.8881,-3.8979,-3.9087,-3.9178,-3.9298,-3.9414,-3.9502,-3.9563,-3.9625,-3.9674,-3.9693,-3.9657,-3.9626,-3.9669,-4.0232,-4.0664,-4.077,-4.146,-4.18,-4.1548,-4.1824,-4.2212,-4.2645,-4.3002,-4.3264,-4.353,-4.3344,-4.3107,-4.2635,-4.2154,-4.1585,-4.1066,-4.0893,-4.0708,-4.0612,-4.0535,-4.0496,-4.0496,-4.0304,-4.0208,-3.9708,-3.9227,-3.9073,-3.8546,-3.795,-3.7353,-3.6815,-3.6519,-3.5846,-3.575,-3.5615,-3.5577,-3.5577,-3.55,-3.55,-3.55,-3.55,-3.55,-3.55,-3.55,-3.55,-3.55,-3.5654,-3.6019,-3.6769,-3.7738,-3.8642,-3.9438,-3.9938,-4.0496,-4.0496,-4.0496,-3.5675,-3.5019,-3.4928,-3.5231,-3.5855,-3.6738,-3.7387,-3.7768,-3.7798,-3.7798,-3.7798,-3.7739,-3.7932,-3.7889,-3.8463,-3.8822,-3.9226,-3.9654,-4.002,-4.0118,-4.0109,-4.0067,-3.9943,-3.9792,-3.9611,-3.9427,-3.9219,-3.9059,-3.895,-3.881,-3.8719,-3.8707,-3.8707,-3.8707,-3.8707,-3.8707,-3.8707,-3.8707,-3.8707,-3.8707,-3.8719,-3.8762,-3.8851,-3.895,-3.9059,-3.9178,-3.9344,-3.9421,-3.9563,-3.9682,-3.9689,-3.972,-3.9766,-3.9731,-3.9691,-3.9748,-4.0167,-4.0806,-4.1092,-4.1595,-4.2323,-4.3076,-4.3023,-4.3103,-4.338,-4.3553,-4.3831,-4.4077,-4.4278,-4.4209,-4.3944,-4.3481,-4.3028,-4.2527,-4.195,-4.147,-4.1239,-4.09,-4.0785,-4.0496,-4.0496,-4.0477,-4.04,-4.0323,-3.9919,-3.9996,-3.9785,-3.9161,-3.8584,-3.8007,-3.7296,-3.6577,-3.6327,-3.6308,-3.5827,-3.5712,-3.5577,-3.55,-3.5596,-3.5615,-3.55,-3.55,-3.55,-3.5577,-3.5712,-3.6019,-3.6385,-3.7276,-3.8296,-3.8988,-3.9746,-4.0169,-4.0496,-4.0496,-4.0496,-3.4789,-3.4191,-3.4124,-3.4376,-3.4837,-3.5338,-3.5676,-3.5926,-3.6565,-3.687,-3.687,-3.6926,-3.6894,-3.7117,-3.7613,-3.7966,-3.8167,-3.8974,-3.9445,-3.9573,-3.9936,-3.9967,-3.9859,-3.9693,-3.9514,-3.9311,-3.9142,-3.8964,-3.8851,-3.8765,-3.8707,-3.8707,-3.8707,-3.8707,-3.8707,-3.8707,-3.8707,-3.8707,-3.8707,-3.8723,-3.8765,-3.8825,-3.8906,-3.905,-3.9124,-3.9337,-3.9526,-3.9587,-3.9747,-3.9878,-3.9856,-3.9867,-3.9889,-3.9815,-3.9823,-3.9955,-4.0583,-4.1253,-4.1772,-4.2542,-4.3346,-4.4007,-4.4289,-4.4319,-4.4322,-4.4435,-4.4743,-4.5036,-4.517,-4.5208,-4.4849,-4.447,-4.4028,-4.3605,-4.2893,-4.22,-4.1758,-4.1316,-4.0969,-4.0593,-4.0496,-4.0496,-4.0496,-4.0496,-4.0477,-4.0362,-4.0285,-4.0054,-3.9496,-3.895,-3.818,-3.7392,-3.7219,-3.7123,-3.6603,-3.6212,-3.625,-3.6231,-3.6115,-3.6038,-3.5731,-3.5615,-3.575,-3.5885,-3.6038,-3.6481,-3.7077,-3.7911,-3.8815,-3.9457,-3.9919,-4.0285,-4.0496,-4.0496,-4.0496,-3.4311,-3.4099,-3.4086,-3.4055,-3.3985,-3.4083,-3.4127,-3.4164,-3.5688,-3.642,-3.6378,-3.6515,-3.6391,-3.6323,-3.6742,-3.7009,-3.74,-3.8104,-3.8616,-3.8743,-3.9428,-3.964,-3.9535,-3.9561,-3.9452,-3.9224,-3.9036,-3.8896,-3.8792,-3.8735,-3.8707,-3.8707,-3.8707,-3.8707,-3.8707,-3.8707,-3.8707,-3.8738,-3.8753,-3.875,-3.8825,-3.8881,-3.8979,-3.9129,-3.9285,-3.9477,-3.9623,-3.9781,-3.9951,-4.0015,-4.0046,-4.0046,-3.9986,-3.9954,-3.9973,-4.0458,-4.1114,-4.1898,-4.2653,-4.3474,-4.417,-4.4763,-4.5087,-4.5036,-4.4974,-4.4955,-4.5194,-4.5294,-4.5381,-4.5447,-4.5175,-4.4951,-4.4605,-4.4239,-4.372,-4.3143,-4.2681,-4.2085,-4.1354,-4.095,-4.0612,-4.0593,-4.0496,-4.0496,-4.0496,-4.0496,-4.0477,-4.0439,-4.0208,-3.9688,-3.9046,-3.8238,-3.8123,-3.7969,-3.7584,-3.7257,-3.7219,-3.7123,-3.6904,-3.6692,-3.6519,-3.6288,-3.6045,-3.6423,-3.6846,-3.7327,-3.793,-3.8623,-3.915,-3.9623,-4.0054,-4.0381,-4.0496,-4.0496,-4.0496,-3.4328,-3.4068,-3.3934,-3.3873,-3.3842,-3.386,-3.3823,-3.3879,-3.4268,-3.4563,-3.4653,-3.4735,-3.4853,-3.5082,-3.5768,-3.6084,-3.6411,-3.7152,-3.7606,-3.8028,-3.8636,-3.8934,-3.8973,-3.9192,-3.9314,-3.9283,-3.9082,-3.8837,-3.8765,-3.8704,-3.8707,-3.8707,-3.8707,-3.8707,-3.8707,-3.8707,-3.8719,-3.8765,-3.8792,-3.8807,-3.8866,-3.8974,-3.9096,-3.9245,-3.9414,-3.9599,-3.9758,-3.9878,-4.0008,-4.0109,-4.0108,-4.0087,-4.0067,-4.0076,-4.0428,-4.1047,-4.1859,-4.2671,-4.3427,-4.4211,-4.487,-4.5082,-4.5246,-4.5297,-4.5298,-4.5297,-4.5309,-4.5371,-4.5448,-4.5513,-4.551,-4.5336,-4.5152,-4.4844,-4.4536,-4.4066,-4.3605,-4.272,-4.1835,-4.1373,-4.092,-4.0708,-4.0612,-4.0516,-4.0496,-4.0496,-4.0496,-4.0477,-4.0477,-4.015,-3.9777,-3.9161,-3.9027,-3.8815,-3.8488,-3.8277,-3.82,-3.7988,-3.7738,-3.7526,-3.7308,-3.7142,-3.6988,-3.7373,-3.7796,-3.8238,-3.8604,-3.8977,-3.9477,-3.9919,-4.015,-4.0439,-4.0496,-4.0496,-4.0496,-3.3269,-3.3067,-3.2858,-3.275,-3.2724,-3.2737,-3.2724,-3.2724,-3.2724,-3.2776,-3.3036,-3.3598,-3.403,-3.4099,-3.4821,-3.5161,-3.5442,-3.6298,-3.6673,-3.7095,-3.7647,-3.7964,-3.829,-3.8646,-3.8721,-3.8766,-3.8896,-3.8807,-3.875,-3.8723,-3.8707,-3.8707,-3.8707,-3.8707,-3.8707,-3.8719,-3.8747,-3.8788,-3.8877,-3.8931,-3.8964,-3.9101,-3.9232,-3.9376,-3.9563,-3.9758,-3.9881,-3.9996,-4.0109,-4.0205,-4.0225,-4.0616,-4.0731,-4.0893,-4.1294,-4.203,-4.2813,-4.352,-4.4132,-4.4716,-4.5281,-4.5339,-4.536,-4.5361,-4.537,-4.5361,-4.5409,-4.5476,-4.5457,-4.5522,-4.5577,-4.5441,-4.5441,-4.5229,-4.5056,-4.4739,-4.4047,-4.3181,-4.2643,-4.2354,-4.1835,-4.1296,-4.1104,-4.065,-4.0612,-4.0496,-4.0496,-4.0496,-4.0496,-4.0496,-4.0169,-3.995,-3.9738,-3.9738,-3.9585,-3.9335,-3.9142,-3.8892,-3.8565,-3.8238,-3.7969,-3.795,-3.7988,-3.8354,-3.8681,-3.9034,-3.94,-3.9611,-3.9861,-4.0246,-4.0381,-4.0496,-4.0496,-4.0516,-4.0554,-3.2003,-3.1774,-3.1617,-3.147,-3.1415,-3.1421,-3.1476,-3.1458,-3.1439,-3.1458,-3.1685,-3.2948,-3.3552,-3.3753,-3.403,-3.4202,-3.4622,-3.5423,-3.579,-3.6193,-3.6888,-3.712,-3.7443,-3.7823,-3.8047,-3.8292,-3.8442,-3.8645,-3.8792,-3.8732,-3.8719,-3.8707,-3.8689,-3.8689,-3.8719,-3.8762,-3.8822,-3.8906,-3.8989,-3.9142,-3.9197,-3.9232,-3.9376,-3.9557,-3.9724,-3.987,-4.0008,-4.0253,-4.0377,-4.0641,-4.0849,-4.13,-4.1587,-4.1808,-4.2335,-4.2967,-4.3532,-4.4059,-4.4518,-4.4988,-4.5285,-4.54,-4.541,-4.541,-4.5419,-4.5438,-4.5485,-4.5523,-4.5513,-4.5522,-4.5577,-4.5594,-4.5594,-4.5575,-4.5441,-4.5336,-4.4528,-4.3739,-4.347,-4.322,-4.2681,-4.2077,-4.1662,-4.117,-4.0843,-4.0708,-4.0554,-4.0516,-4.0496,-4.0496,-4.0362,-4.0265,-4.0189,-4.0246,-4.0342,-4.0123,-3.9777,-3.97,-3.9361,-3.895,-3.87,-3.8892,-3.9084,-3.9284,-3.9611,-3.9765,-3.9977,-4.0189,-4.0439,-4.0496,-4.0496,-4.0496,-4.0496,-4.0535,-4.065,-3.2008,-3.1709,-3.1568,-3.1434,-3.136,-3.1366,-3.1403,-3.1384,-3.1347,-3.1403,-3.136,-3.1538,-3.1949,-3.2096,-3.2943,-3.3347,-3.3663,-3.4496,-3.4939,-3.5265,-3.6025,-3.6279,-3.6547,-3.7043,-3.7566,-3.7832,-3.803,-3.8321,-3.8516,-3.8659,-3.8732,-3.8704,-3.8707,-3.8719,-3.8777,-3.8803,-3.8877,-3.8993,-3.9129,-3.9264,-3.9414,-3.9477,-3.9563,-3.9712,-3.9826,-3.9988,-4.0272,-4.0903,-4.1235,-4.1594,-4.2002,-4.2377,-4.2618,-4.2743,-4.3203,-4.376,-4.4307,-4.4575,-4.4988,-4.5256,-4.5438,-4.5429,-4.5438,-4.5438,-4.5476,-4.5495,-4.5541,-4.5568,-4.5568,-4.5568,-4.5594,-4.5594,-4.5594,-4.5594,-4.5518,-4.5498,-4.5114,-4.4547,-4.4143,-4.3816,-4.3412,-4.3028,-4.2758,-4.222,-4.1643,-4.1431,-4.1054,-4.0977,-4.0739,-4.065,-4.0573,-4.0516,-4.0516,-4.0496,-4.0458,-4.0439,-4.0227,-4.0227,-4.015,-3.9765,-3.9688,-4.0054,-4.0208,-4.0035,-4.0112,-4.0246,-4.0477,-4.0496,-4.0496,-4.0496,-4.0496,-4.0496,-4.0516,-4.0681,-4.0931]},{"header":{"parameterUnit":"m.s-1","parameterCategory":1,"la1":31.0,"la2":29.5877,"lo1":-88.7671,"lo2":-86.6584,"dy":0.0162,"dx":0.0185,"nx":115,"ny":88,"refTime":"2024-02-25T12:00:00:Z","depth":0,"parameterNumber":3,"parameterNumberName":"V-component_of_WINDS"},"data":[0.0,0.0,0.0,0.0,0.0,0.0,0.0,0.0,0.0,0.0,0.0,0.0,0.0,0.0,0.0,0.0,0.0,0.0,0.0,0.0,0.0,0.0,0.0,0.0,0.0,0.0,0.0,0.0,0.0,0.0,0.0,0.0,0.0,0.0,0.0,0.0,0.0,0.0,0.0,0.0,0.0,0.0,0.0,0.0,0.0,0.0,0.0,0.0,0.0,0.0,0.0,0.0,0.0,0.0,0.0,0.0,0.0,0.0,0.0,0.0,0.0,0.0,0.0,0.0,0.0,0.0,0.0,0.0,0.0,0.0,0.0,0.0,0.0,0.0,0.0,0.0,0.0,0.0,0.0,0.0,0.0,0.0,0.0,0.0,0.0,0.0,0.0,0.0,0.0,0.0,0.0,0.0,0.0,0.0,0.0,0.0,0.0,0.0,0.0,0.0,0.0,0.0,0.0,0.0,0.0,0.0,0.0,0.0,0.0,0.0,0.0,0.0,0.0,0.0,0.0,0.0,0.0,0.0,0.0,0.0,0.0,0.0,0.0,0.0,0.0,0.0,0.0,0.0,0.0,0.0,0.0,0.0,0.0,0.0,0.0,0.0,0.0,0.0,0.0,0.0,0.0,0.0,0.0,0.0,0.0,0.0,0.0,0.0,0.0,0.0,0.0,0.0,0.0,0.0,0.0,0.0,0.0,0.0,0.0,0.0,0.0,0.0,0.0,0.0,0.0,0.0,0.0,0.0,0.0,0.0,0.0,0.0,0.0,0.0,0.0,0.0,0.0,0.0,0.0,0.0,0.0,0.0,0.0,0.0,0.0,0.0,0.0,0.0,0.0,0.0,0.0,0.0,0.0,0.0,0.0,0.0,0.0,0.0,0.0,0.0,0.0,0.0,0.0,0.0,0.0,0.0,0.0,0.0,0.0,0.0,0.0,0.0,0.0,0.0,0.0,0.0,0.0,0.0,0.0,0.0,0.0,0.0,0.0,0.0,0.0,0.0,0.0,0.0,0.0,0.0,0.0,0.0,0.0,0.0,0.0,0.0,0.0,0.0,0.0,0.0,0.0,0.0,0.0,0.0,0.0,0.0,0.0,0.0,0.0,0.0,0.0,0.0,0.0,0.0,0.0,0.0,0.0,0.0,0.0,0.0,0.0,0.0,0.0,0.0,0.0,0.0,0.0,0.0,0.0,0.0,0.0,0.0,0.0,0.0,0.0,0.0,0.0,0.0,0.0,0.0,0.0,0.0,0.0,0.0,0.0,0.0,0.0,0.0,0.0,0.0,0.0,0.0,0.0,0.0,0.0,0.0,0.0,0.0,0.0,0.0,0.0,0.0,0.0,0.0,0.0,0.0,0.0,0.0,0.0,0.0,0.0,0.0,0.0,0.0,0.0,0.0,0.0,0.0,0.0,0.0,0.0,0.0,0.0,0.0,0.0,0.0,0.0,0.0,0.0,0.0,0.0,0.0,0.0,0.0,0.0,0.0,0.0,0.0,0.0,0.0,0.0,0.0,0.0,0.0,0.0,0.0,0.0,0.0,0.0,0.0,0.0,0.0,0.0,0.0,0.0,0.0,0.0,0.0,0.0,0.0,0.0,0.0,0.0,0.0,0.0,0.0,0.0,0.0,0.0,0.0,0.0,0.0,0.0,0.0,0.0,0.0,0.0,0.0,0.0,0.0,0.0,0.0,0.0,0.0,0.0,0.0,0.0,0.0,0.0,0.0,0.0,0.0,0.0,0.0,0.0,0.0,0.0,0.0,0.0,0.0,0.0,0.0,0.0,0.0,0.0,0.0,0.0,0.0,0.0,0.0,0.0,0.0,0.0,0.0,0.0,0.0,0.0,0.0,0.0,0.0,0.0,0.0,0.0,0.0,0.0,0.0,0.0,0.0,0.0,0.0,0.0,0.0,0.0,0.0,0.0,0.0,0.0,0.0,0.0,0.0,0.0,0.0,0.0,0.0,0.0,0.0,0.0,0.0,0.0,0.0,0.0,0.0,0.0,0.0,0.0,0.0,0.0,0.0,0.0,0.0,0.0,0.0,0.0,0.0,0.0,0.0,0.0,0.0,0.0,0.0,0.0,0.0,0.0,0.0,0.0,0.0,0.0,0.0,0.0,0.0,0.0,0.0,0.0,0.0,0.0,0.0,0.0,0.0,0.0,0.0,0.0,0.0,0.0,0.0,0.0,0.0,0.0,0.0,0.0,0.0,0.0,0.0,0.0,0.0,0.0,0.0,0.0,0.0,0.0,0.0,0.0,0.0,0.0,0.0,0.0,0.0,0.0,0.0,0.0,0.0,0.0,0.0,0.0,0.0,0.0,0.0,0.0,0.0,0.0,0.0,0.0,0.0,0.0,0.0,0.0,0.0,0.0,0.0,0.0,0.0,0.0,0.0,0.0,0.0,0.0,0.0,0.0,0.0,0.0,0.0,0.0,0.0,0.0,0.0,0.0,0.0,0.0,0.0,0.0,0.0,0.0,0.0,0.0,0.0,0.0,0.0,0.0,0.0,0.0,0.0,0.0,0.0,0.0,0.0,0.0,0.0,0.0,0.0,0.0,0.0,0.0,0.0,0.0,0.0,0.0,0.0,0.0,0.0,0.0,0.0,0.0,0.0,0.0,0.0,0.0,0.0,0.0,0.0,0.0,0.0,0.0,0.0,0.0,0.0,0.0,0.0,0.0,0.0,0.0,0.0,0.0,0.0,0.0,0.0,0.0,0.0,0.0,0.0,0.0,0.0,0.0,0.0,0.0,0.0,0.0,0.0,0.0,0.0,0.0,0.0,0.0,0.0,0.0,0.0,0.0,0.0,0.0,0.0,0.0,0.0,0.0,0.0,0.0,0.0,0.0,0.0,0.0,0.0,0.0,0.0,0.0,0.0,0.0,0.0,0.0,0.0,0.0,0.0,0.0,0.0,0.0,0.0,0.0,0.0,0.0,0.0,0.0,0.0,0.0,0.0,0.0,0.0,0.0,0.0,0.0,0.0,0.0,0.0,0.0,0.0,0.0,0.0,0.0,0.0,0.0,0.0,0.0,0.0,0.0,0.0,0.0,0.0,0.0,0.0,0.0,0.0,0.0,0.0,0.0,0.0,0.0,0.0,0.0,0.0,0.0,0.0,0.0,0.0,0.0,0.0,0.0,0.0,0.0,0.0,0.0,0.0,0.0,0.0,0.0,0.0,0.0,0.0,0.0,0.0,0.0,0.0,0.0,0.0,0.0,0.0,0.0,0.0,0.0,0.0,0.0,0.0,0.0,0.0,0.0,0.0,0.0,0.0,0.0,0.0,0.0,0.0,0.0,0.0,0.0,0.0,0.0,0.0,0.0,0.0,0.0,0.0,0.0,0.0,0.0,0.0,0.0,0.0,0.0,0.0,0.0,0.0,0.0,0.0,0.0,0.0,0.0,0.0,0.0,0.0,0.0,0.0,0.0,0.0,0.0,0.0,0.0,0.0,0.0,0.0,0.0,0.0,0.0,0.0,0.0,0.0,0.0,0.0,0.0,0.0,0.0,0.0,0.0,0.0,0.0,0.0,0.0,0.0,0.0,0.0,0.0,0.0,0.0,0.0,0.0,0.0,0.0,0.0,0.0,0.0,0.0,0.0,0.0,0.0,0.0,0.0,0.0,0.0,0.0,0.0,0.0,0.0,0.0,0.0,0.0,0.0,0.0,0.0,0.0,0.0,0.0,0.0,0.0,0.0,0.0,0.0,0.0,0.0,0.0,0.0,0.0,0.0,0.0,0.0,0.0,0.0,0.0,0.0,0.0,0.0,0.0,0.0,0.0,0.0,0.0,0.0,0.0,0.0,0.0,0.0,0.0,0.0,0.0,0.0,0.0,0.0,0.0,0.0,0.0,0.0,0.0,0.0,0.0,0.0,0.0,0.0,0.0,0.0,0.0,0.0,0.0,0.0,0.0,0.0,0.0,0.0,0.0,0.0,0.0,0.0,0.0,0.0,0.0,0.0,0.0,0.0,0.0,0.0,0.0,0.0,0.0,0.0,0.0,0.0,0.0,0.0,0.0,0.0,0.0,0.0,0.0,0.0,0.0,0.0,0.0,0.0,0.0,0.0,0.0,0.0,0.0,0.0,0.0,0.0,0.0,0.0,0.0,0.0,0.0,0.0,0.0,0.0,0.0,0.0,0.0,0.0,0.0,0.0,0.0,0.0,0.0,0.0,0.0,0.0,0.0,0.0,0.0,0.0,0.0,0.0,0.0,0.0,0.0,0.0,0.0,0.0,0.0,0.0,0.0,0.0,0.0,0.0,0.7421,0.0,0.0,0.0,0.0,0.0,0.0,0.0,0.0,0.0,0.0,0.0,0.0,0.0,0.0,0.0,0.0,0.0,0.0,0.0,0.0,0.0,0.0,0.0,0.0,0.0,0.0,0.0,0.0,0.0,0.0,0.0,0.0,0.0,0.0,0.0,0.0,0.0,0.0,0.0,0.0,0.0,0.0,0.0,0.0,0.0,0.0,0.0,0.0,0.0,0.0,0.0,0.0,0.0,0.0,0.0,0.0,0.0,0.0,0.0,0.0,0.0,0.0,0.0,0.0,0.0,0.0,0.0,0.0,0.0,0.0,0.0,0.0,0.0,0.0,0.0,0.0,0.0,0.0,0.0,0.0,0.0,0.0,0.0,0.0,0.0,0.0,0.0,0.0,0.0,0.0,0.0,0.0,0.0,0.0,0.0,0.0,0.0,0.0,0.0,0.0,0.0,0.0,0.0,0.0,0.0,0.0,0.0,0.0,0.0,0.0,0.5425,0.5856,0.6719,0.7324,0.7603,0.0,0.0,0.0,0.0,0.0,0.0,0.0,0.0,0.0,0.0,0.0,0.0,0.0,0.0,0.0,0.0,0.0,0.0,0.0,0.0,0.0,0.0,0.0,0.0,0.0,0.0,0.0,0.0,0.0,0.0,0.0,0.0,0.0,0.0,0.0,0.0,0.0,0.0,0.0,0.0,0.0,0.0,0.0,0.0,0.0,0.0,0.0,0.0,0.0,0.0,0.0,0.0,0.0,0.0,0.0,0.0,0.0,0.0,0.0,0.0,0.0,0.0,0.0,0.0,0.0,0.0,0.0,0.0,0.0,0.0,0.0,0.0,0.0,0.0,0.0,0.0,0.0,0.0,0.0,0.0,0.0,0.0,0.0,0.0,0.0,0.0,0.0,0.0,0.0,0.0,0.0,0.0,0.0,0.0,0.0,0.0,0.0,0.0,0.0,0.0,0.0,0.0,0.0,0.0,0.0,0.0,0.0,0.0,0.0,0.0,0.0,0.0,0.6926,0.7579,0.7884,0.0,0.0,0.0,0.0,0.0,0.0,0.0,0.0,0.0,0.0,0.0,0.0,0.0,0.0,0.0,0.0,0.0,0.0,0.0,0.0,0.0,0.0,0.0,0.0,0.0,0.0,0.0,0.0,0.0,0.0,0.0,0.0,0.0,0.0,0.0,0.0,0.0,0.0,0.0,0.0,0.0,0.0,0.0,0.0,0.0,0.0,0.0,0.0,0.0,0.0,0.0,0.0,0.0,0.0,0.0,0.0,0.0,0.0,0.0,0.0,0.0,0.0,0.0,0.0,0.0,0.0,0.0,0.0,0.0,0.0,0.0,0.0,0.0,0.0,0.0,0.0,0.0,0.0,0.0,0.0,0.0,0.0,0.0,0.0,0.0,0.0,0.0,0.0,0.0,0.0,0.0,0.0,0.0,0.0,0.0,0.0,0.0,0.0,0.0,0.0,0.0,0.0,0.0,0.0,0.0,0.0,0.0,0.0,0.0,0.0,0.5554,0.5913,0.6999,0.0,0.84,0.0,0.0,0.0,0.0,0.0,0.0,0.0,0.0,0.0,0.0,0.0,0.0,0.0,0.0,0.0,0.0,0.0,0.0,0.0,0.0,0.0,0.0,0.0,0.0,0.0,0.0,0.0,0.0,0.0,0.0,0.0,0.0,0.0,0.0,0.0,0.0,0.0,0.0,0.0,0.0,0.0,0.0,0.0,0.0,0.0,0.0,0.0,0.0,0.0,0.0,0.0,0.0,0.0,0.0,0.0,0.0,0.0,0.0,0.0,0.0,0.0,0.0,0.0,0.0,0.0,0.0,0.0,0.0,0.0,0.0,0.0,0.0,0.0,0.0,0.0,0.0,0.0,0.0,0.0,0.0,0.0,0.0,0.0,0.0,0.0,0.0,0.0,0.0,0.0,0.0,0.0,0.0,0.0,0.0,0.0,0.0,0.0,0.0,0.0,0.0,0.0,0.0,0.0,0.0,0.0,0.0,0.0,0.0,0.0,0.0,0.5877,0.6373,0.7484,0.8241,0.0,0.0,0.0,0.0,0.0,0.0,0.0,0.0,0.0,0.0,0.0,0.0,0.0,0.0,0.0,0.0,0.0,0.0,0.0,0.0,0.0,0.0,0.0,0.0,0.0,0.0,0.0,0.0,0.0,0.0,0.0,0.0,0.0,0.0,0.0,0.0,0.0,0.0,0.0,0.0,0.0,0.0,0.0,0.0,0.0,0.0,0.0,0.0,0.0,0.0,0.0,0.0,0.0,0.0,0.0,0.0,0.0,0.0,0.0,0.0,0.0,0.0,0.0,0.0,0.0,0.0,0.0,0.0,0.0,0.0,0.0,0.0,0.0,0.0,0.0,0.0,0.0,0.0,0.0,0.0,0.0,0.0,0.0,0.0,0.0,0.0,0.0,0.0,0.0,0.0,0.0,0.0,0.0,0.0,0.0,0.0,0.0,0.0,0.0,0.0,0.0,0.0,0.0,0.0,0.0,0.0,0.0,0.0,0.0,0.0,0.5323,0.6216,0.7061,0.7966,0.8561,0.8756,0.0,0.0,0.0,0.0,0.0,0.0,0.0,0.0,0.0,0.0,0.0,0.0,0.0,0.0,0.0,0.0,0.0,0.0,0.0,0.0,0.0,0.0,0.0,0.0,0.0,0.0,0.0,0.0,0.0,0.0,0.0,0.0,0.0,0.0,0.0,0.0,0.0,0.0,0.0,0.0,0.0,0.0,0.0,0.0,0.0,0.0,0.0,0.0,0.0,0.0,0.0,0.0,0.0,0.0,0.0,0.0,0.0,0.0,0.0,0.0,0.0,0.0,0.0,0.0,0.0,0.0,0.0,0.0,0.0,0.0,0.0,0.0,0.0,0.0,0.0,0.0,0.0,0.0,0.0,0.0,0.0,0.0,0.0,0.0,0.0,0.0,0.0,0.0,0.0,0.0,0.0,0.0,0.0,0.0,0.0,0.0,0.0,0.0,0.0,0.0,0.0,0.0,0.0,0.0,0.0,0.0,0.0,0.0,0.4491,0.5368,0.6524,0.7956,0.8386,0.8673,0.0,0.0,0.0,0.0,0.0,0.0,0.0,0.0,0.0,0.0,0.0,0.0,0.0,0.0,0.0,0.0,0.0,0.0,0.0,0.0,0.0,0.0,0.0,0.0,0.0,0.0,0.0,0.0,0.0,0.0,0.0,0.0,0.0,0.0,0.0,0.0,0.0,0.0,0.0,0.0,0.0,0.0,0.0,0.0,0.0,0.0,0.0,0.0,0.0,0.0,0.0,0.0,0.0,0.0,0.0,0.0,0.0,0.0,0.0,0.0,0.0,0.0,0.0,0.0,0.0,0.0,0.0,0.0,0.0,0.0,0.0,0.0,0.0,0.0,0.0,0.0,0.0,0.0,0.0,0.0,0.0,0.0,0.0,0.0,0.0,0.0,0.0,0.0,0.0,0.0,0.0,0.0,0.0,0.0,0.0,0.0,0.0,0.0,0.0,0.0,0.0,0.0,0.0,0.0,0.0,0.0,0.0,0.0,0.0,0.4699,0.6014,0.7102,0.7945,0.8284,0.8407,0.0,0.0,0.0,0.0,0.0,0.0,0.0,0.0,0.0,0.0,0.0,0.0,0.0,0.0,0.0,0.0,0.0,0.0,0.0,0.0,0.0,0.0,0.0,0.0,0.0,0.0,0.0,0.0,0.0,0.0,0.0,0.0,0.0,0.0,0.0,0.0,0.0,0.0,0.0,0.0,0.0,0.0,0.0,0.0,0.0,0.0,0.0,0.0,0.0,0.0,0.0,0.0,0.0,0.0,0.0,0.0,0.0,0.0,0.0,0.0,0.0,0.0,0.0,0.0,0.0,0.0,0.0,0.0,0.0,0.0,0.0,0.0,0.0,0.0,0.0,0.0,0.0,0.0,0.0,0.0,0.0,0.0,0.0,0.0,0.0,0.0,0.0,0.0,0.0,0.0,0.0,0.0,0.0,0.0,0.0,0.0,0.0,0.0,0.0,0.0,0.0,0.0,0.0,0.0,0.0,0.0,0.0,0.0,0.0,0.5113,0.0,0.7388,0.7855,0.8209,0.8286,0.0,0.0,0.0,0.0,0.0,0.0,0.0,0.0,0.0,0.0,0.0,0.0,0.0,0.0,0.0,0.0,0.0,0.0,0.0,0.0,0.0,0.0,0.0,0.0,0.0,0.0,0.0,0.0,0.0,0.0,0.0,0.0,0.0,0.0,0.0,0.0,0.0,0.0,0.0,0.0,0.0,0.0,0.0,0.0,0.0,0.0,0.0,0.0,0.0,0.0,0.0,0.0,0.0,0.0,0.0,0.0,0.0,0.0,0.0,0.0,0.0,0.0,0.0,0.0,0.0,0.0,0.0,0.0,0.0,0.0,0.0,0.0,0.0,0.0,0.0,0.0,0.0,0.0,0.0,0.0,0.0,0.0,0.0,0.0,0.0,0.0,0.0,0.0,0.0,0.0,0.0,0.0,0.0,0.0,0.0,0.0,0.0,0.0,0.0,0.0,0.0,0.0,0.0,0.0,0.0,0.0,0.0,0.0,0.3993,0.5706,0.6626,0.7309,0.7788,0.8109,0.8361,0.0,0.0,0.0,0.0,0.0,0.0,0.0,0.0,0.0,0.0,0.0,0.0,0.0,0.0,0.0,0.0,0.0,0.0,0.0,0.0,0.0,0.0,0.0,0.0,0.0,0.0,0.0,0.0,0.0,0.0,0.0,0.0,0.0,0.0,0.0,0.0,0.0,0.0,0.0,0.0,0.0,0.0,0.0,0.0,0.0,0.0,0.0,0.0,0.0,0.0,0.0,0.0,0.0,0.0,0.0,0.0,0.0,0.0,0.0,0.0,0.0,0.0,0.0,0.0,0.0,0.0,0.0,0.0,0.0,0.0,0.0,0.0,0.0,0.0,0.0,0.0,0.0,0.0,0.0,0.0,0.0,0.0,0.0,0.0,0.0,0.0,0.0,0.0,0.0,0.0,0.0,0.0,0.0,0.0,0.0,0.0,0.0,0.0,0.0,0.0,0.0,0.0,0.0,0.0,0.0,0.0,0.0,0.0,0.0,0.5488,0.6329,0.7047,0.7647,0.7894,0.7969,0.0,0.0,0.0,0.0,0.0,0.0,0.0,0.0,0.0,0.0,0.0,0.0,0.0,0.0,0.0,0.0,0.0,0.0,0.0,0.0,0.0,0.0,0.0,0.0,0.0,0.0,0.0,0.0,0.0,0.0,0.0,0.0,0.0,0.0,0.0,0.0,0.0,0.0,0.0,0.0,0.0,0.0,0.0,0.0,0.0,0.0,0.0,0.0,0.0,0.0,0.0,0.0,0.0,0.0,0.0,0.0,0.0,0.0,0.0,0.0,0.0,0.0,0.0,0.0,0.0,0.0,0.0,0.0,0.0,0.0,0.0,0.0,0.0,0.0,0.0,0.0,0.0,0.0,0.0,0.0,0.0,0.0,0.0,0.0,0.0,0.0,0.0,0.0,0.0,0.0,0.0,0.0,0.0,0.0,0.0,0.0,0.0,0.0,0.0,0.0,0.0,0.0,0.0,0.0,0.0,0.0,0.0,0.0,0.0,0.5558,0.6424,0.724,0.7978,0.8093,0.8135,0.8081,0.0,0.0,0.0,0.0,0.0,0.0,0.0,0.0,0.0,0.0,0.0,0.0,0.0,0.0,0.0,0.0,0.0,0.0,0.0,0.0,0.0,0.0,0.0,0.0,0.0,0.0,0.0,0.0,0.0,0.0,0.0,0.0,0.0,0.0,0.0,0.0,0.0,0.0,0.0,0.0,0.0,0.0,0.0,0.0,0.0,0.0,0.0,0.0,0.0,0.0,0.0,0.0,0.0,0.0,0.0,0.0,0.0,0.0,0.0,0.0,0.0,0.0,0.0,0.0,0.0,0.0,0.0,0.0,0.0,0.0,0.0,0.0,0.0,0.0,0.0,0.0,0.0,0.0,0.0,0.0,0.0,0.0,0.0,0.0,0.0,0.0,0.0,0.0,0.0,0.0,0.0,0.0,0.0,0.0,0.0,0.0,0.0,0.0,0.0,0.0,0.0,0.0,0.0,0.0,0.0,0.0,0.0,0.0,0.592,0.6866,0.7777,0.8647,0.8665,0.8725,0.0,0.0,0.0,0.0,0.0,0.0,0.0,0.0,0.0,0.0,0.0,0.0,0.0,0.0,0.0,0.0,0.0,0.0,0.0,0.0,0.0,0.0,0.0,0.0,0.0,0.0,0.0,0.0,0.0,0.0,0.0,0.0,0.0,0.0,0.0,0.0,0.0,0.0,0.0,0.0,0.0,0.0,0.0,0.0,0.0,0.0,0.0,0.0,0.0,0.0,0.0,0.0,0.0,0.0,0.0,0.0,0.0,0.0,0.0,0.0,0.0,0.0,0.0,0.0,0.0,0.0,0.0,0.0,0.0,0.0,0.0,0.0,0.0,0.0,0.0,0.0,0.0,0.0,0.0,0.0,0.0,0.0,0.0,0.0,0.0,0.0,0.0,0.0,0.0,0.0,0.0,0.0,0.0,0.0,0.0,0.0,0.0,0.0,0.0,0.0,0.0,0.0,0.0,0.0,0.0,0.0,0.0,0.0,0.0,0.625,0.7476,0.8299,0.8694,0.8977,0.9062,0.0,0.0,0.0,0.0,0.0,0.0,0.0,0.0,0.0,0.0,0.0,0.0,0.0,0.0,0.0,0.0,0.0,0.0,0.0,0.0,0.0,0.0,0.0,0.0,0.0,0.0,0.0,0.0,0.0,0.0,0.0,0.0,0.0,0.0,0.0,0.0,0.0,0.0,0.0,0.0,0.0,0.0,0.0,0.0,0.0,0.0,0.0,0.0,0.0,0.0,0.0,0.0,0.0,0.0,0.0,0.0,0.0,0.0,0.0,0.0,0.0,0.0,0.0,0.0,0.0,0.0,0.0,0.0,0.0,0.0,0.0,0.0,0.0,0.0,0.0,0.0,0.0,0.0,0.0,0.0,0.0,0.0,0.0,0.0,0.0,0.0,0.0,0.0,0.0,0.0,0.0,0.0,0.0,0.0,0.0,0.0,0.0,0.0,0.0,0.0,0.0,0.0,0.0,0.0,0.0,0.0,0.0,0.0,0.5233,0.6521,0.7921,0.8886,0.9369,0.9629,0.9649,0.0,0.0,0.0,0.0,0.0,0.0,0.0,0.0,0.0,0.0,0.0,0.0,0.0,0.0,0.0,0.0,0.0,0.0,0.0,0.0,0.0,0.0,0.0,0.0,0.0,0.0,0.0,0.0,0.0,0.0,0.0,0.0,0.0,0.0,0.0,0.0,0.0,0.0,0.0,0.0,0.0,0.0,0.0,0.0,0.0,0.0,0.0,0.0,0.0,0.0,0.0,0.0,0.0,0.0,0.0,0.0,0.0,0.0,0.0,0.0,0.0,0.0,0.0,0.0,0.0,0.0,0.0,0.0,0.0,0.0,0.0,0.0,0.0,0.0,0.0,0.0,0.0,0.0,0.0,0.0,0.0,0.0,0.0,0.0,0.0,0.0,0.0,0.0,0.0,0.0,0.0,0.0,0.0,0.0,0.0,0.0,0.0,0.0,0.0,0.0,0.0,0.0,0.0,0.0,0.0,0.0,0.0,0.0,0.5504,0.6673,0.8213,0.9421,1.0273,1.0424,1.0305,0.0,0.0,0.0,0.0,0.0,0.0,0.0,0.0,0.0,0.0,0.0,0.0,0.0,0.0,0.0,0.0,0.0,0.0,0.0,0.0,0.0,0.0,0.0,0.0,0.0,0.0,0.0,0.0,0.0,0.0,0.0,0.0,0.0,0.0,0.0,0.0,0.0,0.0,0.0,0.0,0.0,0.0,0.0,0.0,0.0,0.0,0.0,0.0,0.0,0.0,0.0,0.0,0.0,0.0,0.0,0.0,0.0,0.0,0.0,0.0,0.0,0.0,0.0,0.0,0.0,0.0,0.0,0.0,0.0,0.0,0.0,0.0,0.0,0.0,0.0,0.0,0.0,0.0,0.0,0.0,0.0,0.0,0.0,0.0,0.0,0.0,0.0,0.0,0.0,0.0,0.0,0.0,0.0,0.0,0.0,0.0,0.0,0.0,0.0,0.0,0.0,0.0,0.0,0.0,0.0,0.0,0.0,0.0,0.5652,0.6698,0.8271,0.9491,1.036,1.0795,1.0702,0.0,0.0,0.0,0.0,0.0,0.0,0.0,0.0,0.0,0.0,0.0,0.0,0.0,0.0,0.0,0.0,0.0,0.0,0.0,0.0,0.0,0.0,0.0,0.0,0.0,0.0,0.0,0.0,0.0,0.0,0.0,0.0,0.0,0.0,0.0,0.0,0.0,0.0,0.0,0.0,0.0,0.0,0.0,0.0,0.0,0.0,0.0,0.0,0.7588,0.0,0.0,0.0,0.0,0.0,0.0,0.0,0.0,0.0,0.0,0.0,0.0,0.0,0.0,0.0,0.0,0.0,0.0,0.0,0.0,0.0,0.0,0.0,0.0,0.0,0.0,0.0,0.0,0.0,0.0,0.0,0.0,0.0,0.0,0.0,0.0,0.0,0.0,0.0,0.0,0.0,0.0,0.0,0.0,0.0,0.0,0.0,0.0,0.0,0.0,0.0,0.0,0.0,0.0,0.0,0.0,0.0,0.0,0.0,0.5856,0.6876,0.8356,0.9579,1.0457,1.0774,1.0679,0.0,0.0,0.0,0.0,0.0,0.0,0.0,0.0,0.0,0.0,0.0,0.0,0.0,0.0,0.0,0.0,0.0,0.0,0.0,0.0,0.0,0.0,0.0,0.0,0.0,0.0,0.0,0.0,0.0,0.0,0.0,0.0,0.0,0.0,0.0,0.0,0.0,0.0,0.0,0.0,0.0,0.0,0.0,0.0,0.0,0.0,0.0,0.0,0.0,0.0,0.0,0.0,0.0,0.0,0.0,0.0,0.0,0.0,0.0,0.0,0.0,0.0,0.0,0.0,0.0,0.0,0.0,0.0,0.0,0.0,0.0,0.0,0.0,0.0,0.0,0.0,0.0,0.0,0.0,0.0,0.0,0.0,0.0,0.0,0.0,0.0,0.0,0.0,0.0,0.0,0.0,0.0,0.0,0.0,0.0,0.0,0.0,0.0,0.0,0.0,0.0,0.0,0.0,0.0,0.0,0.0,0.0,0.4721,0.5983,0.7054,0.8408,0.9554,1.0415,1.0521,1.0443,1.0186,0.0,0.0,0.0,0.0,0.0,0.0,0.0,0.0,0.0,0.0,0.0,0.0,0.0,0.0,0.0,0.0,0.0,0.0,0.0,0.0,0.0,0.0,0.0,0.0,0.0,0.0,0.0,0.0,0.0,0.0,0.0,0.0,0.0,0.0,0.0,0.0,0.0,0.0,0.4737,0.5635,0.0,0.0,0.0,0.0,0.0,0.0,0.0,0.0,0.8688,0.0,0.0,0.0,0.0,0.0,0.0,0.0,0.0,0.0,0.0,0.0,0.0,0.0,0.0,0.0,0.0,0.0,0.0,0.0,0.0,0.0,0.0,0.0,0.0,0.0,0.0,0.0,0.0,0.0,0.0,0.0,0.0,0.0,0.0,0.0,0.0,0.0,0.0,0.0,0.0,0.0,0.0,0.0,0.0,0.0,0.0,0.0,0.0,0.0,0.0,0.0,0.0,0.0,0.0,0.0,0.0,0.3532,0.462,0.5744,0.6918,0.8148,0.9086,0.9736,1.0257,1.0235,0.9673,0.0,0.0,0.0,0.0,0.0,0.0,0.0,0.0,0.0,0.0,0.0,0.0,0.0,0.0,0.0,0.0,0.0,0.0,0.0,0.0,0.0,0.0,0.0,0.0,0.0,0.0,0.0,0.0,0.0,0.0,0.0,0.0,0.0,0.0,0.0,0.0,0.0,0.0,0.0,0.5635,0.6135,0.0,0.0,0.0,0.0,0.0,0.0,0.0,0.0,0.8445,0.0,0.0,0.0,0.0,0.0,0.0,0.0,0.0,0.0,0.0,0.0,0.0,0.0,0.0,0.0,0.0,0.0,0.0,0.0,0.0,0.0,0.0,0.0,0.0,0.0,0.0,0.0,0.0,0.0,0.0,0.0,0.0,0.0,0.0,0.0,0.0,0.0,0.0,0.0,0.0,0.0,0.0,0.0,0.0,0.0,0.0,0.0,0.0,0.0,0.0,0.0,0.0,0.0,0.0,0.0,0.3767,0.4751,0.5713,0.6687,0.7705,0.855,0.9207,0.9433,0.9499,0.0,0.0,0.0,0.0,0.0,0.0,0.0,0.0,0.0,0.0,0.0,0.0,0.0,0.0,0.0,0.0,0.0,0.0,0.0,0.0,0.0,0.0,0.0,0.0,0.0,0.0,0.0,0.0,0.0,0.0,0.0,0.0,0.0,0.0,0.0,0.0,0.0,0.0,0.0,0.0,0.5354,0.5679,0.6076,0.0,0.0,0.0,0.0,0.0,0.0,0.8057,0.8181,0.0,0.0,0.0,0.0,0.0,0.0,0.0,0.0,0.0,0.0,0.0,0.0,0.0,0.0,0.0,0.0,0.0,0.0,0.0,0.0,0.0,0.0,0.0,0.0,0.0,0.0,0.0,0.0,0.0,0.0,0.0,0.0,0.0,0.0,0.0,0.0,0.0,0.0,0.0,0.0,0.0,0.0,0.0,0.0,0.0,0.0,0.0,0.0,0.0,0.0,0.0,0.0,0.0,0.0,0.0,0.3925,0.4834,0.5672,0.6435,0.7244,0.8008,0.8629,0.8664,0.8772,0.0,0.0,0.0,0.0,0.0,0.0,0.0,0.0,0.0,0.0,0.0,0.0,0.0,0.0,0.0,0.0,0.0,0.0,0.0,0.0,0.0,0.0,0.0,0.0,0.0,0.0,0.0,0.0,0.0,0.0,0.0,0.0,0.0,0.0,0.0,0.0,0.0,0.0,0.0,0.0,0.0,0.5334,0.5636,0.5963,0.0,0.0,0.0,0.0,0.7551,0.7694,0.0,0.0,0.0,0.0,0.0,0.0,0.0,0.0,0.0,0.0,0.0,0.0,0.0,0.0,0.0,0.0,0.0,0.0,0.0,0.0,0.0,0.0,0.0,0.0,0.0,0.0,0.0,0.0,0.0,0.0,0.0,0.0,0.0,0.0,0.0,0.0,0.0,0.0,0.0,0.0,0.0,0.0,0.0,0.0,0.0,0.0,0.0,0.0,0.0,0.0,0.0,0.0,0.0,0.0,0.0,0.0,0.4059,0.4647,0.5395,0.6224,0.6915,0.7438,0.7839,0.8284,0.846,0.0,0.0,0.0,0.0,0.0,0.0,0.0,0.0,0.0,0.0,0.0,0.0,0.0,0.0,0.0,0.0,0.0,0.0,0.0,0.0,0.0,0.0,0.0,0.0,0.0,0.0,0.0,0.0,0.0,0.0,0.0,0.0,0.0,0.0,0.0,0.0,0.0,0.0,0.0,0.0,0.0,0.5471,0.5974,0.6269,0.6614,0.0,0.0,0.7745,0.7845,0.777,0.0,0.0,0.0,0.0,0.0,0.0,0.0,0.0,0.0,0.0,0.0,0.0,0.0,0.0,0.0,0.0,0.0,0.0,0.0,0.0,0.0,0.0,0.0,0.0,0.0,0.0,0.0,0.0,0.0,0.0,0.0,0.0,0.0,0.0,0.0,0.0,0.0,0.0,0.0,0.0,0.0,0.0,0.0,0.0,0.0,0.0,0.0,0.0,0.0,0.0,0.0,0.0,0.0,0.0,0.0,0.3525,0.4081,0.4634,0.5196,0.58,0.6299,0.6791,0.7222,0.766,0.79,0.0,0.0,0.0,0.0,0.0,0.0,0.0,0.0,0.0,0.0,0.0,0.0,0.0,0.0,0.0,0.0,0.0,0.0,0.0,0.0,0.0,0.0,0.0,0.0,0.0,0.0,0.0,0.0,0.0,0.0,0.0,0.0,0.0,0.0,0.0,0.0,0.0,0.0,0.0,0.0,0.0,0.0,0.5507,0.588,0.0,0.0,0.0,0.7151,0.7351,0.0,0.0,0.0,0.0,0.0,0.0,0.0,0.0,0.0,0.0,0.0,0.0,0.0,0.0,0.0,0.0,0.0,0.0,0.0,0.0,0.0,0.0,0.0,0.0,0.0,0.0,0.0,0.0,0.0,0.0,0.0,0.0,0.0,0.0,0.0,0.0,0.0,0.0,0.0,0.0,0.0,0.0,0.0,0.0,0.0,0.0,0.0,0.0,0.0,0.0,0.0,0.0,0.0,0.0,0.0,0.0,0.0,0.4152,0.4662,0.5157,0.5599,0.6039,0.6506,0.6999,0.729,0.0,0.0,0.0,0.0,0.0,0.0,0.0,0.0,0.0,0.0,0.0,0.0,0.0,0.0,0.0,0.0,0.0,0.0,0.0,0.0,0.0,0.0,0.0,0.0,0.0,0.0,0.0,0.499,0.0,0.0,0.0,0.0,0.0,0.0,0.0,0.0,0.0,0.0,0.0,0.0,0.0,0.0,0.4934,0.5086,0.5503,0.5873,0.0,0.0,0.6555,0.6828,0.6925,0.7084,0.0,0.0,0.0,0.0,0.0,0.0,0.0,0.0,0.0,0.0,0.0,0.0,0.0,0.0,0.0,0.0,0.0,0.0,0.0,0.0,0.0,0.0,0.0,0.0,0.0,0.0,0.0,0.0,0.0,0.0,0.0,0.0,0.0,0.0,0.0,0.0,0.0,0.0,0.0,0.0,0.0,0.0,0.0,0.0,0.0,0.0,0.0,0.0,0.0,0.0,0.0,0.0,0.0,0.0,0.0,0.4259,0.4762,0.528,0.586,0.6467,0.6945,0.7343,0.7507,0.768,0.0,0.0,0.0,0.0,0.0,0.0,0.0,0.0,0.0,0.0,0.0,0.0,0.0,0.0,0.0,0.0,0.0,0.0,0.0,0.0,0.0,0.0,0.0,0.0,0.0,0.0,0.0,0.0,0.0,0.0,0.0,0.0,0.0,0.0,0.0,0.0,0.0,0.0,0.0,0.0,0.0,0.482,0.5167,0.5385,0.564,0.0,0.0,0.643,0.6442,0.6712,0.6872,0.6786,0.0,0.0,0.0,0.0,0.0,0.0,0.0,0.0,0.0,0.0,0.0,0.0,0.0,0.0,0.0,0.0,0.0,0.0,0.0,0.0,0.0,0.0,0.0,0.0,0.0,0.0,0.0,0.0,0.0,0.0,0.0,0.0,0.0,0.0,0.0,0.0,0.0,0.0,0.0,0.0,0.0,0.0,0.0,0.0,0.0,0.0,0.0,0.0,0.0,0.0,0.0,0.0,0.0,0.3747,0.4307,0.4725,0.5216,0.5819,0.6311,0.676,0.7209,0.7514,0.7653,0.0,0.0,0.0,0.0,0.0,0.0,0.0,0.0,0.0,0.0,0.0,0.0,0.0,0.0,0.0,0.0,0.0,0.0,0.0,0.0,0.0,0.0,0.0,0.0,0.0,0.0,0.0,0.0,0.4705,0.453,0.4164,0.0,0.0,0.0,0.0,0.0,0.0,0.0,0.0,0.0,0.0,0.4677,0.4805,0.508,0.0,0.0,0.5759,0.5973,0.6131,0.6279,0.6391,0.6501,0.6667,0.0,0.0,0.0,0.0,0.0,0.0,0.0,0.0,0.0,0.0,0.0,0.0,0.0,0.0,0.0,0.0,0.0,0.0,0.0,0.0,0.0,0.0,0.0,0.0,0.0,0.0,0.0,0.0,0.0,0.0,0.0,0.0,0.0,0.0,0.0,0.0,0.0,0.0,0.0,0.0,0.0,0.0,0.0,0.0,0.0,0.0,0.0,0.0,0.0,0.0,0.0,0.0,0.3858,0.4305,0.4768,0.5255,0.5866,0.6272,0.6712,0.7175,0.7476,0.7608,0.0,0.0,0.0,0.0,0.0,0.0,0.0,0.0,0.0,0.0,0.0,0.0,0.0,0.0,0.0,0.0,0.0,0.0,0.0,0.0,0.0,0.0,0.0,0.0,0.0,0.0,0.0,0.0,0.4735,0.454,0.4129,0.0,0.0,0.0,0.0,0.0,0.0,0.0,0.0,0.0,0.0,0.453,0.4588,0.48,0.5042,0.5156,0.5317,0.5481,0.5759,0.586,0.593,0.6139,0.0,0.0,0.0,0.0,0.0,0.0,0.0,0.0,0.0,0.0,0.0,0.0,0.0,0.0,0.0,0.0,0.0,0.0,0.0,0.0,0.0,0.0,0.0,0.0,0.0,0.0,0.0,0.0,0.0,0.0,0.0,0.0,0.0,0.0,0.0,0.0,0.0,0.0,0.0,0.0,0.0,0.0,0.0,0.0,0.0,0.0,0.0,0.0,0.0,0.0,0.0,0.0,0.0,0.3958,0.429,0.4883,0.5457,0.599,0.6437,0.6917,0.737,0.7422,0.7575,0.7866,0.0,0.0,0.0,0.0,0.0,0.0,0.0,0.0,0.0,0.0,0.0,0.0,0.0,0.0,0.0,0.0,0.0,0.0,0.0,0.0,0.0,0.0,0.0,0.0,0.0,0.0,0.4697,0.4704,0.4631,0.0,0.0,0.0,0.0,0.0,0.0,0.0,0.0,0.0,0.0,0.4211,0.4307,0.4569,0.4669,0.477,0.4901,0.4901,0.5014,0.5274,0.5489,0.5608,0.0,0.0,0.0,0.0,0.0,0.0,0.0,0.0,0.0,0.0,0.0,0.0,0.0,0.0,0.0,0.0,0.0,0.0,0.0,0.0,0.0,0.0,0.0,0.0,0.0,0.0,0.0,0.3007,0.2727,0.0,0.0,0.0,0.0,0.0,0.0,0.0,0.0,0.0,0.0,0.0,0.332,0.322,0.0,0.0,0.0,0.0,0.0,0.0,0.0,0.0,0.0,0.0,0.0,0.0,0.3919,0.4421,0.4772,0.5324,0.6124,0.6431,0.6867,0.7527,0.7562,0.7694,0.7895,0.0,0.0,0.0,0.0,0.0,0.0,0.0,0.0,0.0,0.0,0.0,0.0,0.0,0.0,0.0,0.0,0.0,0.0,0.0,0.0,0.0,0.0,0.0,0.0,0.0,0.4886,0.0,0.0,0.0,0.0,0.0,0.0,0.0,0.0,0.0,0.0,0.0,0.4184,0.4322,0.4339,0.4376,0.4503,0.4542,0.4632,0.0,0.0,0.0,0.0,0.0,0.0,0.0,0.0,0.0,0.0,0.0,0.0,0.0,0.0,0.6608,0.6613,0.6585,0.6632,0.6735,0.0,0.0,0.0,0.0,0.0,0.0,0.0,0.0,0.0,0.0,0.0,0.0,0.0,0.0,0.0,0.0,0.2877,0.0,0.0,0.0,0.0,0.0,0.0,0.0,0.0,0.3425,0.3465,0.3538,0.3457,0.3411,0.0,0.3411,0.331,0.0,0.0,0.0,0.0,0.0,0.0,0.0,0.0,0.4035,0.4483,0.4763,0.5277,0.5986,0.6254,0.6654,0.7265,0.7577,0.7758,0.7763,0.7869,0.7689,0.0,0.0,0.0,0.0,0.0,0.0,0.0,0.0,0.0,0.0,0.0,0.0,0.0,0.0,0.0,0.0,0.0,0.0,0.0,0.0,0.0,0.0,0.0,0.4975,0.0,0.0,0.0,0.0,0.0,0.0,0.0,0.0,0.0,0.4231,0.4189,0.4199,0.4371,0.4359,0.4377,0.4494,0.0,0.0,0.0,0.0,0.0,0.0,0.0,0.5307,0.5502,0.5729,0.582,0.5673,0.5729,0.5846,0.6061,0.0,0.0,0.6413,0.644,0.644,0.6409,0.6404,0.6383,0.6404,0.6356,0.6354,0.0,0.0,0.0,0.0,0.0,0.0,0.0,0.0,0.3614,0.3572,0.0,0.3367,0.0,0.0,0.0,0.0,0.0,0.0,0.0,0.0,0.3614,0.3748,0.3974,0.3977,0.3987,0.3994,0.3981,0.386,0.3607,0.3293,0.0,0.0,0.0,0.0,0.0,0.0,0.4316,0.4508,0.4897,0.5311,0.5692,0.5941,0.6282,0.6718,0.7428,0.7701,0.7553,0.7966,0.7992,0.7518,0.7023,0.0,0.0,0.0,0.0,0.0,0.0,0.0,0.0,0.0,0.0,0.0,0.0,0.0,0.0,0.0,0.0,0.0,0.0,0.0,0.0,0.485,0.0,0.0,0.0,0.0,0.0,0.0,0.0,0.0,0.0,0.0,0.4534,0.4228,0.4102,0.4385,0.0,0.0,0.0,0.0,0.4491,0.4519,0.4621,0.4749,0.4879,0.5002,0.5165,0.5392,0.0,0.0,0.5392,0.5392,0.543,0.5422,0.5464,0.5627,0.6336,0.6446,0.6382,0.6207,0.616,0.6173,0.6173,0.6134,0.616,0.4158,0.0,0.0,0.0,0.0,0.3876,0.3897,0.3897,0.3893,0.3811,0.3731,0.3667,0.0,0.0,0.0,0.0,0.0,0.0,0.3704,0.389,0.3894,0.3917,0.3994,0.3994,0.3994,0.3994,0.3994,0.3954,0.3894,0.3782,0.3522,0.3111,0.0,0.0,0.0,0.0,0.4394,0.4646,0.4903,0.5244,0.5698,0.5872,0.6273,0.696,0.756,0.7874,0.7845,0.8114,0.8125,0.7801,0.7589,0.0,0.0,0.0,0.0,0.0,0.0,0.0,0.0,0.0,0.0,0.0,0.0,0.0,0.0,0.0,0.0,0.0,0.0,0.0,0.5213,0.521,0.5222,0.0,0.0,0.0,0.0,0.0,0.0,0.0,0.0,0.0,0.4693,0.455,0.4426,0.0,0.0,0.4443,0.4484,0.4491,0.4491,0.4491,0.0,0.0,0.0,0.5006,0.5167,0.5377,0.5395,0.5424,0.5517,0.5456,0.5427,0.5517,0.5553,0.5614,0.5792,0.5767,0.5692,0.5642,0.5612,0.5612,0.5612,0.5612,0.5651,0.4623,0.4341,0.4246,0.4195,0.4199,0.4233,0.4284,0.4287,0.426,0.4233,0.4138,0.4001,0.3927,0.3843,0.3782,0.0,0.0,0.0,0.3937,0.4085,0.406,0.4115,0.4192,0.4221,0.4195,0.4199,0.4195,0.4168,0.4082,0.4085,0.3873,0.349,0.0,0.0,0.3991,0.4317,0.4619,0.4869,0.4985,0.5238,0.5664,0.588,0.6355,0.7084,0.7526,0.7803,0.7968,0.8099,0.8113,0.7973,0.7756,0.7255,0.0,0.0,0.0,0.0,0.0,0.0,0.0,0.0,0.0,0.0,0.0,0.3969,0.0,0.0,0.0,0.0,0.4685,0.4946,0.5249,0.5255,0.0,0.0,0.0,0.0,0.0,0.0,0.0,0.4888,0.4665,0.4541,0.4614,0.4639,0.4599,0.4461,0.4487,0.4491,0.4491,0.0,0.4491,0.4491,0.4592,0.4745,0.4897,0.5005,0.5182,0.5371,0.5395,0.5425,0.5521,0.5455,0.5425,0.5488,0.5521,0.5521,0.5521,0.5435,0.5409,0.5409,0.5409,0.5409,0.5405,0.5405,0.5438,0.4958,0.4935,0.4716,0.4573,0.4539,0.4679,0.4737,0.4707,0.4704,0.4737,0.4691,0.4395,0.4247,0.4267,0.4129,0.0,0.0,0.4055,0.4126,0.4227,0.422,0.4334,0.4484,0.4487,0.4491,0.4487,0.4491,0.4395,0.4244,0.424,0.4166,0.406,0.4325,0.4414,0.4412,0.4672,0.4909,0.5106,0.5118,0.5288,0.5618,0.5982,0.6472,0.7058,0.7354,0.7638,0.7911,0.7955,0.8022,0.8068,0.7602,0.7208,0.6973,0.0,0.0,0.0,0.0,0.0,0.0,0.0,0.0,0.0,0.0,0.0,0.0,0.0,0.0,0.0,0.4734,0.0,0.495,0.513,0.0,0.0,0.0,0.5183,0.5361,0.5153,0.497,0.4907,0.0,0.0,0.4463,0.0,0.466,0.4519,0.4491,0.4491,0.4491,0.4491,0.4491,0.4491,0.4621,0.4741,0.4864,0.5026,0.5206,0.5371,0.5395,0.5395,0.5395,0.5395,0.5395,0.5428,0.5395,0.5395,0.5395,0.5415,0.5395,0.5411,0.5415,0.5418,0.5404,0.5404,0.5401,0.5593,0.5586,0.5515,0.5223,0.4819,0.4847,0.4863,0.4863,0.4867,0.4863,0.486,0.4792,0.4729,0.4729,0.4692,0.4675,0.4672,0.4585,0.4551,0.4575,0.4467,0.4457,0.4487,0.4491,0.4491,0.4491,0.4491,0.4498,0.444,0.444,0.4419,0.4385,0.4651,0.4662,0.4427,0.4815,0.5035,0.5106,0.5195,0.5416,0.5736,0.595,0.6332,0.6928,0.7306,0.7706,0.8115,0.8,0.7967,0.8082,0.7637,0.724,0.6946,0.6758,0.0,0.0,0.0,0.0,0.0,0.0,0.0,0.0,0.0,0.4392,0.4413,0.0,0.4703,0.0,0.4967,0.5189,0.5361,0.5396,0.0,0.0,0.5301,0.5275,0.5321,0.5035,0.4886,0.4965,0.471,0.4575,0.4616,0.458,0.4519,0.4491,0.4491,0.4491,0.4491,0.4491,0.4491,0.4501,0.4617,0.4741,0.487,0.5138,0.5347,0.5388,0.5395,0.5395,0.5395,0.5395,0.5395,0.5395,0.5395,0.5395,0.5395,0.5395,0.5395,0.5395,0.5395,0.5395,0.5395,0.5395,0.5395,0.58,0.58,0.58,0.561,0.5311,0.5311,0.5311,0.5311,0.5311,0.5277,0.5209,0.507,0.4948,0.4921,0.4918,0.4918,0.4881,0.48,0.4792,0.4785,0.4707,0.4696,0.466,0.4621,0.4593,0.459,0.4525,0.4491,0.4491,0.4491,0.4491,0.4519,0.4763,0.4807,0.464,0.499,0.5202,0.5179,0.5272,0.5466,0.5795,0.5873,0.6196,0.6793,0.7144,0.7463,0.78,0.7746,0.7745,0.7801,0.7506,0.7196,0.6929,0.681,0.6452,0.0,0.0,0.0,0.0,0.0,0.0,0.0,0.0,0.0,0.0,0.0,0.4949,0.0,0.5032,0.0,0.5218,0.5339,0.5414,0.5418,0.5429,0.5416,0.531,0.5086,0.4908,0.4873,0.4663,0.4561,0.4618,0.4546,0.4491,0.4491,0.4491,0.4491,0.4491,0.4491,0.4491,0.4494,0.4563,0.467,0.485,0.5197,0.5395,0.5395,0.5395,0.5395,0.5395,0.5395,0.5395,0.5395,0.5395,0.5395,0.5395,0.5395,0.5395,0.5395,0.5395,0.5395,0.5395,0.5395,0.5395,0.5861,0.5861,0.5861,0.5861,0.5861,0.5861,0.5837,0.58,0.58,0.5732,0.5599,0.5285,0.509,0.4972,0.4951,0.4975,0.4975,0.4955,0.4914,0.4914,0.4928,0.4918,0.4881,0.4782,0.4718,0.4714,0.4614,0.4549,0.4545,0.4528,0.4518,0.4518,0.4774,0.4873,0.4928,0.5128,0.5274,0.5301,0.5301,0.5466,0.5795,0.5791,0.6091,0.6674,0.695,0.7147,0.7343,0.7438,0.7519,0.7566,0.7374,0.7188,0.7024,0.6834,0.656,0.0,0.5901,0.0,0.0,0.0,0.0,0.0,0.0,0.0,0.0,0.5178,0.5213,0.5271,0.5073,0.4947,0.4942,0.5154,0.531,0.5322,0.5489,0.5516,0.5323,0.5169,0.4984,0.4762,0.4702,0.4632,0.4519,0.4491,0.4491,0.4491,0.4491,0.4491,0.4491,0.4491,0.4491,0.4491,0.4528,0.4689,0.4891,0.5169,0.5395,0.5395,0.5395,0.5395,0.5359,0.5359,0.5359,0.5359,0.5359,0.5359,0.5395,0.5395,0.5395,0.5395,0.5395,0.5395,0.5395,0.5395,0.5395,0.6214,0.6211,0.6214,0.6211,0.6211,0.6211,0.6067,0.58,0.58,0.5783,0.5749,0.5583,0.5488,0.5454,0.5368,0.531,0.5303,0.5145,0.5059,0.5056,0.4941,0.4918,0.4914,0.4891,0.4874,0.4844,0.4843,0.4833,0.483,0.4707,0.4646,0.4672,0.4724,0.4794,0.4901,0.0,0.0,0.0,0.5301,0.5466,0.5768,0.5791,0.6091,0.668,0.6842,0.0,0.7594,0.7548,0.7666,0.7974,0.773,0.0,0.0,0.0,0.0,0.0,0.0,0.0,0.0,0.0,0.0,0.0,0.5314,0.5218,0.5279,0.5152,0.5122,0.5284,0.5152,0.5121,0.529,0.5329,0.537,0.5374,0.5427,0.5419,0.5355,0.5126,0.4912,0.4862,0.4682,0.4519,0.4491,0.4491,0.4491,0.4491,0.4491,0.4491,0.4491,0.4491,0.4491,0.4505,0.4675,0.483,0.4908,0.5197,0.5382,0.5395,0.5395,0.5326,0.519,0.519,0.5156,0.5156,0.5156,0.5223,0.5359,0.5395,0.5395,0.5395,0.5395,0.5395,0.5395,0.5395,0.5395,0.63,0.0,0.63,0.63,0.0,0.63,0.6211,0.603,0.6027,0.5986,0.5868,0.5759,0.5694,0.5688,0.5613,0.5576,0.5504,0.5393,0.5318,0.5243,0.5172,0.5135,0.5131,0.506,0.4995,0.4988,0.4952,0.4918,0.4914,0.481,0.4806,0.4799,0.4797,0.4833,0.4911,0.5029,0.5156,0.5301,0.5301,0.5411,0.5709,0.5763,0.6009,0.6436,0.0,0.0,0.0,0.0,0.0,0.0,0.0,0.0,0.0,0.0,0.0,0.693,0.683,0.6584,0.611,0.6052,0.6,0.585,0.5663,0.5467,0.5323,0.529,0.5312,0.5349,0.5199,0.5124,0.5241,0.5252,0.524,0.5244,0.5342,0.5364,0.5244,0.5045,0.4864,0.481,0.4615,0.4491,0.4491,0.4491,0.4491,0.4491,0.4491,0.4491,0.4491,0.4491,0.4491,0.4494,0.4679,0.4833,0.4918,0.5094,0.5317,0.5371,0.5395,0.5326,0.512,0.5087,0.5054,0.4994,0.496,0.5027,0.5226,0.5256,0.5292,0.5359,0.5395,0.5395,0.5395,0.5395,0.5395,0.6361,0.6337,0.6337,0.6323,0.63,0.63,0.63,0.63,0.0,0.0,0.0,0.5911,0.584,0.5837,0.5813,0.5735,0.563,0.5627,0.5593,0.5477,0.547,0.5474,0.5463,0.5281,0.5177,0.5174,0.5067,0.4996,0.4996,0.4938,0.4928,0.4945,0.4925,0.49,0.4922,0.502,0.5159,0.5242,0.5274,0.538,0.5595,0.5732,0.5927,0.62,0.663,0.6839,0.6784,0.7201,0.7382,0.7229,0.7481,0.7635,0.7641,0.7586,0.7461,0.7317,0.7166,0.6892,0.6564,0.6449,0.6351,0.6125,0.5861,0.5616,0.5333,0.5449,0.5468,0.541,0.5197,0.5112,0.514,0.5157,0.5172,0.514,0.5284,0.5337,0.5182,0.5012,0.4901,0.4748,0.4634,0.4518,0.4494,0.4491,0.4491,0.4491,0.4491,0.4491,0.4491,0.4491,0.4491,0.4501,0.4634,0.4741,0.4857,0.4965,0.5145,0.5281,0.5315,0.5266,0.5084,0.5024,0.496,0.4794,0.4761,0.4827,0.499,0.5057,0.5123,0.5326,0.5359,0.5359,0.5395,0.5395,0.5395,0.6559,0.648,0.648,0.6412,0.63,0.63,0.63,0.63,0.63,0.6286,0.6259,0.6064,0.5963,0.5956,0.5824,0.5789,0.5772,0.5772,0.5762,0.0,0.5739,0.5739,0.5732,0.5593,0.5525,0.5515,0.5402,0.533,0.5317,0.5165,0.5069,0.5056,0.4958,0.4916,0.4908,0.5045,0.5106,0.5132,0.5242,0.538,0.5591,0.5704,0.5905,0.6205,0.6544,0.6831,0.7031,0.7229,0.7425,0.7623,0.7997,0.8178,0.8184,0.8343,0.8373,0.8126,0.7837,0.747,0.7037,0.6741,0.6318,0.5757,0.5547,0.5441,0.5385,0.525,0.5238,0.5374,0.5227,0.519,0.5343,0.5344,0.5351,0.5354,0.5378,0.5382,0.5351,0.5186,0.5009,0.4874,0.4752,0.4631,0.4525,0.4494,0.4491,0.4491,0.4491,0.4491,0.4491,0.4491,0.4491,0.4508,0.4621,0.4691,0.4748,0.4853,0.4965,0.5106,0.5073,0.4987,0.4863,0.4776,0.4683,0.4625,0.4625,0.4694,0.4831,0.4861,0.4927,0.509,0.5156,0.519,0.5329,0.5362,0.5395,0.6661,0.66,0.6597,0.6563,0.6498,0.6498,0.6538,0.6502,0.6498,0.6446,0.6296,0.6221,0.6156,0.6149,0.6081,0.6003,0.5888,0.5925,0.5841,0.5803,0.58,0.58,0.5796,0.5735,0.5705,0.5698,0.5637,0.5634,0.5586,0.545,0.5379,0.5332,0.5117,0.4962,0.4916,0.5047,0.5082,0.5099,0.5147,0.5321,0.5591,0.5732,0.59,0.6087,0.649,0.6822,0.7029,0.7339,0.7622,0.7852,0.8092,0.8247,0.8247,0.8358,0.8333,0.8156,0.7919,0.7588,0.7135,0.6648,0.62,0.5792,0.5599,0.5485,0.5421,0.5315,0.5314,0.5383,0.5322,0.5313,0.5385,0.5395,0.5395,0.5395,0.5395,0.5395,0.5378,0.5223,0.5076,0.4992,0.483,0.4667,0.4624,0.4542,0.4491,0.4491,0.4491,0.4491,0.4491,0.4491,0.4491,0.4498,0.4552,0.4599,0.4674,0.4741,0.4853,0.4992,0.4861,0.4766,0.469,0.4587,0.4489,0.4447,0.4431,0.4531,0.4661,0.4691,0.4758,0.4894,0.4927,0.4997,0.5063,0.516,0.5292,0.6776,0.6753,0.6749,0.6732,0.6702,0.6702,0.6702,0.6702,0.6698,0.6573,0.638,0.6399,0.6399,0.6399,0.6399,0.6295,0.6193,0.6141,0.606,0.5962,0.5952,0.5935,0.5901,0.5871,0.585,0.5847,0.582,0.58,0.5786,0.5688,0.562,0.5603,0.5348,0.5145,0.4938,0.5115,0.5159,0.5181,0.525,0.5401,0.5595,0.5791,0.5977,0.6151,0.6591,0.6885,0.7075,0.744,0.7723,0.7833,0.8028,0.8127,0.8157,0.8177,0.8138,0.8023,0.7871,0.7567,0.7076,0.6493,0.6053,0.5892,0.5686,0.5521,0.5428,0.5395,0.5395,0.5395,0.5388,0.5392,0.5395,0.5395,0.5395,0.5395,0.5395,0.5395,0.5382,0.5254,0.5133,0.5083,0.4897,0.4779,0.4691,0.4617,0.4535,0.4498,0.4491,0.4491,0.4491,0.4491,0.4491,0.4491,0.4491,0.4532,0.4648,0.4665,0.4733,0.4843,0.4716,0.4595,0.454,0.4443,0.4341,0.4265,0.4248,0.4328,0.4461,0.4461,0.4528,0.4694,0.4761,0.4794,0.4827,0.496,0.5123,0.698,0.6873,0.6862,0.6785,0.6715,0.6709,0.6712,0.6712,0.6702,0.6692,0.6661,0.6658,0.6658,0.6661,0.6647,0.6634,0.6617,0.6634,0.6546,0.641,0.645,0.6381,0.6248,0.6081,0.5973,0.5963,0.5888,0.5844,0.584,0.5796,0.5718,0.5603,0.5559,0.5399,0.5148,0.5276,0.539,0.5385,0.5667,0.5735,0.5644,0.5978,0.629,0.6525,0.6956,0.72,0.7274,0.7413,0.7483,0.7414,0.7736,0.7933,0.7954,0.8091,0.8195,0.8158,0.7877,0.7474,0.6957,0.6309,0.5936,0.5892,0.5634,0.5439,0.5402,0.5399,0.5395,0.5395,0.5395,0.5395,0.5395,0.5395,0.5395,0.5395,0.5395,0.5395,0.5392,0.5385,0.532,0.5142,0.5063,0.4992,0.4769,0.468,0.4638,0.4528,0.4498,0.4491,0.4491,0.4491,0.4491,0.4491,0.4491,0.4494,0.4525,0.4511,0.459,0.4684,0.4448,0.4335,0.4351,0.4278,0.4126,0.4092,0.4058,0.4107,0.4197,0.4197,0.4228,0.4459,0.4592,0.4628,0.4761,0.4827,0.496,0.7065,0.7011,0.7007,0.6974,0.692,0.6959,0.6916,0.6916,0.6959,0.6916,0.6916,0.6916,0.6865,0.6705,0.6702,0.6702,0.6702,0.6702,0.6671,0.661,0.6607,0.6617,0.6519,0.6461,0.6387,0.6413,0.6271,0.6196,0.6169,0.6027,0.5861,0.5732,0.5715,0.561,0.542,0.5566,0.5611,0.5549,0.5949,0.6194,0.6222,0.6471,0.6774,0.7056,0.7305,0.7532,0.7639,0.7705,0.7737,0.7699,0.7773,0.7792,0.7787,0.7872,0.7949,0.8057,0.7749,0.7509,0.728,0.6591,0.621,0.6214,0.5782,0.5528,0.5525,0.545,0.5395,0.5395,0.5395,0.5395,0.5395,0.5395,0.5395,0.5395,0.5395,0.5395,0.5395,0.5395,0.5365,0.5303,0.515,0.5063,0.4924,0.4796,0.4677,0.4621,0.4559,0.4498,0.4491,0.4491,0.4491,0.4491,0.4491,0.4491,0.4491,0.4491,0.4522,0.4506,0.4301,0.4124,0.4219,0.4067,0.3936,0.3919,0.3898,0.3896,0.3987,0.4028,0.4061,0.4261,0.4395,0.4464,0.4625,0.4658,0.4794,0.722,0.7258,0.7179,0.7204,0.72,0.7112,0.7095,0.7095,0.7095,0.7095,0.7095,0.7095,0.698,0.6841,0.682,0.682,0.682,0.682,0.6755,0.6766,0.6766,0.6739,0.6705,0.6702,0.6702,0.6685,0.6583,0.6549,0.6454,0.6271,0.6057,0.5895,0.5864,0.5789,0.5692,0.5818,0.588,0.5889,0.6318,0.6665,0.6908,0.713,0.738,0.7602,0.7753,0.7894,0.8054,0.7965,0.7909,0.7899,0.7753,0.765,0.7636,0.764,0.7707,0.7846,0.7573,0.7407,0.7406,0.6774,0.6412,0.6369,0.5948,0.5647,0.5623,0.5545,0.5463,0.546,0.5419,0.5395,0.5395,0.5395,0.5395,0.5395,0.5395,0.5395,0.5395,0.5395,0.5395,0.5382,0.5264,0.5172,0.5073,0.4887,0.4748,0.4709,0.4624,0.4525,0.4498,0.4491,0.4491,0.4491,0.4491,0.4491,0.4491,0.4491,0.4491,0.4353,0.4172,0.4039,0.4075,0.3866,0.3738,0.3727,0.3692,0.3712,0.3785,0.385,0.4025,0.4097,0.4197,0.4331,0.4461,0.4495,0.4561,0.758,0.7553,0.7424,0.736,0.7353,0.7166,0.7102,0.7112,0.7098,0.7095,0.7095,0.7105,0.7092,0.7071,0.7075,0.7075,0.7068,0.7055,0.6987,0.6926,0.6915,0.6841,0.6705,0.6702,0.6709,0.6736,0.6709,0.662,0.6528,0.6491,0.6305,0.604,0.5986,0.5905,0.5868,0.6028,0.6172,0.6359,0.673,0.7134,0.7609,0.7952,0.8175,0.8225,0.83,0.8384,0.8436,0.8172,0.7946,0.7749,0.7598,0.7513,0.75,0.7518,0.7544,0.7522,0.7354,0.722,0.7174,0.6729,0.6438,0.6355,0.6025,0.5793,0.5786,0.5661,0.5617,0.5614,0.5467,0.5429,0.5426,0.5409,0.5395,0.5395,0.5395,0.5395,0.5395,0.5395,0.5395,0.5395,0.5375,0.5277,0.512,0.4972,0.4863,0.4758,0.4694,0.4658,0.4542,0.4501,0.4491,0.4491,0.4491,0.4491,0.4491,0.4436,0.4384,0.4273,0.4107,0.3941,0.3817,0.3667,0.359,0.3493,0.3433,0.3461,0.3583,0.374,0.3964,0.4123,0.4231,0.4334,0.4364,0.4334,0.44,0.7597,0.7594,0.7543,0.7516,0.7502,0.7353,0.7285,0.7282,0.7136,0.7095,0.7112,0.7244,0.7288,0.7292,0.739,0.7326,0.7109,0.7095,0.7068,0.7024,0.7021,0.6991,0.6947,0.694,0.6937,0.6927,0.6846,0.6766,0.662,0.6522,0.646,0.6318,0.622,0.6173,0.6147,0.6335,0.6546,0.6792,0.7238,0.7759,0.8304,0.8782,0.9141,0.9365,0.8986,0.8812,0.8859,0.8571,0.8305,0.8145,0.7741,0.7522,0.7513,0.7526,0.7547,0.7652,0.752,0.7429,0.7497,0.7068,0.6727,0.6678,0.6219,0.5909,0.5885,0.5813,0.5725,0.5711,0.5681,0.564,0.5638,0.5515,0.5395,0.5395,0.5395,0.5395,0.5395,0.5395,0.5395,0.5395,0.5395,0.5365,0.5264,0.5148,0.5005,0.4965,0.4813,0.4687,0.4644,0.4563,0.4508,0.4494,0.4491,0.4491,0.4491,0.4353,0.4273,0.4162,0.4052,0.3858,0.3688,0.3528,0.3437,0.3273,0.3211,0.3285,0.3429,0.371,0.3939,0.4223,0.4334,0.4367,0.4303,0.4367,0.4431,0.7743,0.7736,0.7685,0.7668,0.7648,0.7506,0.7444,0.7434,0.7333,0.7288,0.7267,0.74,0.7444,0.7458,0.7556,0.7499,0.7257,0.7247,0.7261,0.7217,0.7169,0.7146,0.7102,0.7095,0.7095,0.7082,0.7004,0.6919,0.678,0.6671,0.6613,0.6591,0.6491,0.6483,0.6531,0.669,0.6898,0.7194,0.766,0.8191,0.876,0.9281,0.973,1.0042,0.9675,0.9403,0.9406,0.9043,0.8741,0.8547,0.8009,0.7645,0.752,0.7492,0.7543,0.7658,0.7563,0.7543,0.7621,0.7215,0.6899,0.6857,0.6429,0.6105,0.6091,0.5962,0.5888,0.5871,0.582,0.58,0.5766,0.5655,0.5521,0.5474,0.5423,0.5395,0.5395,0.5395,0.5395,0.5395,0.5395,0.5392,0.5385,0.5267,0.5189,0.511,0.4945,0.4833,0.4758,0.4687,0.4641,0.4641,0.4658,0.4668,0.4601,0.4451,0.421,0.4104,0.3968,0.3771,0.358,0.3413,0.3294,0.3104,0.308,0.315,0.3355,0.3668,0.3995,0.4298,0.4464,0.4567,0.4534,0.4498,0.4564,0.7978,0.7948,0.7872,0.7814,0.7794,0.7662,0.76,0.7597,0.758,0.755,0.7543,0.759,0.76,0.7604,0.7638,0.7614,0.7604,0.76,0.7512,0.7383,0.7405,0.7278,0.7122,0.7102,0.7095,0.7095,0.7092,0.7018,0.6889,0.6892,0.6885,0.6825,0.682,0.6842,0.6903,0.7127,0.7323,0.7601,0.7983,0.8452,0.8976,0.9441,0.9909,1.0393,1.0351,1.0269,1.0119,0.9578,0.9212,0.8947,0.8438,0.7946,0.7605,0.7512,0.7502,0.7528,0.751,0.7518,0.748,0.713,0.6903,0.6822,0.6518,0.6272,0.6248,0.6112,0.6034,0.6017,0.5925,0.5833,0.584,0.5803,0.5728,0.5603,0.5508,0.5426,0.5412,0.5399,0.5395,0.5395,0.5395,0.5395,0.5395,0.5375,0.5317,0.5186,0.5076,0.5005,0.4931,0.4874,0.4894,0.4887,0.4843,0.4802,0.4687,0.4525,0.4269,0.4048,0.3872,0.3688,0.3524,0.3357,0.3274,0.3126,0.3187,0.3263,0.3638,0.3927,0.4204,0.4462,0.4623,0.4731,0.4697,0.4664,0.4731,0.7988,0.7985,0.7941,0.7921,0.795,0.7807,0.7743,0.7733,0.7645,0.76,0.7617,0.7702,0.7743,0.777,0.7803,0.785,0.7853,0.7896,0.777,0.755,0.7473,0.7353,0.7288,0.719,0.7095,0.7095,0.7095,0.7075,0.7061,0.7102,0.7162,0.716,0.7173,0.7325,0.7521,0.7618,0.7807,0.8316,0.8734,0.922,0.9806,1.0315,1.0754,1.1052,1.1192,1.1198,1.0973,1.0119,0.9608,0.942,0.8835,0.8263,0.7821,0.7561,0.7518,0.7518,0.7518,0.7518,0.7442,0.7134,0.6903,0.6826,0.6525,0.6335,0.63,0.6217,0.6183,0.6183,0.6142,0.6156,0.6101,0.6017,0.5901,0.5749,0.561,0.5515,0.5494,0.546,0.5402,0.5395,0.5395,0.5395,0.5395,0.5395,0.5371,0.532,0.5203,0.5076,0.5036,0.4996,0.4921,0.4918,0.4918,0.4958,0.486,0.4708,0.4422,0.4172,0.3929,0.3677,0.3474,0.3357,0.3246,0.3254,0.3316,0.35,0.3856,0.4156,0.4426,0.4608,0.4776,0.4797,0.4794,0.4827,0.493,0.7988,0.7988,0.7988,0.7988,0.7982,0.7884,0.7896,0.7885,0.7756,0.7763,0.7787,0.7855,0.7847,0.7916,0.7951,0.7985,0.7988,0.7988,0.7891,0.776,0.7607,0.7485,0.7415,0.7166,0.7095,0.7095,0.7095,0.7095,0.7136,0.7273,0.7368,0.7421,0.7632,0.7871,0.8104,0.8228,0.8553,0.9058,0.939,0.9771,1.0288,1.085,1.1223,1.1477,1.1626,1.1632,1.1465,1.0691,1.0131,0.9777,0.9122,0.8441,0.7949,0.7718,0.7599,0.7599,0.7561,0.7518,0.748,0.713,0.6903,0.6826,0.6525,0.63,0.63,0.63,0.63,0.63,0.6289,0.63,0.6279,0.6218,0.6071,0.6023,0.5789,0.5657,0.5596,0.5542,0.5453,0.5423,0.5395,0.5395,0.5395,0.5395,0.5395,0.5378,0.5277,0.5216,0.5199,0.5145,0.5098,0.5077,0.5114,0.5128,0.5098,0.4884,0.4596,0.4327,0.4068,0.3752,0.3459,0.3393,0.333,0.3413,0.3492,0.3745,0.4098,0.4339,0.4603,0.4753,0.496,0.5063,0.5093,0.5093,0.513,0.7988,0.7988,0.7988,0.7988,0.7988,0.7978,0.7971,0.7982,0.7971,0.7958,0.7968,0.7961,0.7975,0.7982,0.7985,0.7988,0.7988,0.7988,0.7982,0.7924,0.7855,0.7665,0.7429,0.7238,0.7125,0.7098,0.7095,0.7095,0.7095,0.7394,0.7559,0.7686,0.8138,0.851,0.8749,0.8961,0.927,0.9639,0.9898,1.0219,1.0556,1.0968,1.1335,1.17,1.1744,1.1744,1.1663,1.1236,1.0714,1.0137,0.9198,0.8518,0.8174,0.7953,0.7838,0.7799,0.7638,0.7561,0.7442,0.7173,0.6942,0.6907,0.6641,0.6338,0.6374,0.6374,0.6335,0.6335,0.63,0.63,0.63,0.6282,0.6269,0.6255,0.5979,0.5776,0.563,0.5603,0.5579,0.546,0.5412,0.5402,0.5405,0.5395,0.5395,0.5392,0.5378,0.5365,0.5361,0.533,0.5375,0.5354,0.5306,0.5293,0.522,0.5061,0.4795,0.459,0.433,0.4045,0.3709,0.362,0.3538,0.3644,0.3772,0.403,0.4287,0.4564,0.4825,0.5029,0.5223,0.5359,0.5362,0.5296,0.5263,0.7988,0.7988,0.7988,0.7988,0.7988,0.7988,0.7988,0.7988,0.7988,0.7988,0.7988,0.7988,0.7988,0.7988,0.7988,0.7988,0.7988,0.7988,0.7988,0.7985,0.7955,0.7743,0.7438,0.7329,0.7248,0.7119,0.7102,0.7095,0.7139,0.7544,0.7866,0.8047,0.868,0.912,0.9368,0.9742,0.9994,1.0197,1.0639,1.0836,1.0992,1.1484,1.1781,1.1898,1.204,1.204,1.1892,1.1378,1.0738,0.9992,0.916,0.8665,0.8556,0.8255,0.8063,0.8025,0.7838,0.7718,0.7642,0.7373,0.7142,0.7103,0.6834,0.6749,0.671,0.6602,0.6525,0.6486,0.6374,0.63,0.63,0.63,0.63,0.6279,0.6081,0.5908,0.5786,0.5742,0.5688,0.5562,0.5532,0.5518,0.544,0.5409,0.5402,0.5399,0.5395,0.5395,0.5395,0.5395,0.5395,0.5395,0.5368,0.5378,0.5338,0.5183,0.499,0.4855,0.4643,0.4454,0.4225,0.4098,0.3972,0.3918,0.4127,0.436,0.4569,0.4804,0.5047,0.5262,0.5322,0.5395,0.5395,0.5362,0.5362,0.7988,0.7988,0.7988,0.7988,0.7988,0.7988,0.7988,0.7988,0.7988,0.7988,0.7988,0.7988,0.7988,0.7988,0.7988,0.7988,0.7988,0.7988,0.7988,0.7988,0.7985,0.7803,0.7594,0.7455,0.7322,0.7241,0.717,0.7143,0.7319,0.768,0.8028,0.8412,0.9078,0.9625,1.0028,1.0385,1.0776,1.1101,1.1296,1.1393,1.1564,1.1838,1.1966,1.2046,1.2187,1.2187,1.1855,1.1372,1.0775,1.0067,0.9501,0.9122,0.8932,0.8665,0.8475,0.8475,0.8217,0.803,0.7876,0.7565,0.7296,0.718,0.7022,0.6903,0.6865,0.6788,0.6714,0.6602,0.649,0.6416,0.63,0.63,0.63,0.6289,0.6179,0.6061,0.5915,0.5861,0.5827,0.5732,0.5674,0.5658,0.5481,0.5491,0.5453,0.5416,0.5395,0.5395,0.5395,0.5395,0.5395,0.5395,0.5395,0.5395,0.5395,0.5276,0.5236,0.5075,0.5003,0.482,0.46,0.4469,0.4355,0.431,0.448,0.464,0.4832,0.498,0.5118,0.5291,0.5365,0.5395,0.5395,0.5395,0.5395,0.7988,0.7988,0.7988,0.7988,0.7988,0.7988,0.7988,0.7988,0.7988,0.7988,0.7988,0.7988,0.7988,0.7988,0.7988,0.7988,0.7988,0.7988,0.7988,0.7988,0.7982,0.7891,0.7807,0.7573,0.7497,0.738,0.7238,0.7324,0.7539,0.779,0.8204,0.8767,0.9379,1.0033,1.0618,1.0995,1.1558,1.1934,1.1851,1.1893,1.2063,1.2084,1.2053,1.2077,1.2194,1.2114,1.1781,1.1372,1.0931,1.0325,1.0073,0.9733,0.9435,0.9198,0.9079,0.9003,0.8708,0.8441,0.8178,0.7829,0.7488,0.7334,0.7099,0.6942,0.698,0.698,0.6868,0.6679,0.6641,0.649,0.6338,0.63,0.63,0.6296,0.6289,0.6228,0.6095,0.6013,0.5956,0.5854,0.5827,0.5755,0.5664,0.5599,0.5559,0.5494,0.546,0.5443,0.5423,0.5395,0.5395,0.5395,0.5395,0.5395,0.5395,0.5392,0.5355,0.5325,0.5278,0.5156,0.4893,0.4752,0.4697,0.4695,0.4749,0.486,0.4994,0.5127,0.5237,0.532,0.5385,0.5395,0.5395,0.5395,0.5395,0.7988,0.7988,0.7988,0.7988,0.7988,0.7988,0.7988,0.7988,0.7988,0.7988,0.7988,0.7988,0.7988,0.7988,0.7988,0.7988,0.7988,0.7988,0.7988,0.7988,0.7988,0.7978,0.7904,0.7784,0.7658,0.7543,0.7394,0.7455,0.7701,0.8045,0.8508,0.9165,0.9898,1.0636,1.1133,1.1818,1.2253,1.2348,1.2481,1.2498,1.2421,1.2311,1.2251,1.2231,1.2268,1.2194,1.1966,1.1706,1.1372,1.0925,1.0475,1.0148,0.996,0.9765,0.9609,0.9468,0.9241,0.8937,0.8589,0.8212,0.7876,0.7684,0.745,0.7365,0.7369,0.7215,0.7061,0.683,0.6676,0.6525,0.6335,0.63,0.63,0.63,0.6296,0.6286,0.6255,0.6242,0.6129,0.6027,0.5939,0.5925,0.5779,0.5759,0.5688,0.5607,0.5545,0.5511,0.5463,0.5416,0.5395,0.5395,0.5395,0.5395,0.5395,0.5395,0.5395,0.5395,0.5395,0.5388,0.5119,0.5008,0.4955,0.495,0.4957,0.5059,0.5143,0.524,0.5354,0.5382,0.5395,0.5395,0.5395,0.5395,0.5395,0.7988,0.7988,0.7988,0.7988,0.7988,0.7988,0.7988,0.7988,0.7988,0.7988,0.7988,0.7988,0.7988,0.7988,0.7988,0.7988,0.7988,0.7988,0.7988,0.7988,0.7988,0.7988,0.7982,0.7957,0.7841,0.7689,0.7603,0.7699,0.7918,0.8253,0.8723,0.9432,1.0246,1.0852,1.1499,1.2314,1.2675,1.2828,1.2984,1.2994,1.2824,1.2634,1.2449,1.2331,1.2305,1.2231,1.2009,1.1892,1.1639,1.1267,1.0925,1.0594,1.0368,1.0255,1.0143,0.9992,0.9733,0.9468,0.9122,0.867,0.825,0.8,0.7761,0.7599,0.7522,0.7373,0.7215,0.698,0.6788,0.6637,0.6335,0.63,0.63,0.63,0.63,0.63,0.63,0.63,0.6276,0.6156,0.6139,0.6054,0.5973,0.5918,0.583,0.5718,0.5624,0.5583,0.5494,0.5477,0.5409,0.5395,0.5395,0.5395,0.5395,0.5395,0.5395,0.5395,0.5395,0.5395,0.5304,0.5257,0.522,0.5189,0.5165,0.5206,0.5284,0.5378,0.5395,0.5395,0.5395,0.5395,0.5399,0.5409,0.5405,0.7988,0.7988,0.7988,0.7988,0.7988,0.7988,0.7988,0.7988,0.7988,0.7988,0.7988,0.7988,0.7988,0.7988,0.7988,0.7988,0.7988,0.7988,0.7988,0.7988,0.7988,0.7988,0.7985,0.7961,0.7911,0.7818,0.7743,0.7844,0.8151,0.8488,0.8995,0.9646,1.0381,1.1154,1.1806,1.2491,1.3033,1.3315,1.3328,1.3258,1.3134,1.2911,1.2623,1.2351,1.2305,1.2231,1.2083,1.2003,1.1818,1.1484,1.1409,1.1111,1.0775,1.0588,1.0594,1.0562,1.0268,1.0013,0.9691,0.9236,0.8763,0.8344,0.8013,0.7862,0.7715,0.7581,0.7387,0.7149,0.6958,0.6695,0.6369,0.6306,0.6303,0.63,0.63,0.63,0.63,0.63,0.6289,0.6289,0.622,0.6156,0.6108,0.6061,0.5962,0.5861,0.5735,0.563,0.5583,0.5518,0.5491,0.5426,0.5426,0.5399,0.5395,0.5395,0.5395,0.5399,0.5399,0.5409,0.5405,0.5361,0.5327,0.5354,0.5358,0.5378,0.5375,0.5385,0.5395,0.5395,0.5405,0.5416,0.5423,0.5426,0.545,0.7988,0.7988,0.7988,0.7988,0.7988,0.7988,0.7988,0.7988,0.7988,0.7988,0.7988,0.7988,0.7988,0.7988,0.7988,0.7988,0.7988,0.7988,0.7988,0.7988,0.7988,0.7988,0.7988,0.7988,0.7965,0.7933,0.7933,0.8052,0.8302,0.8645,0.927,0.9951,1.0766,1.1542,1.2235,1.2918,1.3349,1.3584,1.3572,1.3473,1.322,1.2958,1.267,1.2371,1.2331,1.2268,1.2224,1.2077,1.1892,1.1669,1.149,1.1267,1.1037,1.0962,1.0887,1.0816,1.0821,1.0638,1.023,0.9934,0.9592,0.9188,0.8626,0.8316,0.8169,0.7925,0.7653,0.7419,0.7097,0.6719,0.6513,0.6388,0.6317,0.6306,0.63,0.63,0.63,0.63,0.63,0.63,0.6296,0.6293,0.6242,0.6162,0.6101,0.6013,0.5915,0.5817,0.5755,0.5664,0.5569,0.5498,0.547,0.5429,0.5395,0.5395,0.5395,0.5402,0.5412,0.5436,0.5429,0.5402,0.5399,0.5474,0.5463,0.5433,0.5423,0.5436,0.5453,0.5501,0.5477,0.5453,0.5518,0.5552,0.5603,0.7988,0.7988,0.7988,0.7988,0.7988,0.7988,0.7988,0.7988,0.7988,0.7988,0.7988,0.7988,0.7988,0.7988,0.7988,0.7988,0.7988,0.7988,0.7988,0.7988,0.7988,0.7988,0.7988,0.7988,0.8088,0.815,0.8177,0.8243,0.8486,0.8991,0.962,1.0337,1.1111,1.1843,1.2491,1.3094,1.3483,1.3656,1.3761,1.3686,1.3367,1.3045,1.271,1.2589,1.2392,1.2311,1.2268,1.2224,1.2003,1.1744,1.1632,1.1372,1.1186,1.1086,1.1043,1.0984,1.1121,1.1113,1.079,1.0527,1.0161,0.972,0.9096,0.8645,0.8382,0.8073,0.7825,0.7525,0.7282,0.6875,0.6627,0.6497,0.6426,0.6395,0.6358,0.6317,0.6303,0.6303,0.6303,0.6303,0.6296,0.6296,0.6296,0.6265,0.6213,0.6156,0.6081,0.6006,0.5925,0.581,0.5691,0.5583,0.5511,0.5494,0.5463,0.5467,0.547,0.5467,0.5481,0.5504,0.5535,0.5545,0.5559,0.5627,0.5579,0.5556,0.5607,0.563,0.5638,0.5614,0.5634,0.5623,0.5667,0.5718,0.5762,0.7988,0.7988,0.7988,0.7988,0.7988,0.7988,0.7988,0.7988,0.7988,0.7988,0.7988,0.7988,0.7988,0.7988,0.7988,0.7988,0.7988,0.7988,0.7988,0.7988,0.7988,0.7988,0.7988,0.8088,0.8184,0.8336,0.8501,0.8524,0.8737,0.9263,0.9931,1.0593,1.1327,1.2106,1.2747,1.3264,1.3525,1.3786,1.399,1.3935,1.3581,1.314,1.2878,1.2871,1.2643,1.2492,1.2445,1.2432,1.2142,1.1843,1.1669,1.1521,1.1198,1.1128,1.1152,1.12,1.1269,1.136,1.1328,1.1081,1.076,1.0347,0.9598,0.9096,0.8693,0.838,0.7967,0.7507,0.7326,0.7076,0.6809,0.6607,0.6576,0.6542,0.6467,0.6385,0.6368,0.6358,0.6334,0.6327,0.6306,0.63,0.63,0.6296,0.6276,0.6269,0.6156,0.6142,0.6057,0.5939,0.5813,0.5677,0.5624,0.5569,0.5552,0.5573,0.5586,0.56,0.5593,0.5627,0.5664,0.5698,0.5752,0.5796,0.5779,0.5742,0.5803,0.5806,0.5735,0.5715,0.5772,0.5817,0.5837,0.5861,0.5898,0.7988,0.7988,0.7988,0.7988,0.7988,0.7988,0.7988,0.7988,0.7988,0.7988,0.7988,0.7988,0.7988,0.7988,0.7988,0.7988,0.7988,0.7988,0.7988,0.7988,0.7988,0.7988,0.8038,0.8237,0.8382,0.8526,0.8787,0.8925,0.9141,0.9531,0.9999,1.0722,1.1585,1.232,1.3009,1.3434,1.3779,1.4004,1.4088,1.3948,1.3626,1.3333,1.318,1.314,1.3066,1.2926,1.277,1.2692,1.2461,1.1864,1.1745,1.1533,1.1216,1.1315,1.1417,1.1519,1.1688,1.1888,1.1998,1.1748,1.1415,1.0974,1.0328,0.9818,0.9259,0.8772,0.8252,0.7623,0.753,0.7318,0.696,0.6763,0.6695,0.6661,0.662,0.6536,0.6485,0.6426,0.6402,0.6351,0.6334,0.631,0.63,0.63,0.6296,0.6293,0.6282,0.6265,0.6173,0.604,0.5945,0.5813,0.5701,0.5647,0.5623,0.5675,0.5692,0.5719,0.5739,0.5779,0.5813,0.5854,0.5908,0.5935,0.5932,0.5918,0.5922,0.5895,0.583,0.5854,0.5918,0.5959,0.5949,0.5976,0.6037,0.784,0.7988,0.7988,0.7988,0.7988,0.7988,0.7988,0.7988,0.7988,0.7988,0.7988,0.7988,0.7988,0.8024,0.7988,0.7988,0.7988,0.7982,0.7988,0.7988,0.7988,0.7988,0.8038,0.8287,0.8482,0.8849,0.9013,0.9427,0.971,1.0098,1.0506,1.1241,1.1972,1.2662,1.3222,1.3561,1.3822,1.3997,1.4075,1.4021,1.3848,1.3627,1.342,1.3413,1.3313,1.316,1.3053,1.3006,1.2765,1.2312,1.2196,1.2003,1.1711,1.1703,1.1805,1.2194,1.2118,1.2198,1.223,1.2143,1.1901,1.1456,1.0766,1.0014,0.9388,0.8951,0.8496,0.7842,0.7788,0.7523,0.7104,0.6912,0.6861,0.682,0.678,0.6702,0.661,0.6545,0.6474,0.6412,0.6358,0.6344,0.632,0.6303,0.63,0.6296,0.6293,0.6282,0.619,0.6095,0.6017,0.5915,0.585,0.5766,0.5752,0.5752,0.5759,0.5793,0.5891,0.5928,0.5959,0.6,0.6051,0.6101,0.6122,0.6136,0.6088,0.6081,0.604,0.6088,0.6105,0.6091,0.6115,0.6156,0.6179,0.7917,0.807,0.7929,0.788,0.7929,0.7929,0.7874,0.7877,0.7919,0.7874,0.7929,0.7916,0.8014,0.8021,0.801,0.8014,0.8076,0.7984,0.7965,0.7975,0.7988,0.8041,0.8187,0.8432,0.8783,0.9324,0.9354,0.9799,1.0438,1.0849,1.1198,1.18,1.2406,1.3009,1.3398,1.3695,1.3955,1.4082,1.4088,1.4075,1.4021,1.3861,1.3774,1.3694,1.3561,1.3353,1.3287,1.3234,1.3027,1.2652,1.2428,1.2205,1.1912,1.1956,1.2118,1.2404,1.2419,1.2415,1.2439,1.2348,1.2169,1.1671,1.0939,1.0077,0.9345,0.8995,0.8644,0.7921,0.7881,0.7617,0.7251,0.6987,0.6957,0.6906,0.6856,0.6824,0.6753,0.6671,0.6583,0.6515,0.6491,0.6399,0.6368,0.6323,0.6306,0.63,0.63,0.63,0.6248,0.6139,0.6118,0.6074,0.604,0.5969,0.5959,0.5935,0.5915,0.5911,0.601,0.6067,0.6091,0.6132,0.6221,0.6272,0.63,0.6265,0.619,0.6248,0.6293,0.6242,0.6207,0.6248,0.6282,0.6323,0.6385,0.8258,0.8229,0.7813,0.7685,0.7695,0.7628,0.7638,0.7716,0.7695,0.7706,0.7767,0.783,0.8088,0.8168,0.8065,0.8071,0.8174,0.7928,0.7955,0.7987,0.8038,0.8127,0.8375,0.8676,0.9057,0.9547,0.9819,1.0394,1.105,1.1454,1.171,1.2057,1.2747,1.3222,1.361,1.387,1.3997,1.4088,1.4088,1.4088,1.4088,1.4035,1.4021,1.4021,1.3995,1.3901,1.3593,1.3403,1.3127,1.2692,1.2531,1.2317,1.2136,1.2204,1.2372,1.2432,1.2572,1.2596,1.2602,1.2486,1.2266,1.1768,1.1035,1.0207,0.9515,0.9082,0.86,0.8032,0.79,0.7628,0.7272,0.7082,0.7048,0.7024,0.6974,0.694,0.6879,0.6829,0.678,0.6681,0.6583,0.6518,0.6433,0.6392,0.6323,0.631,0.63,0.63,0.63,0.6252,0.6262,0.621,0.6255,0.6238,0.6245,0.6211,0.6139,0.6126,0.6146,0.619,0.6252,0.63,0.63,0.63,0.63,0.63,0.63,0.63,0.63,0.63,0.631,0.6361,0.6416,0.6463,0.6512,0.8305,0.844,0.8305,0.8158,0.8013,0.8013,0.8016,0.8013,0.8059,0.8016,0.8052,0.8149,0.8196,0.8239,0.82,0.8182,0.8197,0.8011,0.8017,0.8056,0.8154,0.8252,0.8534,0.8992,0.9518,0.9908,1.037,1.0892,1.147,1.1876,1.233,1.2711,1.3094,1.3349,1.3695,1.3955,1.4082,1.4088,1.4088,1.4088,1.4088,1.4088,1.4088,1.4088,1.4088,1.3957,1.3671,1.3574,1.3294,1.2968,1.2758,1.2527,1.2307,1.2439,1.2476,1.2488,1.2614,1.2644,1.2662,1.2583,1.2363,1.1811,1.1117,1.0419,0.9728,0.9301,0.8736,0.8252,0.79,0.7676,0.7228,0.7095,0.7085,0.7095,0.7082,0.7051,0.7014,0.6953,0.6903,0.6834,0.6702,0.658,0.6542,0.6467,0.6388,0.6323,0.631,0.63,0.63,0.63,0.63,0.63,0.63,0.63,0.63,0.63,0.63,0.63,0.63,0.63,0.63,0.63,0.63,0.63,0.63,0.63,0.63,0.63,0.63,0.63,0.6381,0.6447,0.6502,0.6566,0.6654,0.8723,0.8899,0.8986,0.8779,0.841,0.8371,0.8325,0.8283,0.8276,0.8329,0.8371,0.8467,0.8513,0.8559,0.8413,0.8409,0.8344,0.8141,0.8095,0.8175,0.8247,0.8394,0.8698,0.9146,0.96,1.0184,1.0672,1.1151,1.1759,1.2238,1.2692,1.3094,1.3398,1.361,1.3828,1.3997,1.4088,1.4088,1.4088,1.4088,1.4088,1.4088,1.4088,1.4088,1.4039,1.3864,1.3669,1.3522,1.3275,1.3002,1.2832,1.2729,1.2571,1.2497,1.2497,1.2497,1.2497,1.2497,1.2497,1.2454,1.2283,1.186,1.1208,1.0511,0.9907,0.9437,0.8863,0.8076,0.79,0.768,0.7194,0.7095,0.7095,0.7095,0.7095,0.7075,0.7061,0.7018,0.6991,0.6933,0.6848,0.6729,0.6637,0.6552,0.6429,0.6351,0.6306,0.63,0.63,0.63,0.63,0.63,0.63,0.63,0.63,0.63,0.63,0.63,0.63,0.63,0.63,0.63,0.63,0.63,0.63,0.63,0.63,0.63,0.63,0.63,0.6419,0.6522,0.6688,0.6756,0.6803,0.9545,0.9602,0.984,0.9414,0.8752,0.8612,0.8496,0.8396,0.8344,0.8476,0.8665,0.8838,0.901,0.9103,0.8827,0.8718,0.8627,0.8288,0.8191,0.8264,0.8348,0.8593,0.8863,0.9212,0.9784,1.0408,1.0909,1.1468,1.2054,1.2524,1.2979,1.3349,1.361,1.3822,1.4039,1.4082,1.4088,1.4088,1.4088,1.4088,1.4088,1.4088,1.4088,1.3997,1.3864,1.3737,1.3483,1.3264,1.3009,1.2711,1.254,1.2375,1.2166,1.2123,1.2123,1.208,1.208,1.208,1.2037,1.2037,1.1995,1.1823,1.1208,1.0531,1.0009,0.9538,0.8926,0.8139,0.7975,0.7675,0.734,0.7109,0.7122,0.7095,0.7095,0.7092,0.7078,0.7071,0.7041,0.7024,0.6953,0.6859,0.6803,0.6678,0.6511,0.6392,0.6323,0.63,0.6303,0.63,0.63,0.63,0.63,0.63,0.63,0.63,0.63,0.63,0.63,0.63,0.63,0.63,0.63,0.63,0.63,0.63,0.63,0.6303,0.6358,0.6426,0.6468,0.6607,0.6751,0.6889,0.6916,1.0001,0.9998,1.0248,1.024,1.0084,0.9673,0.9384,0.9165,0.9122,0.9161,0.9292,0.9515,0.9559,0.9471,0.934,0.9117,0.8814,0.8601,0.8466,0.839,0.841,0.8679,0.8993,0.9549,1.0113,1.0744,1.1297,1.1839,1.2486,1.2906,1.3234,1.3568,1.3828,1.4004,1.4088,1.4088,1.4088,1.4088,1.4088,1.4088,1.4088,1.4082,1.3997,1.3864,1.3737,1.3476,1.3137,1.2924,1.2625,1.2283,1.2112,1.2032,1.1957,1.1957,1.1957,1.1957,1.1995,1.2,1.1957,1.1914,1.1834,1.1581,1.124,1.0644,1.0175,0.9674,0.9017,0.8401,0.8174,0.7825,0.7462,0.7347,0.7278,0.7119,0.7095,0.7095,0.7088,0.7088,0.7078,0.7075,0.7031,0.6957,0.6866,0.6803,0.6617,0.6528,0.6427,0.6358,0.6327,0.631,0.6303,0.63,0.63,0.63,0.63,0.63,0.63,0.63,0.63,0.63,0.63,0.63,0.63,0.63,0.63,0.63,0.632,0.6361,0.6491,0.6542,0.6637,0.6759,0.6903,0.7004,0.7031,1.0357,1.0476,1.0668,1.0835,1.0921,1.0434,1.0048,0.985,0.982,0.9859,0.9907,1.0125,1.0168,0.999,0.9772,0.9646,0.9262,0.8867,0.8668,0.8596,0.86,0.8882,0.936,0.9908,1.0468,1.1105,1.1729,1.2337,1.2649,1.3228,1.361,1.3828,1.4004,1.4088,1.4088,1.4088,1.4088,1.4088,1.4088,1.4088,1.4088,1.4004,1.3864,1.3695,1.344,1.313,1.2747,1.2448,1.2192,1.1854,1.1688,1.1645,1.165,1.1656,1.1699,1.1736,1.165,1.1651,1.1587,1.1532,1.1449,1.1496,1.117,1.0746,1.0274,0.9826,0.9146,0.861,0.8395,0.7966,0.761,0.7491,0.735,0.7234,0.7125,0.7129,0.7105,0.7109,0.7095,0.7095,0.7088,0.7021,0.6964,0.6856,0.677,0.6671,0.658,0.6464,0.6395,0.6378,0.6351,0.632,0.631,0.6306,0.6303,0.63,0.63,0.63,0.63,0.63,0.63,0.63,0.63,0.63,0.63,0.631,0.6351,0.6426,0.6539,0.6698,0.6841,0.6973,0.7075,0.7095,0.7095,1.0737,1.0933,1.1135,1.1204,1.1139,1.0864,1.0541,1.0336,1.0336,1.0283,1.0341,1.0565,1.0626,1.0542,1.0216,0.9956,0.9758,0.9196,0.9012,0.8888,0.883,0.9191,0.9578,1.0105,1.0688,1.1337,1.2006,1.2562,1.279,1.3434,1.387,1.3997,1.4088,1.4088,1.4088,1.4088,1.4088,1.4088,1.4088,1.4088,1.4088,1.3864,1.3695,1.3483,1.3137,1.2747,1.24,1.2015,1.1628,1.1327,1.1111,1.1035,1.1003,1.1008,1.1138,1.1176,1.1094,1.111,1.1086,1.1068,1.1061,1.1151,1.1036,1.0671,1.0329,0.9943,0.9337,0.8753,0.8412,0.8033,0.7698,0.7566,0.748,0.7333,0.7241,0.721,0.7132,0.7115,0.7102,0.7095,0.7095,0.7061,0.7045,0.6957,0.6873,0.6846,0.6797,0.6692,0.6586,0.6491,0.648,0.6361,0.6344,0.632,0.6313,0.6313,0.63,0.63,0.63,0.63,0.63,0.63,0.63,0.63,0.63,0.6327,0.6392,0.6525,0.6654,0.6814,0.691,0.6997,0.7095,0.7095,0.7095,1.0907,1.1042,1.1264,1.1532,1.1823,1.176,1.1386,1.0785,1.0749,1.0749,1.0749,1.0955,1.0921,1.0641,1.0621,1.0266,0.9871,0.952,0.9331,0.917,0.903,0.9388,0.982,1.0337,1.0939,1.1585,1.2272,1.2833,1.3222,1.3743,1.3997,1.4088,1.4088,1.4088,1.4088,1.4088,1.4088,1.4088,1.4088,1.4088,1.3997,1.3822,1.3568,1.3222,1.2833,1.24,1.1794,1.1537,1.1111,1.0679,1.0727,1.0689,1.0516,1.0646,1.0868,1.0883,1.0904,1.0934,1.0771,1.0854,1.0847,1.074,1.0627,1.0547,1.0315,1.0005,0.9567,0.8968,0.8557,0.8293,0.7897,0.7716,0.7587,0.7499,0.7397,0.7312,0.7272,0.7166,0.7146,0.7095,0.7095,0.7092,0.7078,0.7065,0.6994,0.7007,0.697,0.6905,0.6803,0.6702,0.6576,0.6491,0.6446,0.6443,0.6358,0.6337,0.6313,0.63,0.6317,0.632,0.63,0.63,0.63,0.6313,0.6337,0.6392,0.6457,0.6573,0.6753,0.6875,0.6964,0.7038,0.7095,0.7095,0.7095,1.0927,1.1192,1.1335,1.1627,1.191,1.1953,1.1678,1.1284,1.1266,1.1272,1.1272,1.1289,1.1192,1.0994,1.083,1.044,0.9915,0.9672,0.947,0.9273,0.9174,0.9641,1.0077,1.0636,1.1284,1.1972,1.2577,1.3179,1.3568,1.387,1.4088,1.4088,1.4088,1.4088,1.4088,1.4088,1.4088,1.4088,1.4088,1.4046,1.387,1.3701,1.3349,1.2924,1.2571,1.1886,1.1241,1.1025,1.0511,1.0081,1.0168,1.0125,1.0038,1.025,1.0299,1.0333,1.0401,1.0381,1.0318,1.0459,1.0457,1.0464,1.0378,1.0334,1.0233,1.0004,0.951,0.8958,0.878,0.8583,0.8161,0.7841,0.7763,0.7689,0.7563,0.7441,0.7363,0.7285,0.7224,0.7112,0.7095,0.7095,0.7095,0.7095,0.7092,0.7071,0.7058,0.7018,0.692,0.6868,0.6732,0.6593,0.6563,0.6546,0.6454,0.6426,0.6433,0.6429,0.6409,0.6395,0.634,0.632,0.6344,0.6368,0.6395,0.6474,0.6579,0.6685,0.6844,0.6913,0.6994,0.7058,0.7095,0.7095,0.7095,1.0818,1.1409,1.1446,1.1601,1.1744,1.1819,1.1751,1.1764,1.1768,1.179,1.1732,1.1557,1.1431,1.1192,1.0884,1.0525,1.0065,0.9766,0.9494,0.9301,0.9375,0.9746,1.0317,1.0971,1.1499,1.232,1.2966,1.344,1.3737,1.3955,1.4088,1.4088,1.4088,1.4088,1.4088,1.4088,1.4088,1.4004,1.3962,1.3913,1.3701,1.3483,1.3137,1.2619,1.2057,1.1413,1.0895,1.0381,0.9868,0.9607,0.9476,0.9476,0.9646,0.9777,0.9781,0.9853,0.9966,0.9962,0.9994,1.0087,1.0197,1.0232,1.0306,1.0087,0.9919,0.9915,0.9452,0.8958,0.8718,0.8474,0.8118,0.7926,0.7865,0.7801,0.7709,0.7607,0.7526,0.7421,0.7292,0.7221,0.7115,0.7112,0.7095,0.7095,0.7095,0.7095,0.7092,0.7085,0.7045,0.6953,0.6885,0.6742,0.6722,0.6695,0.6627,0.6569,0.6563,0.6546,0.6549,0.6511,0.648,0.6439,0.6356,0.6463,0.6538,0.6624,0.6688,0.681,0.6859,0.6987,0.7018,0.7075,0.7095,0.7095,0.7095,1.07,1.144,1.1892,1.212,1.215,1.2157,1.2144,1.2164,1.2177,1.1985,1.1721,1.1538,1.1367,1.123,1.0935,1.056,1.0055,0.9781,0.9507,0.9349,0.941,0.9752,1.0306,1.0915,1.1552,1.2198,1.2887,1.361,1.387,1.4039,1.4088,1.4088,1.4088,1.4088,1.4088,1.4088,1.3997,1.387,1.3737,1.3695,1.3525,1.3088,1.2656,1.2186,1.1628,1.0982,1.0467,1.0081,0.9467,0.903,0.9213,0.9301,0.9388,0.9437,0.9473,0.9571,0.9616,0.9655,0.9677,0.9751,0.9845,0.9788,0.9772,0.9628,0.9525,0.9628,0.9476,0.8973,0.8577,0.8333,0.8127,0.7994,0.7911,0.7857,0.7803,0.777,0.7689,0.7533,0.7377,0.7295,0.7169,0.7132,0.7115,0.7098,0.7095,0.7095,0.7095,0.7092,0.7092,0.7034,0.7014,0.6905,0.6881,0.6844,0.6787,0.6749,0.6736,0.6698,0.6654,0.6617,0.662,0.6549,0.6522,0.659,0.6664,0.6742,0.6807,0.6829,0.6916,0.6994,0.7034,0.7085,0.7095,0.7095,0.7095,1.0291,1.0984,1.1595,1.1839,1.1911,1.1875,1.1911,1.1911,1.1911,1.1768,1.1618,1.161,1.1552,1.1285,1.1021,1.0582,1.0037,0.9726,0.9527,0.9378,0.9343,0.9686,1.0215,1.0763,1.1424,1.2083,1.3014,1.3695,1.3913,1.4046,1.4088,1.4088,1.4088,1.4088,1.4088,1.3997,1.3864,1.3688,1.3434,1.3215,1.3179,1.2705,1.2229,1.1757,1.1111,1.0467,0.999,0.9602,0.903,0.8592,0.8596,0.8633,0.8658,0.8739,0.8824,0.8934,0.91,0.925,0.928,0.9352,0.9418,0.9327,0.9229,0.9126,0.9076,0.9126,0.8981,0.8531,0.8528,0.8283,0.8088,0.7961,0.7961,0.7924,0.7894,0.7889,0.7767,0.7614,0.7519,0.7468,0.7377,0.7282,0.7248,0.7122,0.7115,0.7095,0.7095,0.7095,0.7095,0.7095,0.7038,0.7044,0.7007,0.7007,0.698,0.6936,0.6902,0.6858,0.68,0.6742,0.6695,0.6692,0.6698,0.6763,0.682,0.6839,0.6903,0.694,0.6984,0.7051,0.7075,0.7095,0.7095,0.7098,0.7105,0.9822,1.0478,1.1002,1.1299,1.1395,1.1436,1.1456,1.145,1.1443,1.145,1.1454,1.1749,1.1799,1.1458,1.1057,1.0579,1.0132,0.9741,0.9506,0.9276,0.924,0.9514,0.9902,1.0445,1.1225,1.2028,1.2956,1.3448,1.3737,1.3906,1.3997,1.4088,1.4082,1.4082,1.3997,1.3822,1.3652,1.3349,1.3045,1.2577,1.2406,1.2229,1.1757,1.1203,1.0598,1.0033,0.9467,0.9016,0.8536,0.8222,0.8079,0.8215,0.8272,0.8364,0.8421,0.8547,0.8708,0.8764,0.8754,0.8898,0.8905,0.8825,0.8775,0.8775,0.8726,0.8627,0.8482,0.8386,0.8333,0.8283,0.8088,0.7988,0.7988,0.7985,0.7961,0.7994,0.7851,0.7712,0.7665,0.7621,0.7526,0.7467,0.7346,0.7213,0.7156,0.7132,0.7105,0.7098,0.7095,0.7095,0.7071,0.7055,0.7041,0.7051,0.7068,0.7075,0.7014,0.7,0.6896,0.6868,0.6824,0.6858,0.6892,0.6883,0.694,0.6967,0.7004,0.7041,0.7085,0.7095,0.7095,0.7095,0.7095,0.7102,0.7122,0.9671,1.061,1.1024,1.1286,1.1375,1.1416,1.143,1.1423,1.141,1.143,1.1375,1.1401,1.1353,1.1051,1.0863,1.0434,0.9932,0.9648,0.9362,0.912,0.9066,0.9256,0.9622,1.0186,1.1128,1.1928,1.2586,1.3008,1.3403,1.3643,1.3906,1.4039,1.4088,1.3997,1.3779,1.3646,1.3434,1.3094,1.2619,1.2192,1.1628,1.1413,1.1111,1.0641,1.0207,0.9554,0.902,0.8787,0.8342,0.8038,0.7879,0.7998,0.8091,0.8163,0.8251,0.8358,0.8512,0.8564,0.8592,0.8643,0.8627,0.8676,0.8627,0.8627,0.8531,0.8432,0.8287,0.8137,0.8137,0.8137,0.7988,0.7988,0.7988,0.7988,0.7975,0.7971,0.7904,0.7855,0.7784,0.7726,0.7655,0.7587,0.7539,0.7444,0.7343,0.7305,0.7193,0.7179,0.7183,0.7122,0.7109,0.7098,0.7098,0.7095,0.7088,0.7085,0.7048,0.7048,0.7034,0.6967,0.6953,0.7018,0.7045,0.7014,0.7028,0.7051,0.7092,0.7095,0.7095,0.7095,0.7095,0.7095,0.7098,0.7173,0.7217]}]]